[[{"header":{"parameterUnit":"m.s-1","parameterCategory":1,"la1":31.0,"la2":29.5877,"lo1":-88.7671,"lo2":-86.6584,"dy":0.0162,"dx":0.0185,"nx":115,"ny":88,"refTime":"2023-06-26T00:00:00:Z","depth":0,"parameterNumber":2,"parameterNumberName":"U-component_of_WINDS"},"data":[0.0,0.0,0.0,0.0,0.0,0.0,0.0,0.0,0.0,0.0,0.0,0.0,0.0,0.0,0.0,0.0,0.0,0.0,0.0,0.0,0.0,0.0,0.0,0.0,0.0,0.0,0.0,0.0,0.0,0.0,0.0,0.0,0.0,0.0,0.0,0.0,0.0,0.0,0.0,0.0,0.0,0.0,0.0,0.0,0.0,0.0,0.0,0.0,0.0,0.0,0.0,0.0,0.0,0.0,0.0,0.0,0.0,0.0,0.0,0.0,0.0,0.0,0.0,0.0,0.0,0.0,0.0,0.0,0.0,0.0,0.0,0.0,0.0,0.0,0.0,0.0,0.0,0.0,0.0,0.0,0.0,0.0,0.0,0.0,0.0,0.0,0.0,0.0,0.0,0.0,0.0,0.0,0.0,0.0,0.0,0.0,0.0,0.0,0.0,0.0,0.0,0.0,0.0,0.0,0.0,0.0,0.0,0.0,0.0,0.0,0.0,0.0,0.0,0.0,0.0,0.0,0.0,0.0,0.0,0.0,0.0,0.0,0.0,0.0,0.0,0.0,0.0,0.0,0.0,0.0,0.0,0.0,0.0,0.0,0.0,0.0,0.0,0.0,0.0,0.0,0.0,0.0,0.0,0.0,0.0,0.0,0.0,0.0,0.0,0.0,0.0,0.0,0.0,0.0,0.0,0.0,0.0,0.0,0.0,0.0,0.0,0.0,0.0,0.0,0.0,0.0,0.0,0.0,0.0,0.0,0.0,0.0,0.0,0.0,0.0,0.0,0.0,0.0,0.0,0.0,0.0,0.0,0.0,0.0,0.0,0.0,0.0,0.0,0.0,0.0,0.0,0.0,0.0,0.0,0.0,0.0,0.0,0.0,0.0,0.0,0.0,0.0,0.0,0.0,0.0,0.0,0.0,0.0,0.0,0.0,0.0,0.0,0.0,0.0,0.0,0.0,0.0,0.0,0.0,0.0,0.0,0.0,0.0,0.0,0.0,0.0,0.0,0.0,0.0,0.0,0.0,0.0,0.0,0.0,0.0,0.0,0.0,0.0,0.0,0.0,0.0,0.0,0.0,0.0,0.0,0.0,0.0,0.0,0.0,0.0,0.0,0.0,0.0,0.0,0.0,0.0,0.0,0.0,0.0,0.0,0.0,0.0,0.0,0.0,0.0,0.0,0.0,0.0,0.0,0.0,0.0,0.0,0.0,0.0,0.0,0.0,0.0,0.0,0.0,0.0,0.0,0.0,0.0,0.0,0.0,0.0,0.0,0.0,0.0,0.0,0.0,0.0,0.0,0.0,0.0,0.0,0.0,0.0,0.0,0.0,0.0,0.0,0.0,0.0,0.0,0.0,0.0,0.0,0.0,0.0,0.0,0.0,0.0,0.0,0.0,0.0,0.0,0.0,0.0,0.0,0.0,0.0,0.0,0.0,0.0,0.0,0.0,0.0,0.0,0.0,0.0,0.0,0.0,0.0,0.0,0.0,0.0,0.0,0.0,0.0,0.0,0.0,0.0,0.0,0.0,0.0,0.0,0.0,0.0,0.0,0.0,0.0,0.0,0.0,0.0,0.0,0.0,0.0,0.0,0.0,0.0,0.0,0.0,0.0,0.0,0.0,0.0,0.0,0.0,0.0,0.0,0.0,0.0,0.0,0.0,0.0,0.0,0.0,0.0,0.0,0.0,0.0,0.0,0.0,0.0,0.0,0.0,0.0,0.0,0.0,0.0,0.0,0.0,0.0,0.0,0.0,0.0,0.0,0.0,0.0,0.0,0.0,0.0,0.0,0.0,0.0,0.0,0.0,0.0,0.0,0.0,0.0,0.0,0.0,0.0,0.0,0.0,0.0,0.0,0.0,0.0,0.0,0.0,0.0,0.0,0.0,0.0,0.0,0.0,0.0,0.0,0.0,0.0,0.0,0.0,0.0,0.0,0.0,0.0,0.0,0.0,0.0,0.0,0.0,0.0,0.0,0.0,0.0,0.0,0.0,0.0,0.0,0.0,0.0,0.0,0.0,0.0,0.0,0.0,0.0,0.0,0.0,0.0,0.0,0.0,0.0,0.0,0.0,0.0,0.0,0.0,0.0,0.0,0.0,0.0,0.0,0.0,0.0,0.0,0.0,0.0,0.0,0.0,0.0,0.0,0.0,0.0,0.0,0.0,0.0,0.0,0.0,0.0,0.0,0.0,0.0,0.0,0.0,0.0,0.0,0.0,0.0,0.0,0.0,0.0,0.0,0.0,0.0,0.0,0.0,0.0,0.0,0.0,0.0,0.0,0.0,0.0,0.0,0.0,0.0,0.0,0.0,0.0,0.0,0.0,0.0,0.0,0.0,0.0,0.0,0.0,0.0,0.0,0.0,0.0,0.0,0.0,0.0,0.0,0.0,0.0,0.0,0.0,0.0,0.0,0.0,0.0,0.0,0.0,0.0,0.0,0.0,0.0,0.0,0.0,0.0,0.0,0.0,0.0,0.0,0.0,0.0,0.0,0.0,0.0,0.0,0.0,0.0,0.0,0.0,0.0,0.0,0.0,0.0,0.0,0.0,0.0,0.0,0.0,0.0,0.0,0.0,0.0,0.0,0.0,0.0,0.0,0.0,0.0,0.0,0.0,0.0,0.0,0.0,0.0,0.0,0.0,0.0,0.0,0.0,0.0,0.0,0.0,0.0,0.0,0.0,0.0,0.0,0.0,0.0,0.0,0.0,0.0,0.0,0.0,0.0,0.0,0.0,0.0,0.0,0.0,0.0,0.0,0.0,0.0,0.0,0.0,0.0,0.0,0.0,0.0,0.0,0.0,0.0,0.0,0.0,0.0,0.0,0.0,0.0,0.0,0.0,0.0,0.0,0.0,0.0,0.0,0.0,0.0,0.0,0.0,0.0,0.0,0.0,0.0,0.0,0.0,0.0,0.0,0.0,0.0,0.0,0.0,0.0,0.0,0.0,0.0,0.0,0.0,0.0,0.0,0.0,0.0,0.0,0.0,0.0,0.0,0.0,0.0,0.0,0.0,0.0,0.0,0.0,0.0,0.0,0.0,0.0,0.0,0.0,0.0,0.0,0.0,0.0,0.0,0.0,0.0,0.0,0.0,0.0,0.0,0.0,0.0,0.0,0.0,0.0,0.0,0.0,0.0,0.0,0.0,0.0,0.0,0.0,0.0,0.0,0.0,0.0,0.0,0.0,0.0,0.0,0.0,0.0,0.0,0.0,0.0,0.0,0.0,0.0,0.0,0.0,0.0,0.0,0.0,0.0,0.0,0.0,0.0,0.0,0.0,0.0,0.0,0.0,0.0,0.0,0.0,0.0,0.0,0.0,0.0,0.0,0.0,0.0,0.0,0.0,0.0,0.0,0.0,0.0,0.0,0.0,0.0,0.0,0.0,0.0,0.0,0.0,0.0,0.0,0.0,0.0,0.0,0.0,0.0,0.0,0.0,0.0,0.0,0.0,0.0,0.0,0.0,0.0,0.0,0.0,0.0,0.0,0.0,0.0,0.0,0.0,0.0,0.0,0.0,0.0,0.0,0.0,0.0,0.0,0.0,0.0,0.0,0.0,0.0,0.0,0.0,0.0,0.0,0.0,0.0,0.0,0.0,0.0,0.0,0.0,0.0,0.0,0.0,0.0,0.0,0.0,0.0,0.0,0.0,0.0,0.0,0.0,0.0,0.0,0.0,0.0,0.0,0.0,0.0,0.0,0.0,0.0,0.0,0.0,0.0,0.0,0.0,0.0,0.0,0.0,0.0,0.0,0.0,0.0,0.0,0.0,0.0,0.0,0.0,0.0,0.0,0.0,0.0,0.0,0.0,0.0,0.0,0.0,0.0,0.0,0.0,0.0,0.0,0.0,0.0,0.0,0.0,0.0,0.0,0.0,0.0,0.0,0.0,0.0,0.0,0.0,0.0,0.0,0.0,0.0,0.0,0.0,0.0,0.0,0.0,0.0,0.0,0.0,0.0,0.0,0.0,0.0,0.0,0.0,0.0,0.0,0.0,0.0,0.0,0.0,0.0,0.0,0.0,0.0,0.0,0.0,0.0,0.0,0.0,0.0,0.0,0.0,0.0,0.0,0.0,0.0,0.0,0.0,0.0,0.0,0.0,0.0,0.0,0.0,0.0,0.0,0.0,0.0,0.0,0.0,0.0,0.0,0.0,0.0,0.0,0.0,0.0,0.0,0.0,0.0,0.0,0.0,0.0,0.0,0.0,0.0,0.0,0.0,0.0,0.0,0.0,0.0,0.0,0.0,0.0,0.0,0.0,0.0,0.0,0.0,0.0558,0.0,0.0,0.0,0.0,0.0,0.0,0.0,0.0,0.0,0.0,0.0,0.0,0.0,0.0,0.0,0.0,0.0,0.0,0.0,0.0,0.0,0.0,0.0,0.0,0.0,0.0,0.0,0.0,0.0,0.0,0.0,0.0,0.0,0.0,0.0,0.0,0.0,0.0,0.0,0.0,0.0,0.0,0.0,0.0,0.0,0.0,0.0,0.0,0.0,0.0,0.0,0.0,0.0,0.0,0.0,0.0,0.0,0.0,0.0,0.0,0.0,0.0,0.0,0.0,0.0,0.0,0.0,0.0,0.0,0.0,0.0,0.0,0.0,0.0,0.0,0.0,0.0,0.0,0.0,0.0,0.0,0.0,0.0,0.0,0.0,0.0,0.0,0.0,0.0,0.0,0.0,0.0,0.0,0.0,0.0,0.0,0.0,0.0,0.0,0.0,0.0,0.0,0.0,0.0,0.0,0.0,0.0,0.0,0.0,0.0,0.0498,0.0388,0.0488,0.0487,0.0403,0.0,0.0,0.0,0.0,0.0,0.0,0.0,0.0,0.0,0.0,0.0,0.0,0.0,0.0,0.0,0.0,0.0,0.0,0.0,0.0,0.0,0.0,0.0,0.0,0.0,0.0,0.0,0.0,0.0,0.0,0.0,0.0,0.0,0.0,0.0,0.0,0.0,0.0,0.0,0.0,0.0,0.0,0.0,0.0,0.0,0.0,0.0,0.0,0.0,0.0,0.0,0.0,0.0,0.0,0.0,0.0,0.0,0.0,0.0,0.0,0.0,0.0,0.0,0.0,0.0,0.0,0.0,0.0,0.0,0.0,0.0,0.0,0.0,0.0,0.0,0.0,0.0,0.0,0.0,0.0,0.0,0.0,0.0,0.0,0.0,0.0,0.0,0.0,0.0,0.0,0.0,0.0,0.0,0.0,0.0,0.0,0.0,0.0,0.0,0.0,0.0,0.0,0.0,0.0,0.0,0.0,0.0,0.0,0.0,0.0,0.0,0.0,0.0159,0.018,0.0197,0.0,0.0,0.0,0.0,0.0,0.0,0.0,0.0,0.0,0.0,0.0,0.0,0.0,0.0,0.0,0.0,0.0,0.0,0.0,0.0,0.0,0.0,0.0,0.0,0.0,0.0,0.0,0.0,0.0,0.0,0.0,0.0,0.0,0.0,0.0,0.0,0.0,0.0,0.0,0.0,0.0,0.0,0.0,0.0,0.0,0.0,0.0,0.0,0.0,0.0,0.0,0.0,0.0,0.0,0.0,0.0,0.0,0.0,0.0,0.0,0.0,0.0,0.0,0.0,0.0,0.0,0.0,0.0,0.0,0.0,0.0,0.0,0.0,0.0,0.0,0.0,0.0,0.0,0.0,0.0,0.0,0.0,0.0,0.0,0.0,0.0,0.0,0.0,0.0,0.0,0.0,0.0,0.0,0.0,0.0,0.0,0.0,0.0,0.0,0.0,0.0,0.0,0.0,0.0,0.0,0.0,0.0,0.0,0.0,0.0,-0.0067,-0.0235,-0.0254,0.0,-0.0056,0.0,0.0,0.0,0.0,0.0,0.0,0.0,0.0,0.0,0.0,0.0,0.0,0.0,0.0,0.0,0.0,0.0,0.0,0.0,0.0,0.0,0.0,0.0,0.0,0.0,0.0,0.0,0.0,0.0,0.0,0.0,0.0,0.0,0.0,0.0,0.0,0.0,0.0,0.0,0.0,0.0,0.0,0.0,0.0,0.0,0.0,0.0,0.0,0.0,0.0,0.0,0.0,0.0,0.0,0.0,0.0,0.0,0.0,0.0,0.0,0.0,0.0,0.0,0.0,0.0,0.0,0.0,0.0,0.0,0.0,0.0,0.0,0.0,0.0,0.0,0.0,0.0,0.0,0.0,0.0,0.0,0.0,0.0,0.0,0.0,0.0,0.0,0.0,0.0,0.0,0.0,0.0,0.0,0.0,0.0,0.0,0.0,0.0,0.0,0.0,0.0,0.0,0.0,0.0,0.0,0.0,0.0,0.0,0.0,0.0,-0.0505,-0.0606,-0.0604,-0.0487,0.0,0.0,0.0,0.0,0.0,0.0,0.0,0.0,0.0,0.0,0.0,0.0,0.0,0.0,0.0,0.0,0.0,0.0,0.0,0.0,0.0,0.0,0.0,0.0,0.0,0.0,0.0,0.0,0.0,0.0,0.0,0.0,0.0,0.0,0.0,0.0,0.0,0.0,0.0,0.0,0.0,0.0,0.0,0.0,0.0,0.0,0.0,0.0,0.0,0.0,0.0,0.0,0.0,0.0,0.0,0.0,0.0,0.0,0.0,0.0,0.0,0.0,0.0,0.0,0.0,0.0,0.0,0.0,0.0,0.0,0.0,0.0,0.0,0.0,0.0,0.0,0.0,0.0,0.0,0.0,0.0,0.0,0.0,0.0,0.0,0.0,0.0,0.0,0.0,0.0,0.0,0.0,0.0,0.0,0.0,0.0,0.0,0.0,0.0,0.0,0.0,0.0,0.0,0.0,0.0,0.0,0.0,0.0,0.0,0.0,-0.091,-0.0943,-0.0941,-0.0905,-0.079,-0.06,0.0,0.0,0.0,0.0,0.0,0.0,0.0,0.0,0.0,0.0,0.0,0.0,0.0,0.0,0.0,0.0,0.0,0.0,0.0,0.0,0.0,0.0,0.0,0.0,0.0,0.0,0.0,0.0,0.0,0.0,0.0,0.0,0.0,0.0,0.0,0.0,0.0,0.0,0.0,0.0,0.0,0.0,0.0,0.0,0.0,0.0,0.0,0.0,0.0,0.0,0.0,0.0,0.0,0.0,0.0,0.0,0.0,0.0,0.0,0.0,0.0,0.0,0.0,0.0,0.0,0.0,0.0,0.0,0.0,0.0,0.0,0.0,0.0,0.0,0.0,0.0,0.0,0.0,0.0,0.0,0.0,0.0,0.0,0.0,0.0,0.0,0.0,0.0,0.0,0.0,0.0,0.0,0.0,0.0,0.0,0.0,0.0,0.0,0.0,0.0,0.0,0.0,0.0,0.0,0.0,0.0,0.0,0.0,-0.1179,-0.1247,-0.1281,-0.1279,-0.1174,-0.1106,0.0,0.0,0.0,0.0,0.0,0.0,0.0,0.0,0.0,0.0,0.0,0.0,0.0,0.0,0.0,0.0,0.0,0.0,0.0,0.0,0.0,0.0,0.0,0.0,0.0,0.0,0.0,0.0,0.0,0.0,0.0,0.0,0.0,0.0,0.0,0.0,0.0,0.0,0.0,0.0,0.0,0.0,0.0,0.0,0.0,0.0,0.0,0.0,0.0,0.0,0.0,0.0,0.0,0.0,0.0,0.0,0.0,0.0,0.0,0.0,0.0,0.0,0.0,0.0,0.0,0.0,0.0,0.0,0.0,0.0,0.0,0.0,0.0,0.0,0.0,0.0,0.0,0.0,0.0,0.0,0.0,0.0,0.0,0.0,0.0,0.0,0.0,0.0,0.0,0.0,0.0,0.0,0.0,0.0,0.0,0.0,0.0,0.0,0.0,0.0,0.0,0.0,0.0,0.0,0.0,0.0,0.0,0.0,0.0,-0.1444,-0.1475,-0.1477,-0.1477,-0.1444,-0.1377,0.0,0.0,0.0,0.0,0.0,0.0,0.0,0.0,0.0,0.0,0.0,0.0,0.0,0.0,0.0,0.0,0.0,0.0,0.0,0.0,0.0,0.0,0.0,0.0,0.0,0.0,0.0,0.0,0.0,0.0,0.0,0.0,0.0,0.0,0.0,0.0,0.0,0.0,0.0,0.0,0.0,0.0,0.0,0.0,0.0,0.0,0.0,0.0,0.0,0.0,0.0,0.0,0.0,0.0,0.0,0.0,0.0,0.0,0.0,0.0,0.0,0.0,0.0,0.0,0.0,0.0,0.0,0.0,0.0,0.0,0.0,0.0,0.0,0.0,0.0,0.0,0.0,0.0,0.0,0.0,0.0,0.0,0.0,0.0,0.0,0.0,0.0,0.0,0.0,0.0,0.0,0.0,0.0,0.0,0.0,0.0,0.0,0.0,0.0,0.0,0.0,0.0,0.0,0.0,0.0,0.0,0.0,0.0,0.0,-0.1709,0.0,-0.1742,-0.1776,-0.1709,-0.1611,0.0,0.0,0.0,0.0,0.0,0.0,0.0,0.0,0.0,0.0,0.0,0.0,0.0,0.0,0.0,0.0,0.0,0.0,0.0,0.0,0.0,0.0,0.0,0.0,0.0,0.0,0.0,0.0,0.0,0.0,0.0,0.0,0.0,0.0,0.0,0.0,0.0,0.0,0.0,0.0,0.0,0.0,0.0,0.0,0.0,0.0,0.0,0.0,0.0,0.0,0.0,0.0,0.0,0.0,0.0,0.0,0.0,0.0,0.0,0.0,0.0,0.0,0.0,0.0,0.0,0.0,0.0,0.0,0.0,0.0,0.0,0.0,0.0,0.0,0.0,0.0,0.0,0.0,0.0,0.0,0.0,0.0,0.0,0.0,0.0,0.0,0.0,0.0,0.0,0.0,0.0,0.0,0.0,0.0,0.0,0.0,0.0,0.0,0.0,0.0,0.0,0.0,0.0,0.0,0.0,0.0,0.0,0.0,-0.1814,-0.1978,-0.2047,-0.2081,-0.2114,-0.1945,-0.1842,0.0,0.0,0.0,0.0,0.0,0.0,0.0,0.0,0.0,0.0,0.0,0.0,0.0,0.0,0.0,0.0,0.0,0.0,0.0,0.0,0.0,0.0,0.0,0.0,0.0,0.0,0.0,0.0,0.0,0.0,0.0,0.0,0.0,0.0,0.0,0.0,0.0,0.0,0.0,0.0,0.0,0.0,0.0,0.0,0.0,0.0,0.0,0.0,0.0,0.0,0.0,0.0,0.0,0.0,0.0,0.0,0.0,0.0,0.0,0.0,0.0,0.0,0.0,0.0,0.0,0.0,0.0,0.0,0.0,0.0,0.0,0.0,0.0,0.0,0.0,0.0,0.0,0.0,0.0,0.0,0.0,0.0,0.0,0.0,0.0,0.0,0.0,0.0,0.0,0.0,0.0,0.0,0.0,0.0,0.0,0.0,0.0,0.0,0.0,0.0,0.0,0.0,0.0,0.0,0.0,0.0,0.0,0.0,0.0,-0.205,-0.2047,-0.2047,-0.2014,-0.1845,-0.1742,0.0,0.0,0.0,0.0,0.0,0.0,0.0,0.0,0.0,0.0,0.0,0.0,0.0,0.0,0.0,0.0,0.0,0.0,0.0,0.0,0.0,0.0,0.0,0.0,0.0,0.0,0.0,0.0,0.0,0.0,0.0,0.0,0.0,0.0,0.0,0.0,0.0,0.0,0.0,0.0,0.0,0.0,0.0,0.0,0.0,0.0,0.0,0.0,0.0,0.0,0.0,0.0,0.0,0.0,0.0,0.0,0.0,0.0,0.0,0.0,0.0,0.0,0.0,0.0,0.0,0.0,0.0,0.0,0.0,0.0,0.0,0.0,0.0,0.0,0.0,0.0,0.0,0.0,0.0,0.0,0.0,0.0,0.0,0.0,0.0,0.0,0.0,0.0,0.0,0.0,0.0,0.0,0.0,0.0,0.0,0.0,0.0,0.0,0.0,0.0,0.0,0.0,0.0,0.0,0.0,0.0,0.0,0.0,0.0,-0.2059,-0.2057,-0.2057,-0.2057,-0.1837,-0.1765,-0.1765,0.0,0.0,0.0,0.0,0.0,0.0,0.0,0.0,0.0,0.0,0.0,0.0,0.0,0.0,0.0,0.0,0.0,0.0,0.0,0.0,0.0,0.0,0.0,0.0,0.0,0.0,0.0,0.0,0.0,0.0,0.0,0.0,0.0,0.0,0.0,0.0,0.0,0.0,0.0,0.0,0.0,0.0,0.0,0.0,0.0,0.0,0.0,0.0,0.0,0.0,0.0,0.0,0.0,0.0,0.0,0.0,0.0,0.0,0.0,0.0,0.0,0.0,0.0,0.0,0.0,0.0,0.0,0.0,0.0,0.0,0.0,0.0,0.0,0.0,0.0,0.0,0.0,0.0,0.0,0.0,0.0,0.0,0.0,0.0,0.0,0.0,0.0,0.0,0.0,0.0,0.0,0.0,0.0,0.0,0.0,0.0,0.0,0.0,0.0,0.0,0.0,0.0,0.0,0.0,0.0,0.0,0.0,0.0,-0.1995,-0.2137,-0.2177,-0.2074,-0.1897,-0.1807,0.0,0.0,0.0,0.0,0.0,0.0,0.0,0.0,0.0,0.0,0.0,0.0,0.0,0.0,0.0,0.0,0.0,0.0,0.0,0.0,0.0,0.0,0.0,0.0,0.0,0.0,0.0,0.0,0.0,0.0,0.0,0.0,0.0,0.0,0.0,0.0,0.0,0.0,0.0,0.0,0.0,0.0,0.0,0.0,0.0,0.0,0.0,0.0,0.0,0.0,0.0,0.0,0.0,0.0,0.0,0.0,0.0,0.0,0.0,0.0,0.0,0.0,0.0,0.0,0.0,0.0,0.0,0.0,0.0,0.0,0.0,0.0,0.0,0.0,0.0,0.0,0.0,0.0,0.0,0.0,0.0,0.0,0.0,0.0,0.0,0.0,0.0,0.0,0.0,0.0,0.0,0.0,0.0,0.0,0.0,0.0,0.0,0.0,0.0,0.0,0.0,0.0,0.0,0.0,0.0,0.0,0.0,0.0,0.0,-0.1927,-0.2088,-0.2116,-0.1946,-0.1805,-0.1736,0.0,0.0,0.0,0.0,0.0,0.0,0.0,0.0,0.0,0.0,0.0,0.0,0.0,0.0,0.0,0.0,0.0,0.0,0.0,0.0,0.0,0.0,0.0,0.0,0.0,0.0,0.0,0.0,0.0,0.0,0.0,0.0,0.0,0.0,0.0,0.0,0.0,0.0,0.0,0.0,0.0,0.0,0.0,0.0,0.0,0.0,0.0,0.0,0.0,0.0,0.0,0.0,0.0,0.0,0.0,0.0,0.0,0.0,0.0,0.0,0.0,0.0,0.0,0.0,0.0,0.0,0.0,0.0,0.0,0.0,0.0,0.0,0.0,0.0,0.0,0.0,0.0,0.0,0.0,0.0,0.0,0.0,0.0,0.0,0.0,0.0,0.0,0.0,0.0,0.0,0.0,0.0,0.0,0.0,0.0,0.0,0.0,0.0,0.0,0.0,0.0,0.0,0.0,0.0,0.0,0.0,0.0,0.0,-0.1822,-0.1959,-0.2073,-0.2058,-0.1972,-0.1853,-0.1801,0.0,0.0,0.0,0.0,0.0,0.0,0.0,0.0,0.0,0.0,0.0,0.0,0.0,0.0,0.0,0.0,0.0,0.0,0.0,0.0,0.0,0.0,0.0,0.0,0.0,0.0,0.0,0.0,0.0,0.0,0.0,0.0,0.0,0.0,0.0,0.0,0.0,0.0,0.0,0.0,0.0,0.0,0.0,0.0,0.0,0.0,0.0,0.0,0.0,0.0,0.0,0.0,0.0,0.0,0.0,0.0,0.0,0.0,0.0,0.0,0.0,0.0,0.0,0.0,0.0,0.0,0.0,0.0,0.0,0.0,0.0,0.0,0.0,0.0,0.0,0.0,0.0,0.0,0.0,0.0,0.0,0.0,0.0,0.0,0.0,0.0,0.0,0.0,0.0,0.0,0.0,0.0,0.0,0.0,0.0,0.0,0.0,0.0,0.0,0.0,0.0,0.0,0.0,0.0,0.0,0.0,0.0,0.0,-0.1787,-0.2041,-0.2002,-0.2064,-0.2116,-0.2001,-0.1977,0.0,0.0,0.0,0.0,0.0,0.0,0.0,0.0,0.0,0.0,0.0,0.0,0.0,0.0,0.0,0.0,0.0,0.0,0.0,0.0,0.0,0.0,0.0,0.0,0.0,0.0,0.0,0.0,0.0,0.0,0.0,0.0,0.0,0.0,0.0,0.0,0.0,0.0,0.0,0.0,0.0,0.0,0.0,0.0,0.0,0.0,0.0,0.0,0.0,0.0,0.0,0.0,0.0,0.0,0.0,0.0,0.0,0.0,0.0,0.0,0.0,0.0,0.0,0.0,0.0,0.0,0.0,0.0,0.0,0.0,0.0,0.0,0.0,0.0,0.0,0.0,0.0,0.0,0.0,0.0,0.0,0.0,0.0,0.0,0.0,0.0,0.0,0.0,0.0,0.0,0.0,0.0,0.0,0.0,0.0,0.0,0.0,0.0,0.0,0.0,0.0,0.0,0.0,0.0,0.0,0.0,0.0,0.0,-0.1833,-0.2067,-0.2048,-0.2064,-0.2124,-0.2099,-0.2078,0.0,0.0,0.0,0.0,0.0,0.0,0.0,0.0,0.0,0.0,0.0,0.0,0.0,0.0,0.0,0.0,0.0,0.0,0.0,0.0,0.0,0.0,0.0,0.0,0.0,0.0,0.0,0.0,0.0,0.0,0.0,0.0,0.0,0.0,0.0,0.0,0.0,0.0,0.0,0.0,0.0,0.0,0.0,0.0,0.0,0.0,0.0,0.0,0.1484,0.0,0.0,0.0,0.0,0.0,0.0,0.0,0.0,0.0,0.0,0.0,0.0,0.0,0.0,0.0,0.0,0.0,0.0,0.0,0.0,0.0,0.0,0.0,0.0,0.0,0.0,0.0,0.0,0.0,0.0,0.0,0.0,0.0,0.0,0.0,0.0,0.0,0.0,0.0,0.0,0.0,0.0,0.0,0.0,0.0,0.0,0.0,0.0,0.0,0.0,0.0,0.0,0.0,0.0,0.0,0.0,0.0,0.0,0.0,-0.1862,-0.2064,-0.1985,-0.1988,-0.2075,-0.2161,-0.2183,0.0,0.0,0.0,0.0,0.0,0.0,0.0,0.0,0.0,0.0,0.0,0.0,0.0,0.0,0.0,0.0,0.0,0.0,0.0,0.0,0.0,0.0,0.0,0.0,0.0,0.0,0.0,0.0,0.0,0.0,0.0,0.0,0.0,0.0,0.0,0.0,0.0,0.0,0.0,0.0,0.0,0.0,0.0,0.0,0.0,0.0,0.0,0.0,0.0,0.0,0.0,0.0,0.0,0.0,0.0,0.0,0.0,0.0,0.0,0.0,0.0,0.0,0.0,0.0,0.0,0.0,0.0,0.0,0.0,0.0,0.0,0.0,0.0,0.0,0.0,0.0,0.0,0.0,0.0,0.0,0.0,0.0,0.0,0.0,0.0,0.0,0.0,0.0,0.0,0.0,0.0,0.0,0.0,0.0,0.0,0.0,0.0,0.0,0.0,0.0,0.0,0.0,0.0,0.0,0.0,0.0,0.0,-0.181,-0.1886,-0.1971,-0.1964,-0.1963,-0.2033,-0.2144,-0.2204,-0.2217,0.0,0.0,0.0,0.0,0.0,0.0,0.0,0.0,0.0,0.0,0.0,0.0,0.0,0.0,0.0,0.0,0.0,0.0,0.0,0.0,0.0,0.0,0.0,0.0,0.0,0.0,0.0,0.0,0.0,0.0,0.0,0.0,0.0,0.0,0.0,0.0,0.0,0.0,0.0717,0.0438,0.0,0.0,0.0,0.0,0.0,0.0,0.0,0.0,0.1126,0.0,0.0,0.0,0.0,0.0,0.0,0.0,0.0,0.0,0.0,0.0,0.0,0.0,0.0,0.0,0.0,0.0,0.0,0.0,0.0,0.0,0.0,0.0,0.0,0.0,0.0,0.0,0.0,0.0,0.0,0.0,0.0,0.0,0.0,0.0,0.0,0.0,0.0,0.0,0.0,0.0,0.0,0.0,0.0,0.0,0.0,0.0,0.0,0.0,0.0,0.0,0.0,0.0,0.0,0.0,0.0,-0.1981,-0.1959,-0.1964,-0.1919,-0.1886,-0.192,-0.2027,-0.2098,-0.2231,-0.2349,0.0,0.0,0.0,0.0,0.0,0.0,0.0,0.0,0.0,0.0,0.0,0.0,0.0,0.0,0.0,0.0,0.0,0.0,0.0,0.0,0.0,0.0,0.0,0.0,0.0,0.0,0.0,0.0,0.0,0.0,0.0,0.0,0.0,0.0,0.0,0.0,0.0,0.0,0.0,0.1095,0.1065,0.0,0.0,0.0,0.0,0.0,0.0,0.0,0.0,0.0352,0.0,0.0,0.0,0.0,0.0,0.0,0.0,0.0,0.0,0.0,0.0,0.0,0.0,0.0,0.0,0.0,0.0,0.0,0.0,0.0,0.0,0.0,0.0,0.0,0.0,0.0,0.0,0.0,0.0,0.0,0.0,0.0,0.0,0.0,0.0,0.0,0.0,0.0,0.0,0.0,0.0,0.0,0.0,0.0,0.0,0.0,0.0,0.0,0.0,0.0,0.0,0.0,0.0,0.0,0.0,-0.1965,-0.1957,-0.1935,-0.1834,-0.1867,-0.1882,-0.188,-0.2109,-0.2331,0.0,0.0,0.0,0.0,0.0,0.0,0.0,0.0,0.0,0.0,0.0,0.0,0.0,0.0,0.0,0.0,0.0,0.0,0.0,0.0,0.0,0.0,0.0,0.0,0.0,0.0,0.0,0.0,0.0,0.0,0.0,0.0,0.0,0.0,0.0,0.0,0.0,0.0,0.0,0.0,0.0976,0.1115,0.0916,0.0,0.0,0.0,0.0,0.0,0.0,0.009,-0.0,0.0,0.0,0.0,0.0,0.0,0.0,0.0,0.0,0.0,0.0,0.0,0.0,0.0,0.0,0.0,0.0,0.0,0.0,0.0,0.0,0.0,0.0,0.0,0.0,0.0,0.0,0.0,0.0,0.0,0.0,0.0,0.0,0.0,0.0,0.0,0.0,0.0,0.0,0.0,0.0,0.0,0.0,0.0,0.0,0.0,0.0,0.0,0.0,0.0,0.0,0.0,0.0,0.0,0.0,0.0,-0.1969,-0.1939,-0.1844,-0.1796,-0.1842,-0.1842,-0.1798,-0.2158,-0.2404,0.0,0.0,0.0,0.0,0.0,0.0,0.0,0.0,0.0,0.0,0.0,0.0,0.0,0.0,0.0,0.0,0.0,0.0,0.0,0.0,0.0,0.0,0.0,0.0,0.0,0.0,0.0,0.0,0.0,0.0,0.0,0.0,0.0,0.0,0.0,0.0,0.0,0.0,0.0,0.0,0.0,0.0853,0.1391,0.0539,0.0,0.0,0.0,0.0,-0.0137,-0.0046,0.0,0.0,0.0,0.0,0.0,0.0,0.0,0.0,0.0,0.0,0.0,0.0,0.0,0.0,0.0,0.0,0.0,0.0,0.0,0.0,0.0,0.0,0.0,0.0,0.0,0.0,0.0,0.0,0.0,0.0,0.0,0.0,0.0,0.0,0.0,0.0,0.0,0.0,0.0,0.0,0.0,0.0,0.0,0.0,0.0,0.0,0.0,0.0,0.0,0.0,0.0,0.0,0.0,0.0,0.0,0.0,-0.2021,-0.1937,-0.1845,-0.1793,-0.1804,-0.1804,-0.1796,-0.227,-0.2589,0.0,0.0,0.0,0.0,0.0,0.0,0.0,0.0,0.0,0.0,0.0,0.0,0.0,0.0,0.0,0.0,0.0,0.0,0.0,0.0,0.0,0.0,0.0,0.0,0.0,0.0,0.0,0.0,0.0,0.0,0.0,0.0,0.0,0.0,0.0,0.0,0.0,0.0,0.0,0.0,0.0,0.0584,0.0809,0.0315,-0.0091,0.0,0.0,-0.0,-0.0,0.0195,0.0,0.0,0.0,0.0,0.0,0.0,0.0,0.0,0.0,0.0,0.0,0.0,0.0,0.0,0.0,0.0,0.0,0.0,0.0,0.0,0.0,0.0,0.0,0.0,0.0,0.0,0.0,0.0,0.0,0.0,0.0,0.0,0.0,0.0,0.0,0.0,0.0,0.0,0.0,0.0,0.0,0.0,0.0,0.0,0.0,0.0,0.0,0.0,0.0,0.0,0.0,0.0,0.0,0.0,0.0,-0.1939,-0.1974,-0.1923,-0.1826,-0.1796,-0.1797,-0.1797,-0.1797,-0.2304,-0.2718,0.0,0.0,0.0,0.0,0.0,0.0,0.0,0.0,0.0,0.0,0.0,0.0,0.0,0.0,0.0,0.0,0.0,0.0,0.0,0.0,0.0,0.0,0.0,0.0,0.0,0.0,0.0,0.0,0.0,0.0,0.0,0.0,0.0,0.0,0.0,0.0,0.0,0.0,0.0,0.0,0.0,0.0,0.0433,0.0192,0.0,0.0,0.0,0.0296,0.0542,0.0,0.0,0.0,0.0,0.0,0.0,0.0,0.0,0.0,0.0,0.0,0.0,0.0,0.0,0.0,0.0,0.0,0.0,0.0,0.0,0.0,0.0,0.0,0.0,0.0,0.0,0.0,0.0,0.0,0.0,0.0,0.0,0.0,0.0,0.0,0.0,0.0,0.0,0.0,0.0,0.0,0.0,0.0,0.0,0.0,0.0,0.0,0.0,0.0,0.0,0.0,0.0,0.0,0.0,0.0,0.0,0.0,-0.1998,-0.1907,-0.1797,-0.1797,-0.1797,-0.1797,-0.1794,-0.2325,0.0,0.0,0.0,0.0,0.0,0.0,0.0,0.0,0.0,0.0,0.0,0.0,0.0,0.0,0.0,0.0,0.0,0.0,0.0,0.0,0.0,0.0,0.0,0.0,0.0,0.0,0.0,-0.1194,0.0,0.0,0.0,0.0,0.0,0.0,0.0,0.0,0.0,0.0,0.0,0.0,0.0,0.0,-0.0101,-0.0102,-0.0152,-0.0101,0.0,0.0,0.0511,0.092,0.1237,0.1137,0.0,0.0,0.0,0.0,0.0,0.0,0.0,0.0,0.0,0.0,0.0,0.0,0.0,0.0,0.0,0.0,0.0,0.0,0.0,0.0,0.0,0.0,0.0,0.0,0.0,0.0,0.0,0.0,0.0,0.0,0.0,0.0,0.0,0.0,0.0,0.0,0.0,0.0,0.0,0.0,0.0,0.0,0.0,0.0,0.0,0.0,0.0,0.0,0.0,0.0,0.0,0.0,0.0,0.0,-0.2002,-0.2066,-0.1872,-0.1797,-0.1797,-0.1797,-0.1797,-0.1796,-0.2056,-0.2449,0.0,0.0,0.0,0.0,0.0,0.0,0.0,0.0,0.0,0.0,0.0,0.0,0.0,0.0,0.0,0.0,0.0,0.0,0.0,0.0,0.0,0.0,0.0,0.0,0.0,0.0,0.0,0.0,0.0,0.0,0.0,0.0,0.0,0.0,0.0,0.0,0.0,0.0,0.0,0.0,0.0,-0.0919,-0.0845,-0.0825,-0.0664,0.0,0.0106,0.0477,0.0849,0.1362,0.1486,0.0693,0.0,0.0,0.0,0.0,0.0,0.0,0.0,0.0,0.0,0.0,0.0,0.0,0.0,0.0,0.0,0.0,0.0,0.0,0.0,0.0,0.0,0.0,0.0,0.0,0.0,0.0,0.0,0.0,0.0,0.0,0.0,0.0,0.0,0.0,0.0,0.0,0.0,0.0,0.0,0.0,0.0,0.0,0.0,0.0,0.0,0.0,0.0,0.0,0.0,0.0,0.0,0.0,0.0,-0.2099,-0.2073,-0.1873,-0.1797,-0.1797,-0.1797,-0.1797,-0.1797,-0.206,-0.2428,0.0,0.0,0.0,0.0,0.0,0.0,0.0,0.0,0.0,0.0,0.0,0.0,0.0,0.0,0.0,0.0,0.0,0.0,0.0,0.0,0.0,0.0,0.0,0.0,0.0,0.0,0.0,0.0,-0.1729,-0.1835,-0.2095,0.0,0.0,0.0,0.0,0.0,0.0,0.0,0.0,0.0,0.0,-0.0921,-0.0934,-0.087,0.0,0.0,-0.0165,0.022,0.0165,0.0888,0.117,0.0275,-0.0108,0.0,0.0,0.0,0.0,0.0,0.0,0.0,0.0,0.0,0.0,0.0,0.0,0.0,0.0,0.0,0.0,0.0,0.0,0.0,0.0,0.0,0.0,0.0,0.0,0.0,0.0,0.0,0.0,0.0,0.0,0.0,0.0,0.0,0.0,0.0,0.0,0.0,0.0,0.0,0.0,0.0,0.0,0.0,0.0,0.0,0.0,0.0,0.0,0.0,0.0,0.0,0.0,-0.2083,-0.2051,-0.1885,-0.1797,-0.1797,-0.1797,-0.1797,-0.1796,-0.1972,-0.2257,0.0,0.0,0.0,0.0,0.0,0.0,0.0,0.0,0.0,0.0,0.0,0.0,0.0,0.0,0.0,0.0,0.0,0.0,0.0,0.0,0.0,0.0,0.0,0.0,0.0,0.0,0.0,0.0,-0.2093,-0.2237,-0.2593,0.0,0.0,0.0,0.0,0.0,0.0,0.0,0.0,0.0,0.0,-0.1122,-0.1233,-0.1289,-0.1233,-0.1177,-0.0672,-0.028,-0.0392,0.0336,0.067,-0.0056,0.0,0.0,0.0,0.0,0.0,0.0,0.0,0.0,0.0,0.0,0.0,0.0,0.0,0.0,0.0,0.0,0.0,0.0,0.0,0.0,0.0,0.0,0.0,0.0,0.0,0.0,0.0,0.0,0.0,0.0,-0.2862,0.0,0.0,0.0,0.0,0.0,0.0,0.0,0.0,0.0,0.0,0.0,0.0,0.0,0.0,0.0,0.0,0.0,0.0,0.0,0.0,0.0,0.0,-0.2054,-0.2012,-0.185,-0.1797,-0.1797,-0.1797,-0.1797,-0.1797,-0.1796,-0.1931,-0.2237,0.0,0.0,0.0,0.0,0.0,0.0,0.0,0.0,0.0,0.0,0.0,0.0,0.0,0.0,0.0,0.0,0.0,0.0,0.0,0.0,0.0,0.0,0.0,0.0,0.0,0.0,-0.2941,-0.2916,-0.2898,0.0,0.0,0.0,0.0,0.0,0.0,0.0,0.0,0.0,0.0,-0.1685,-0.1682,-0.1959,-0.2071,-0.2071,-0.179,-0.1455,-0.1119,-0.0783,-0.0335,-0.0,0.0,0.0,0.0,0.0,0.0,0.0,0.0,0.0,0.0,0.0,0.0,0.0,0.0,0.0,0.0,0.0,0.0,0.0,0.0,0.0,0.0,0.0,0.0,0.0,0.0,0.0,0.0,-0.2462,-0.2618,0.0,0.0,0.0,0.0,0.0,0.0,0.0,0.0,0.0,0.0,0.0,-0.2296,-0.2345,0.0,0.0,0.0,0.0,0.0,0.0,0.0,0.0,0.0,0.0,0.0,0.0,-0.2158,-0.2127,-0.1908,-0.1797,-0.1797,-0.1797,-0.1797,-0.1797,-0.1797,-0.1953,-0.2369,0.0,0.0,0.0,0.0,0.0,0.0,0.0,0.0,0.0,0.0,0.0,0.0,0.0,0.0,0.0,0.0,0.0,0.0,0.0,0.0,0.0,0.0,0.0,0.0,0.0,-0.3086,0.0,0.0,0.0,0.0,0.0,0.0,0.0,0.0,0.0,0.0,0.0,-0.2046,-0.1959,-0.2074,-0.2244,-0.2296,-0.2465,-0.241,0.0,0.0,0.0,0.0,0.0,0.0,0.0,0.0,0.0,0.0,0.0,0.0,0.0,0.0,-0.1128,-0.0308,0.0302,0.0712,0.0781,0.0,0.0,0.0,0.0,0.0,0.0,0.0,0.0,0.0,0.0,0.0,0.0,0.0,0.0,-0.2261,0.0,-0.265,0.0,0.0,0.0,0.0,0.0,0.0,0.0,0.0,-0.243,-0.2466,-0.2427,-0.2539,-0.256,0.0,-0.2463,-0.2356,0.0,0.0,0.0,0.0,0.0,0.0,0.0,0.0,-0.2222,-0.2166,-0.194,-0.1827,-0.1827,-0.1827,-0.1816,-0.1798,-0.1797,-0.1965,-0.2244,-0.2575,-0.2974,0.0,0.0,0.0,0.0,0.0,0.0,0.0,0.0,0.0,0.0,0.0,0.0,0.0,0.0,0.0,0.0,0.0,0.0,0.0,0.0,0.0,0.0,0.0,-0.3382,0.0,0.0,0.0,0.0,0.0,0.0,0.0,0.0,0.0,-0.2658,-0.2411,-0.224,-0.2071,-0.224,-0.2475,-0.2732,0.0,0.0,0.0,0.0,0.0,0.0,0.0,-0.204,-0.177,-0.1424,-0.1153,-0.0893,-0.1157,-0.142,-0.1418,0.0,0.0,-0.0332,0.0434,0.0985,0.1007,0.1404,0.1753,0.1787,0.1737,0.1506,0.0,0.0,0.0,0.0,0.0,0.0,0.0,0.0,-0.2026,-0.2087,0.0,-0.2376,0.0,0.0,0.0,0.0,0.0,-0.2405,0.0,0.0,-0.2333,-0.2355,-0.2554,-0.263,-0.263,-0.2619,-0.2559,-0.2463,-0.2265,-0.2199,0.0,0.0,0.0,0.0,0.0,0.0,-0.2297,-0.2116,-0.2,-0.1883,-0.188,-0.1879,-0.1854,-0.18,-0.1797,-0.1797,-0.1797,-0.2242,-0.2573,-0.2685,-0.3466,0.0,0.0,0.0,0.0,0.0,0.0,0.0,0.0,0.0,0.0,0.0,0.0,0.0,0.0,0.0,0.0,0.0,0.0,0.0,0.0,-0.3343,0.0,0.0,0.0,0.0,0.0,0.0,0.0,0.0,0.0,0.0,-0.2837,-0.2587,-0.2469,-0.2245,0.0,0.0,0.0,0.0,-0.3032,-0.3308,-0.339,-0.3329,-0.3138,-0.2705,-0.2184,-0.147,0.0,0.0,-0.0368,-0.0928,-0.1365,-0.1363,-0.0806,-0.037,-0.0495,0.0307,0.098,0.0981,0.1652,0.2216,0.2279,0.2575,0.2701,-0.1907,0.0,0.0,0.0,0.0,-0.2187,-0.2183,-0.2257,-0.2331,-0.2379,-0.2472,-0.2446,0.0,0.0,0.0,0.0,0.0,0.0,-0.2557,-0.2541,-0.2601,-0.262,-0.2602,-0.2602,-0.2578,-0.2533,-0.2453,-0.2386,-0.2327,-0.2196,-0.2166,-0.2159,0.0,0.0,0.0,0.0,-0.2349,-0.2122,-0.1984,-0.1925,-0.1883,-0.188,-0.1854,-0.1798,-0.1797,-0.1797,-0.1797,-0.1909,-0.2211,-0.2607,-0.284,0.0,0.0,0.0,0.0,0.0,0.0,0.0,0.0,0.0,0.0,0.0,0.0,0.0,0.0,0.0,0.0,0.0,0.0,0.0,-0.3374,-0.3216,-0.351,0.0,0.0,0.0,0.0,0.0,0.0,0.0,0.0,0.0,-0.3012,-0.298,-0.3014,0.0,0.0,-0.3304,-0.3339,-0.316,-0.2926,-0.2586,-0.2822,0.0,-0.2348,-0.2427,-0.2366,-0.1829,-0.1239,-0.082,-0.0827,-0.1037,-0.1182,-0.1182,-0.0985,-0.0919,-0.0852,0.0063,0.0803,0.0923,0.1478,0.1971,0.2034,0.2526,0.2897,-0.1643,-0.1767,-0.1895,-0.194,-0.1817,-0.1922,-0.1965,-0.2018,-0.2178,-0.232,-0.2364,-0.2349,-0.2402,-0.2518,-0.2381,0.0,0.0,0.0,-0.2564,-0.2595,-0.2697,-0.2779,-0.267,-0.2674,-0.2642,-0.258,-0.2496,-0.2425,-0.2367,-0.2236,-0.2225,-0.2119,0.0,0.0,-0.2326,-0.2365,-0.2377,-0.224,-0.2128,-0.2001,-0.1989,-0.1943,-0.1901,-0.1868,-0.1867,-0.1867,-0.1867,-0.1868,-0.2058,-0.2335,-0.2516,-0.2934,0.0,0.0,0.0,0.0,0.0,0.0,0.0,0.0,0.0,0.0,0.0,-0.3614,-0.3715,0.0,0.0,0.0,-0.2999,-0.3116,-0.3243,-0.3353,0.0,0.0,0.0,0.0,0.0,0.0,0.0,-0.4464,-0.3898,-0.3381,-0.3075,-0.3245,-0.322,-0.2578,-0.2919,-0.3213,-0.3255,0.0,-0.2708,-0.2421,-0.2525,-0.2473,-0.2049,-0.2116,-0.2048,-0.1637,-0.1275,-0.1038,-0.105,-0.1065,-0.1075,-0.1076,-0.1076,-0.1076,-0.1076,-0.0457,0.0127,0.0446,0.1085,0.1531,0.1595,0.1915,0.2296,-0.1519,-0.1485,-0.1752,-0.1788,-0.161,-0.1612,-0.1531,-0.1365,-0.1705,-0.1957,-0.2035,-0.2236,-0.2343,-0.2442,-0.2388,0.0,-0.2604,-0.2507,-0.2485,-0.2624,-0.2681,-0.2736,-0.2789,-0.2789,-0.2758,-0.2696,-0.2579,-0.2493,-0.2435,-0.2372,-0.2342,-0.2265,-0.2365,-0.2473,-0.2538,-0.2408,-0.2308,-0.2363,-0.2172,-0.2165,-0.221,-0.2031,-0.2033,-0.2033,-0.2033,-0.2033,-0.2033,-0.2033,-0.2037,-0.204,-0.2347,-0.2655,-0.2903,0.0,0.0,0.0,0.0,0.0,0.0,0.0,0.0,0.0,0.0,0.0,0.0,0.0,0.0,0.0,-0.2888,0.0,-0.2822,-0.3652,0.0,0.0,0.0,-0.5217,-0.4264,-0.3668,-0.3552,-0.4058,0.0,0.0,-0.31,-0.3305,-0.3136,-0.1993,-0.2172,-0.2509,-0.2896,-0.2587,-0.2351,-0.2534,-0.2415,-0.2216,-0.2072,-0.1775,-0.1491,-0.1166,-0.1037,-0.1047,-0.1068,-0.1075,-0.1076,-0.1076,-0.1076,-0.1076,-0.1076,-0.1073,-0.0873,-0.0201,0.0469,0.1006,0.1004,0.1137,0.1403,-0.1613,-0.1583,-0.1659,-0.1606,-0.1541,-0.175,-0.1871,-0.1897,-0.2085,-0.2161,-0.2128,-0.1962,-0.1975,-0.215,-0.2304,-0.2487,-0.2782,-0.2713,-0.2752,-0.2809,-0.2824,-0.2839,-0.2853,-0.2853,-0.282,-0.2759,-0.2685,-0.2617,-0.2555,-0.2451,-0.2399,-0.2395,-0.2328,-0.2332,-0.2343,-0.2455,-0.2463,-0.2223,-0.2208,-0.2164,-0.2086,-0.2074,-0.2033,-0.2033,-0.2033,-0.2033,-0.2033,-0.2033,-0.2055,-0.2102,-0.2168,-0.2358,-0.2737,-0.3556,0.0,0.0,0.0,0.0,0.0,0.0,0.0,0.0,0.0,-0.3765,-0.1663,0.0,-0.4077,0.0,-0.3716,-0.3213,-0.3784,-0.4079,0.0,0.0,-0.4291,-0.4117,-0.4773,-0.4187,-0.399,-0.476,-0.3947,-0.3351,-0.3353,-0.2977,-0.2455,-0.1781,-0.1975,-0.2309,-0.2523,-0.2196,-0.1935,-0.1879,-0.1613,-0.1412,-0.1412,-0.1271,-0.1198,-0.1065,-0.1065,-0.1068,-0.1074,-0.1076,-0.1076,-0.1076,-0.1076,-0.1076,-0.1076,-0.1076,-0.1076,-0.0806,-0.0269,0.0269,0.0269,0.0672,0.1277,-0.1664,-0.1637,-0.1637,-0.16,-0.1543,-0.1656,-0.1872,-0.1989,-0.2285,-0.237,-0.2441,-0.2368,-0.2387,-0.2496,-0.2493,-0.2689,-0.2899,-0.281,-0.2829,-0.2951,-0.2951,-0.2952,-0.2951,-0.2925,-0.2882,-0.2823,-0.2762,-0.2702,-0.264,-0.2574,-0.254,-0.254,-0.2484,-0.2437,-0.2403,-0.2429,-0.2401,-0.225,-0.2322,-0.2264,-0.2149,-0.211,-0.2145,-0.2309,-0.2436,-0.25,-0.269,-0.2815,-0.29,-0.2946,-0.2948,-0.3079,-0.3272,-0.3926,-0.4481,0.0,0.0,0.0,0.0,0.0,0.0,0.0,0.0,0.0,0.0,0.0,-0.3753,-0.4219,-0.3244,-0.2929,-0.3638,-0.399,-0.4238,-0.4294,-0.4223,-0.4046,-0.3782,-0.3837,-0.3874,-0.3876,-0.3207,-0.2804,-0.2804,-0.2504,-0.2161,-0.171,-0.1917,-0.2112,-0.2155,-0.195,-0.1748,-0.1614,-0.1344,-0.1076,-0.1076,-0.1076,-0.1076,-0.1076,-0.1076,-0.1076,-0.1076,-0.1076,-0.1076,-0.1076,-0.1076,-0.1076,-0.1076,-0.1076,-0.1076,-0.1076,-0.0806,-0.0538,-0.047,-0.0202,0.0336,-0.1693,-0.1773,-0.1772,-0.1753,-0.1724,-0.1724,-0.1823,-0.1921,-0.2221,-0.2522,-0.2722,-0.2975,-0.3024,-0.3072,-0.2881,-0.2879,-0.3072,-0.2881,-0.2875,-0.306,-0.3157,-0.3151,-0.3143,-0.3088,-0.3036,-0.2895,-0.2827,-0.2767,-0.2717,-0.2699,-0.2694,-0.2689,-0.2631,-0.2601,-0.2594,-0.244,-0.2379,-0.242,-0.242,-0.2367,-0.2259,-0.2327,-0.2507,-0.2786,-0.2988,-0.3256,-0.3592,-0.3926,-0.4059,-0.3989,-0.4059,-0.4059,-0.3924,-0.4333,-0.4672,0.0,-0.5413,0.0,0.0,0.0,0.0,0.0,0.0,0.0,0.0,-0.4287,-0.342,-0.3144,-0.2743,-0.2757,-0.3342,-0.4074,-0.4172,-0.3432,-0.4421,-0.4534,-0.2902,-0.3491,-0.3711,-0.2914,-0.2714,-0.2605,-0.2602,-0.2412,-0.2198,-0.2034,-0.1972,-0.2029,-0.1986,-0.1766,-0.1624,-0.1616,-0.1344,-0.1143,-0.1143,-0.1143,-0.1076,-0.1076,-0.1076,-0.1076,-0.1076,-0.1076,-0.1076,-0.1076,-0.1076,-0.1076,-0.1076,-0.1076,-0.1076,-0.1076,-0.1076,-0.1008,-0.1008,-0.1008,-0.0873,-0.1939,-0.2121,-0.212,-0.2204,-0.2374,-0.2374,-0.2048,-0.1718,-0.1921,-0.2222,-0.2521,-0.2715,-0.2904,-0.2896,-0.2997,-0.3097,-0.3196,-0.3097,-0.3071,-0.3123,-0.3123,-0.3095,-0.3146,-0.3038,-0.3027,-0.3103,-0.2907,-0.285,-0.2838,-0.274,-0.2694,-0.2691,-0.2632,-0.2601,-0.2598,0.0,0.0,0.0,-0.2572,-0.261,-0.2534,-0.2894,-0.3175,-0.344,-0.3654,0.0,-0.4296,-0.4367,-0.4288,-0.3923,-0.4354,0.0,0.0,0.0,0.0,0.0,0.0,0.0,0.0,0.0,0.0,0.0,-0.4836,-0.4604,-0.5624,-0.557,-0.5355,-0.5047,-0.5065,-0.5139,-0.5256,-0.5416,-0.5441,-0.5253,-0.4597,-0.4462,-0.515,-0.5006,-0.4997,-0.5581,-0.5126,-0.4822,-0.4748,-0.3873,-0.3156,-0.3173,-0.2677,-0.2241,-0.2303,-0.1975,-0.1656,-0.1623,-0.1418,-0.1279,-0.1277,-0.1145,-0.1081,-0.1076,-0.1076,-0.1077,-0.1078,-0.1077,-0.1076,-0.1078,-0.1076,-0.1077,-0.1077,-0.1076,-0.1077,-0.1076,-0.1076,-0.1076,-0.1076,-0.1076,-0.0873,-0.1864,-0.2051,-0.205,-0.203,0.0,-0.2083,-0.1962,-0.1842,-0.223,-0.2524,-0.2826,-0.2927,-0.3029,-0.3029,-0.313,-0.323,-0.323,-0.323,-0.3214,-0.3185,-0.3184,-0.3168,-0.3138,-0.3109,-0.3094,-0.3091,-0.3003,-0.2961,-0.2958,-0.2899,-0.2853,-0.2823,-0.2764,-0.2721,-0.2691,-0.2629,-0.2555,-0.2465,-0.2542,-0.2587,-0.2526,-0.2747,-0.295,-0.3277,-0.3855,0.0,0.0,0.0,0.0,0.0,0.0,0.0,0.0,-0.529,0.0,-0.5072,-0.5294,-0.5545,-0.5682,-0.5319,-0.5273,-0.5486,-0.4955,-0.4757,-0.524,-0.5519,-0.5372,-0.4726,-0.4916,-0.5023,-0.5102,-0.5455,-0.5647,-0.542,-0.5256,-0.525,-0.5569,-0.5949,-0.6098,-0.5709,-0.5359,-0.517,-0.5243,-0.46,-0.4089,-0.4208,-0.3852,-0.3556,-0.3475,-0.2613,-0.1848,-0.1614,-0.1401,-0.1261,-0.1261,-0.1191,-0.112,-0.112,-0.1108,-0.1106,-0.1118,-0.1108,-0.1102,-0.1186,-0.1121,-0.1121,-0.1119,-0.1109,-0.1098,-0.1096,-0.1086,-0.1076,-0.1076,-0.1076,-0.1008,-0.1892,-0.1978,-0.1978,-0.1957,-0.203,-0.2003,-0.2088,-0.2382,0.0,0.0,0.0,-0.323,-0.323,-0.323,-0.323,-0.323,-0.323,-0.323,-0.323,-0.323,-0.323,-0.323,-0.3229,-0.3179,-0.3157,-0.3153,-0.3094,-0.3065,-0.316,-0.315,-0.3118,-0.2974,-0.2917,-0.2854,-0.2783,-0.2722,-0.2726,-0.2783,-0.2612,-0.2503,-0.2454,-0.2518,-0.2788,-0.3246,-0.3978,-0.4635,-0.5292,-0.6103,-0.6687,-0.6836,-0.6836,-0.676,-0.6538,-0.6462,-0.6317,-0.6172,-0.6197,-0.6046,-0.579,-0.5667,-0.5573,-0.5294,-0.5532,-0.5416,-0.4795,-0.5222,-0.5155,-0.4274,-0.4497,-0.4699,-0.4779,-0.5325,-0.5625,-0.5389,-0.6002,-0.6076,-0.5622,-0.6574,-0.6945,-0.569,-0.5518,-0.5382,-0.5451,-0.5217,-0.5032,-0.5127,-0.493,-0.493,-0.4686,-0.3405,-0.2326,-0.2103,-0.1736,-0.1381,-0.131,-0.1308,-0.1239,-0.1233,-0.1143,-0.114,-0.1155,-0.1146,-0.1141,-0.1157,-0.1166,-0.1164,-0.1164,-0.1145,-0.1127,-0.1121,-0.1102,-0.1082,-0.1077,-0.1076,-0.1076,-0.2129,-0.2573,-0.2573,-0.2878,-0.3265,-0.3257,-0.3201,-0.311,-0.2849,-0.2928,-0.323,-0.323,-0.323,-0.323,-0.323,-0.323,-0.323,-0.323,-0.323,-0.323,-0.323,-0.323,-0.3229,-0.3222,-0.3218,-0.3213,-0.3155,-0.3127,-0.3121,-0.3075,-0.3139,-0.3126,-0.3068,-0.2983,-0.2788,-0.2722,-0.3099,-0.3824,-0.3185,-0.2826,-0.2817,-0.3076,-0.3734,-0.4645,-0.4334,-0.5027,-0.6801,-0.6339,-0.6416,-0.7335,-0.7411,-0.6946,-0.6017,-0.6176,-0.5947,-0.5266,-0.5358,-0.5662,-0.6083,-0.5453,-0.5773,-0.7301,-0.7282,-0.6485,-0.5132,-0.573,-0.6196,-0.619,-0.6056,-0.6143,-0.6447,-0.6465,-0.6479,-0.663,-0.671,-0.6788,-0.6791,-0.7188,-0.7419,-0.7096,-0.7153,-0.7049,-0.6885,-0.6405,-0.6003,-0.5889,-0.5573,-0.5049,-0.501,-0.4117,-0.3429,-0.3201,-0.2549,-0.1968,-0.1759,-0.1532,-0.1391,-0.1239,-0.1165,-0.1236,-0.1172,-0.1166,-0.1164,-0.1167,-0.1172,-0.1172,-0.117,-0.1164,-0.1151,-0.1133,-0.1121,-0.1108,-0.1085,-0.1078,-0.1076,-0.2421,-0.2762,-0.2738,-0.2942,-0.3141,-0.3196,-0.3234,-0.316,-0.3132,-0.3189,-0.3236,-0.3264,-0.3262,-0.3234,-0.3266,-0.3262,-0.323,-0.323,-0.323,-0.323,-0.323,-0.323,-0.323,-0.323,-0.323,-0.3228,-0.3203,-0.3189,-0.3187,-0.3159,-0.3131,-0.3097,-0.3602,-0.3812,-0.3835,-0.4289,-0.4685,-0.5117,-0.4012,-0.3649,-0.4212,-0.4277,-0.4535,-0.5004,-0.5221,-0.5814,-0.6767,-0.6925,-0.7289,-0.7772,-0.7772,-0.7525,-0.7038,-0.7122,-0.7046,-0.6649,-0.6704,-0.6909,-0.7156,-0.6801,-0.7015,-0.8218,-0.8032,-0.7461,-0.6344,-0.6896,-0.7096,-0.6935,-0.7006,-0.7047,-0.7034,-0.7022,-0.7099,-0.7173,-0.7249,-0.7253,-0.733,-0.7415,-0.7488,-0.7484,-0.748,-0.748,-0.748,-0.7169,-0.6938,-0.6861,-0.6549,-0.6321,-0.6318,-0.5597,-0.4758,-0.4237,-0.3255,-0.2578,-0.2425,-0.1898,-0.1595,-0.1443,-0.1427,-0.135,-0.1284,-0.1205,-0.1199,-0.1212,-0.1291,-0.1292,-0.1291,-0.1201,-0.1186,-0.1175,-0.1155,-0.1136,-0.1109,-0.1089,-0.1076,-0.2469,-0.2807,-0.2773,-0.2866,-0.2963,-0.3102,-0.3148,-0.3109,-0.3312,-0.336,-0.3283,-0.3308,-0.3301,-0.3278,-0.3307,-0.3303,-0.3273,-0.3256,-0.3251,-0.3249,-0.3237,-0.323,-0.323,-0.323,-0.323,-0.323,-0.323,-0.333,-0.3531,-0.3331,-0.3307,-0.3551,-0.4542,-0.4973,-0.4973,-0.5686,-0.6073,-0.623,-0.5132,-0.4767,-0.5333,-0.5223,-0.5159,-0.5404,-0.5974,-0.6438,-0.6852,-0.7449,-0.7847,-0.8012,-0.8012,-0.8012,-0.8012,-0.8012,-0.8012,-0.8016,-0.8052,-0.8093,-0.8134,-0.805,-0.8142,-0.8589,-0.8413,-0.8074,-0.7731,-0.7979,-0.7879,-0.7369,-0.7492,-0.7525,-0.7336,-0.7379,-0.7524,-0.752,-0.7524,-0.7622,-0.7606,-0.7606,-0.7602,-0.7606,-0.7602,-0.7598,-0.7557,-0.7545,-0.7533,-0.7496,-0.748,-0.748,-0.7403,-0.6861,-0.6163,-0.5384,-0.4142,-0.3433,-0.3365,-0.2817,-0.227,-0.1962,-0.1778,-0.1618,-0.1399,-0.1234,-0.123,-0.1248,-0.1333,-0.133,-0.1254,-0.1239,-0.1219,-0.1208,-0.1189,-0.1167,-0.1138,-0.1108,-0.1084,-0.2105,-0.2308,-0.2652,-0.3077,-0.3482,-0.3526,-0.3495,-0.3482,-0.3436,-0.3407,-0.3392,-0.3345,-0.3352,-0.3384,-0.3345,-0.3347,-0.3382,-0.3338,-0.3309,-0.3301,-0.3255,-0.323,-0.323,-0.323,-0.323,-0.323,-0.3331,-0.3833,-0.4533,-0.3731,-0.3728,-0.4614,-0.5611,-0.6139,-0.6117,-0.6103,-0.6444,-0.7259,-0.686,-0.6272,-0.5584,-0.5471,-0.582,-0.6644,-0.5995,-0.6334,-0.7745,-0.7259,-0.727,-0.793,-0.8024,-0.8016,-0.802,-0.8016,-0.8016,-0.8028,-0.817,-0.8333,-0.8491,-0.8515,-0.8503,-0.8607,-0.8591,-0.8499,-0.8412,-0.8507,-0.8275,-0.7757,-0.7514,-0.7573,-0.7718,-0.7702,-0.7686,-0.7829,-0.776,-0.7796,-0.7939,-0.8053,-0.8131,-0.7963,-0.7923,-0.7906,-0.776,-0.7811,-0.7671,-0.7557,-0.7525,-0.7516,-0.7512,-0.7411,-0.7249,-0.6861,-0.5854,-0.4846,-0.4611,-0.438,-0.3602,-0.2896,-0.2582,-0.2189,-0.1722,-0.1411,-0.1333,-0.1331,-0.1336,-0.1336,-0.1336,-0.1331,-0.1242,-0.1223,-0.1209,-0.1196,-0.1168,-0.1136,-0.1109,-0.2775,-0.2997,-0.3327,-0.3498,-0.3639,-0.3576,-0.355,-0.3548,-0.3526,-0.3516,-0.3507,-0.3452,-0.342,-0.3413,-0.3421,-0.3403,-0.3358,-0.3332,-0.3301,-0.3268,-0.3241,-0.323,-0.323,-0.3831,-0.4133,-0.4232,-0.473,-0.5327,-0.5629,-0.5329,-0.5329,-0.5824,-0.6773,-0.7343,-0.7328,-0.7822,-0.8186,-0.8554,-0.8234,-0.7801,-0.7492,-0.7193,-0.7184,-0.7443,-0.7275,-0.7414,-0.8102,-0.7936,-0.7994,-0.8341,-0.8337,-0.8341,-0.8341,-0.8341,-0.8341,-0.8345,-0.841,-0.8487,-0.8564,-0.8572,-0.8572,-0.8572,-0.8572,-0.8572,-0.8572,-0.8572,-0.8495,-0.8283,-0.8074,-0.7975,-0.7954,-0.7847,-0.7934,-0.8189,-0.8098,-0.8016,-0.8012,-0.8102,-0.818,-0.8012,-0.8012,-0.7996,-0.7931,-0.791,-0.7878,-0.7789,-0.772,-0.765,-0.7642,-0.7557,-0.7484,-0.7403,-0.6861,-0.6318,-0.5696,-0.4999,-0.4455,-0.4064,-0.383,-0.3443,-0.2507,-0.2194,-0.2038,-0.1413,-0.1335,-0.1336,-0.1336,-0.1335,-0.1329,-0.1236,-0.1219,-0.1207,-0.127,-0.1155,-0.1121,-0.3077,-0.3305,-0.3619,-0.3774,-0.3676,-0.3631,-0.3602,-0.3587,-0.3587,-0.3587,-0.3583,-0.354,-0.35,-0.3467,-0.3488,-0.3563,-0.382,-0.3903,-0.3958,-0.4096,-0.4175,-0.4152,-0.4133,-0.4832,-0.5231,-0.5331,-0.6024,-0.642,-0.652,-0.712,-0.7123,-0.7021,-0.7922,-0.8425,-0.8506,-0.915,-0.9356,-0.9324,-0.9047,-0.8893,-0.8844,-0.8511,-0.8264,-0.8191,-0.8292,-0.8369,-0.8373,-0.8499,-0.8593,-0.8633,-0.8633,-0.8662,-0.871,-0.871,-0.871,-0.8706,-0.8662,-0.8662,-0.8702,-0.8662,-0.8633,-0.8633,-0.8601,-0.8572,-0.8572,-0.8572,-0.8572,-0.8548,-0.8442,-0.8304,-0.8199,-0.8162,-0.8338,-0.8518,-0.843,-0.825,-0.8174,-0.8254,-0.8266,-0.8166,-0.8199,-0.8142,-0.8097,-0.8044,-0.7992,-0.7975,-0.7898,-0.7829,-0.7817,-0.7724,-0.7642,-0.763,-0.7634,-0.7352,-0.6655,-0.6012,-0.5386,-0.4996,-0.4921,-0.4453,-0.3441,-0.3129,-0.274,-0.2038,-0.1649,-0.1336,-0.1336,-0.1335,-0.1335,-0.1253,-0.124,-0.1224,-0.1301,-0.1179,-0.1155,-0.2937,-0.3014,-0.3205,-0.3505,-0.3679,-0.367,-0.3639,-0.3587,-0.3587,-0.3587,-0.3587,-0.3694,-0.358,-0.3681,-0.3742,-0.4182,-0.5103,-0.5245,-0.5692,-0.633,-0.6442,-0.6436,-0.6229,-0.6323,-0.6326,-0.6339,-0.6625,-0.6623,-0.6623,-0.8421,-0.8924,-0.8021,-0.8924,-0.9525,-0.9406,-0.936,-0.936,-0.9352,-0.9181,-0.9088,-0.908,-0.9043,-0.8844,-0.8576,-0.8556,-0.8568,-0.8568,-0.8568,-0.8645,-0.8804,-0.8808,-0.8885,-0.9039,-0.9056,-0.9047,-0.9039,-0.8901,-0.8794,-0.8814,-0.871,-0.8717,-0.8796,-0.8779,-0.8584,-0.8621,-0.8621,-0.8621,-0.858,-0.8597,-0.856,-0.8544,-0.8495,-0.8499,-0.8595,-0.8611,-0.8519,-0.8524,-0.8487,-0.854,-0.8519,-0.8495,-0.8426,-0.8292,-0.8122,-0.8069,-0.8052,-0.802,-0.8004,-0.7996,-0.7983,-0.7951,-0.7943,-0.7927,-0.787,-0.7496,-0.6983,-0.6581,-0.6163,-0.5774,-0.5309,-0.4453,-0.3752,-0.3209,-0.2663,-0.204,-0.1649,-0.1415,-0.1336,-0.1336,-0.1335,-0.1334,-0.1327,-0.1322,-0.1226,-0.1202,-0.3444,-0.3542,-0.3572,-0.3638,-0.3729,-0.3654,-0.3606,-0.3589,-0.3587,-0.3587,-0.3699,-0.4369,-0.4702,-0.4812,-0.5441,-0.5632,-0.5501,-0.6115,-0.6687,-0.6901,-0.6953,-0.6804,-0.6864,-0.7298,-0.7658,-0.7648,-0.8172,-0.8421,-0.8524,-0.9225,-0.943,-0.9126,-0.9426,-0.9624,-0.9616,-0.9563,-0.9531,-0.951,-0.9352,-0.9263,-0.925,-0.9153,-0.9027,-0.8922,-0.8909,-0.8905,-0.8905,-0.8909,-0.8934,-0.8995,-0.8995,-0.9027,-0.9084,-0.9096,-0.9096,-0.9088,-0.9035,-0.9027,-0.9076,-0.9035,-0.8999,-0.8995,-0.9042,-0.8988,-0.8909,-0.8905,-0.8905,-0.8901,-0.8901,-0.881,-0.8667,-0.8613,-0.8572,-0.8572,-0.8572,-0.8584,-0.8572,-0.8572,-0.8572,-0.8572,-0.8572,-0.8536,-0.8475,-0.8406,-0.8369,-0.8357,-0.8268,-0.8203,-0.817,-0.8097,-0.8032,-0.8016,-0.8008,-0.7971,-0.7874,-0.7724,-0.7403,-0.7064,-0.6707,-0.6093,-0.5392,-0.4841,-0.4375,-0.3056,-0.2354,-0.1884,-0.1649,-0.1336,-0.1336,-0.1336,-0.1336,-0.1336,-0.1336,-0.1236,-0.1221,-0.3703,-0.3937,-0.3861,-0.3816,-0.3786,-0.3689,-0.3635,-0.3616,-0.3595,-0.3587,-0.381,-0.4925,-0.5369,-0.5704,-0.7033,-0.7323,-0.6593,-0.7345,-0.7822,-0.8027,-0.8127,-0.8101,-0.8148,-0.8684,-0.8918,-0.8845,-0.931,-0.9648,-0.9697,-0.9652,-0.9628,-0.9628,-0.9624,-0.9624,-0.9624,-0.9624,-0.9624,-0.96,-0.9502,-0.9441,-0.9429,-0.9332,-0.9271,-0.9267,-0.9267,-0.921,-0.9104,-0.9096,-0.9129,-0.9173,-0.9181,-0.9206,-0.9259,-0.921,-0.921,-0.9254,-0.921,-0.921,-0.925,-0.9317,-0.9276,-0.9173,-0.9218,-0.9194,-0.9096,-0.9096,-0.9096,-0.9096,-0.9096,-0.8999,-0.8862,-0.8782,-0.8739,-0.8739,-0.8739,-0.8739,-0.8739,-0.869,-0.8629,-0.858,-0.8572,-0.8568,-0.8572,-0.8568,-0.8556,-0.8572,-0.845,-0.8385,-0.8357,-0.8284,-0.8195,-0.8195,-0.8219,-0.8187,-0.8105,-0.8004,-0.7894,-0.7617,-0.7297,-0.6798,-0.621,-0.5802,-0.5002,-0.3602,-0.2666,-0.2198,-0.1806,-0.1415,-0.1336,-0.1336,-0.1336,-0.1336,-0.133,-0.1243,-0.1234,-0.395,-0.3948,-0.3948,-0.3901,-0.3846,-0.3779,-0.3729,-0.3674,-0.3617,-0.3598,-0.3712,-0.4817,-0.5375,-0.5824,-0.7724,-0.8816,-0.8589,-0.8813,-0.9395,-1.0015,-1.0111,-1.0134,-0.9999,-0.9971,-0.9963,-0.9815,-0.973,-0.9734,-0.9847,-0.9726,-0.9652,-0.9632,-0.9624,-0.9624,-0.9624,-0.9624,-0.9624,-0.962,-0.9608,-0.9612,-0.9624,-0.9587,-0.9575,-0.9592,-0.9587,-0.9441,-0.9141,-0.9129,-0.921,-0.934,-0.9356,-0.9445,-0.9539,-0.9445,-0.9429,-0.9531,-0.9449,-0.9453,-0.9559,-0.9445,-0.9456,-0.934,-0.9214,-0.9157,-0.9169,-0.9157,-0.9153,-0.9161,-0.9153,-0.9133,-0.9243,-0.921,-0.908,-0.9088,-0.9035,-0.9031,-0.9023,-0.8926,-0.8763,-0.8645,-0.8625,-0.8584,-0.8584,-0.8601,-0.8609,-0.8601,-0.856,-0.8532,-0.8524,-0.8495,-0.854,-0.8536,-0.8475,-0.8394,-0.8341,-0.828,-0.817,-0.797,-0.7785,-0.7346,-0.6713,-0.6202,-0.5349,-0.4086,-0.2744,-0.2198,-0.1649,-0.1336,-0.1336,-0.1336,-0.1336,-0.1336,-0.1331,-0.1249,-0.1251,-0.395,-0.3944,-0.3906,-0.3879,-0.3853,-0.3796,-0.3758,-0.3736,-0.3676,-0.3651,-0.3869,-0.4951,-0.5404,-0.6019,-0.7945,-0.9072,-0.9076,-0.9861,-1.0449,-1.0635,-1.0611,-1.0574,-1.0509,-1.04,-1.0249,-1.0095,-1.0022,-0.9949,-0.9892,-0.9835,-0.9754,-0.9648,-0.9632,-0.9624,-0.9632,-0.9624,-0.9624,-0.9624,-0.9624,-0.9624,-0.9624,-0.9624,-0.9624,-0.9624,-0.9624,-0.9563,-0.947,-0.9462,-0.949,-0.9539,-0.9543,-0.9571,-0.9604,-0.9575,-0.9567,-0.9608,-0.9579,-0.9559,-0.9608,-0.9575,-0.9535,-0.9531,-0.9482,-0.9466,-0.9462,-0.9449,-0.9445,-0.9449,-0.9462,-0.9466,-0.9462,-0.9462,-0.936,-0.9222,-0.9189,-0.9112,-0.9108,-0.9051,-0.8999,-0.895,-0.893,-0.893,-0.8901,-0.884,-0.8739,-0.8718,-0.8645,-0.858,-0.8572,-0.8572,-0.8568,-0.8568,-0.856,-0.8556,-0.8479,-0.8426,-0.8373,-0.8251,-0.7998,-0.7601,-0.7024,-0.6454,-0.5583,-0.4504,-0.3151,-0.228,-0.1731,-0.1415,-0.1336,-0.1336,-0.1336,-0.1336,-0.1336,-0.1336,-0.1336,-0.395,-0.3946,-0.3909,-0.3894,-0.3887,-0.3828,-0.3804,-0.3793,-0.3737,-0.3711,-0.4048,-0.5496,-0.6184,-0.6809,-0.8876,-0.9795,-0.9909,-1.0662,-1.0907,-1.0789,-1.0712,-1.0692,-1.0668,-1.0517,-1.0424,-1.0343,-1.0225,-1.014,-1.0091,-1.0018,-0.9933,-0.9839,-0.9762,-0.973,-0.9713,-0.9657,-0.9624,-0.9624,-0.9624,-0.9624,-0.9624,-0.9624,-0.9624,-0.9624,-0.9624,-0.9624,-0.9624,-0.9624,-0.9624,-0.9624,-0.9624,-0.9624,-0.9624,-0.9624,-0.9624,-0.9624,-0.9624,-0.9624,-0.9624,-0.962,-0.9624,-0.9624,-0.9624,-0.9624,-0.9624,-0.9624,-0.9624,-0.9624,-0.9616,-0.9624,-0.962,-0.9624,-0.9518,-0.9431,-0.9403,-0.9263,-0.9222,-0.9194,-0.9149,-0.9108,-0.908,-0.9096,-0.906,-0.9015,-0.8885,-0.8828,-0.8731,-0.8617,-0.8597,-0.8572,-0.8572,-0.8576,-0.8568,-0.8568,-0.8568,-0.856,-0.856,-0.8434,-0.8203,-0.7727,-0.7206,-0.661,-0.5875,-0.4435,-0.3127,-0.2466,-0.1828,-0.1577,-0.1415,-0.1415,-0.1336,-0.1336,-0.1336,-0.1336,-0.1336,-0.395,-0.395,-0.395,-0.3946,-0.3939,-0.3888,-0.3865,-0.3856,-0.3801,-0.3892,-0.4477,-0.6087,-0.7261,-0.7974,-0.9722,-1.0771,-1.1097,-1.0992,-1.1005,-1.0932,-1.083,-1.0757,-1.0676,-1.0546,-1.0538,-1.0586,-1.0363,-1.029,-1.0359,-1.0241,-1.0168,-1.0107,-0.9969,-0.9888,-0.9843,-0.9721,-0.9652,-0.9628,-0.9624,-0.9624,-0.9624,-0.9624,-0.9624,-0.9624,-0.9624,-0.9624,-0.9624,-0.9624,-0.9624,-0.9624,-0.9624,-0.9624,-0.9624,-0.9624,-0.9624,-0.9624,-0.9624,-0.9624,-0.9624,-0.9624,-0.9624,-0.9624,-0.9624,-0.9624,-0.9624,-0.9624,-0.9624,-0.9624,-0.9624,-0.9624,-0.9624,-0.9624,-0.9608,-0.962,-0.9563,-0.9502,-0.9393,-0.9372,-0.9324,-0.9202,-0.9133,-0.9137,-0.9173,-0.9141,-0.9039,-0.8938,-0.8869,-0.8779,-0.8698,-0.867,-0.8605,-0.8597,-0.8613,-0.8572,-0.8572,-0.8572,-0.8572,-0.8528,-0.841,-0.7975,-0.7333,-0.6722,-0.5818,-0.4437,-0.3179,-0.2505,-0.2084,-0.1752,-0.1579,-0.1415,-0.1415,-0.1336,-0.1336,-0.1336,-0.1337,-0.395,-0.395,-0.395,-0.395,-0.395,-0.3932,-0.3925,-0.3918,-0.3861,-0.443,-0.5251,-0.5898,-0.6972,-0.7864,-0.9402,-0.9994,-1.0336,-1.1008,-1.1196,-1.1013,-1.1066,-1.0915,-1.0737,-1.0651,-1.0643,-1.0668,-1.0578,-1.0513,-1.044,-1.0391,-1.0298,-1.0164,-1.0128,-1.0018,-0.9896,-0.9847,-0.9746,-0.9644,-0.9628,-0.9632,-0.9624,-0.9624,-0.9624,-0.9624,-0.9624,-0.9624,-0.9624,-0.9624,-0.9624,-0.9624,-0.9624,-0.9624,-0.9624,-0.9624,-0.9624,-0.9624,-0.9624,-0.9624,-0.9624,-0.9624,-0.9624,-0.9624,-0.9624,-0.9624,-0.9624,-0.9624,-0.9624,-0.9624,-0.9624,-0.9624,-0.9624,-0.9624,-0.9624,-0.9624,-0.9624,-0.9604,-0.9563,-0.9555,-0.9535,-0.9494,-0.947,-0.9458,-0.9433,-0.936,-0.9263,-0.919,-0.9092,-0.8995,-0.8893,-0.8812,-0.8759,-0.8706,-0.8686,-0.8613,-0.8572,-0.8572,-0.8568,-0.8564,-0.8507,-0.8364,-0.7517,-0.6609,-0.5544,-0.4168,-0.3071,-0.2307,-0.212,-0.194,-0.176,-0.1509,-0.1347,-0.1351,-0.1341,-0.1337,-0.1338,-0.395,-0.395,-0.395,-0.395,-0.395,-0.395,-0.395,-0.4066,-0.4521,-0.5104,-0.5935,-0.7085,-0.7926,-0.8708,-1.0039,-1.0524,-1.0632,-1.1095,-1.1309,-1.124,-1.1208,-1.1057,-1.0846,-1.0745,-1.0692,-1.0692,-1.0692,-1.0631,-1.0562,-1.0546,-1.0481,-1.04,-1.031,-1.0221,-1.0136,-1.0026,-0.9912,-0.977,-0.9734,-0.9709,-0.9632,-0.9624,-0.9624,-0.9624,-0.9624,-0.9624,-0.9624,-0.9624,-0.9624,-0.9624,-0.9624,-0.9624,-0.9624,-0.9624,-0.9624,-0.9624,-0.9624,-0.9624,-0.9624,-0.9624,-0.9624,-0.9624,-0.9624,-0.9624,-0.9624,-0.9624,-0.9624,-0.9624,-0.9624,-0.9624,-0.9624,-0.9624,-0.9624,-0.9624,-0.9624,-0.9624,-0.9624,-0.962,-0.9624,-0.9624,-0.9624,-0.9624,-0.9624,-0.9527,-0.9445,-0.9356,-0.9259,-0.9165,-0.9076,-0.8999,-0.8934,-0.8893,-0.8861,-0.882,-0.88,-0.88,-0.8783,-0.8755,-0.8674,-0.8609,-0.7755,-0.6734,-0.5411,-0.4272,-0.3049,-0.2185,-0.2086,-0.1904,-0.1645,-0.1471,-0.1377,-0.1288,-0.1281,-0.1348,-0.1348,-0.395,-0.395,-0.395,-0.395,-0.395,-0.395,-0.4073,-0.4316,-0.5291,-0.602,-0.6869,-0.8824,-0.965,-1.0051,-1.1125,-1.1764,-1.1744,-1.137,-1.1443,-1.1399,-1.1309,-1.1086,-1.0997,-1.0826,-1.0737,-1.07,-1.0692,-1.0684,-1.0664,-1.0672,-1.0684,-1.0615,-1.0513,-1.0448,-1.0355,-1.0253,-1.0083,-0.99,-0.9855,-0.9774,-0.9657,-0.9624,-0.9624,-0.9624,-0.9624,-0.9624,-0.9624,-0.9624,-0.9624,-0.9624,-0.9624,-0.9624,-0.9624,-0.9624,-0.9624,-0.9624,-0.9624,-0.9624,-0.9624,-0.9624,-0.9624,-0.9624,-0.9624,-0.9624,-0.9624,-0.9624,-0.9624,-0.9624,-0.9624,-0.9624,-0.9624,-0.9624,-0.9624,-0.9624,-0.9624,-0.9624,-0.9624,-0.9624,-0.9624,-0.9624,-0.9624,-0.9624,-0.9624,-0.9616,-0.9571,-0.9478,-0.9401,-0.936,-0.9271,-0.9185,-0.9141,-0.9112,-0.9088,-0.9064,-0.906,-0.9056,-0.9035,-0.9003,-0.8897,-0.8623,-0.796,-0.6858,-0.5571,-0.4391,-0.3561,-0.2762,-0.2062,-0.1877,-0.1606,-0.1505,-0.1406,-0.1318,-0.1314,-0.1296,-0.1288,-0.395,-0.395,-0.395,-0.395,-0.395,-0.395,-0.4439,-0.5419,-0.5786,-0.7004,-0.8708,-0.9562,-1.0422,-1.1285,-1.1651,-1.1776,-1.1776,-1.1667,-1.1691,-1.1638,-1.1216,-1.1118,-1.1106,-1.0997,-1.0834,-1.0733,-1.0692,-1.0692,-1.0692,-1.0692,-1.0692,-1.068,-1.0639,-1.0566,-1.0448,-1.0404,-1.0209,-0.9949,-0.99,-0.9823,-0.9681,-0.9644,-0.964,-0.9628,-0.9624,-0.9624,-0.9624,-0.9624,-0.9624,-0.9624,-0.9624,-0.9624,-0.9624,-0.9624,-0.9624,-0.9624,-0.9624,-0.9624,-0.9624,-0.9624,-0.9624,-0.9624,-0.9624,-0.9624,-0.9624,-0.9624,-0.9624,-0.9624,-0.9624,-0.9624,-0.9624,-0.9624,-0.9624,-0.9624,-0.9624,-0.9624,-0.9624,-0.9624,-0.9624,-0.9624,-0.9624,-0.9624,-0.9624,-0.9624,-0.9596,-0.9567,-0.9551,-0.9543,-0.9466,-0.9364,-0.9332,-0.9303,-0.9259,-0.923,-0.9226,-0.9222,-0.9202,-0.9173,-0.9088,-0.8986,-0.8219,-0.7382,-0.6138,-0.5196,-0.4358,-0.3447,-0.2195,-0.1915,-0.1723,-0.1534,-0.1437,-0.1348,-0.1341,-0.1323,-0.1308,-0.395,-0.395,-0.395,-0.395,-0.395,-0.395,-0.4685,-0.5906,-0.6639,-0.7978,-0.9684,-1.0418,-1.1156,-1.1772,-1.1776,-1.1776,-1.1776,-1.1772,-1.1723,-1.163,-1.1407,-1.1366,-1.1317,-1.1228,-1.1057,-1.0757,-1.0692,-1.0692,-1.0692,-1.0692,-1.0692,-1.0692,-1.0692,-1.0643,-1.057,-1.055,-1.0416,-1.0217,-1.0136,-1.0022,-0.9795,-0.975,-0.9689,-0.9644,-0.9624,-0.9624,-0.9624,-0.9624,-0.9624,-0.9624,-0.9624,-0.9624,-0.9624,-0.9624,-0.9624,-0.9624,-0.9624,-0.9624,-0.9624,-0.9624,-0.9624,-0.9624,-0.9624,-0.9624,-0.9624,-0.9624,-0.9624,-0.9624,-0.9624,-0.9624,-0.9624,-0.9624,-0.9624,-0.9624,-0.9624,-0.9624,-0.9624,-0.9624,-0.9624,-0.9624,-0.9624,-0.9624,-0.9624,-0.9624,-0.9624,-0.9596,-0.9596,-0.9587,-0.9587,-0.9506,-0.9502,-0.947,-0.9417,-0.9384,-0.9384,-0.9372,-0.9348,-0.9307,-0.9242,-0.9141,-0.8745,-0.7894,-0.6885,-0.5743,-0.4527,-0.3144,-0.2051,-0.1946,-0.176,-0.1578,-0.1394,-0.1383,-0.1371,-0.1358,-0.1343,-0.395,-0.395,-0.395,-0.395,-0.395,-0.4195,-0.5051,-0.6394,-0.7614,-0.8955,-1.0051,-1.1402,-1.1651,-1.1776,-1.1776,-1.1776,-1.1776,-1.1768,-1.1711,-1.161,-1.1618,-1.1553,-1.1472,-1.1338,-1.1135,-1.0761,-1.0753,-1.0745,-1.0704,-1.0692,-1.0692,-1.0692,-1.0692,-1.0676,-1.0684,-1.068,-1.0574,-1.04,-1.0367,-1.0241,-0.9965,-0.9892,-0.9786,-0.9657,-0.9624,-0.9624,-0.9624,-0.9624,-0.9624,-0.9624,-0.9624,-0.9624,-0.9624,-0.9624,-0.9624,-0.9624,-0.9624,-0.9624,-0.9624,-0.9624,-0.9624,-0.9624,-0.9624,-0.9624,-0.9624,-0.9624,-0.9624,-0.9624,-0.9624,-0.9624,-0.9624,-0.9624,-0.9624,-0.9624,-0.9624,-0.9624,-0.9624,-0.9624,-0.9624,-0.9624,-0.9624,-0.9624,-0.9624,-0.9624,-0.9624,-0.9624,-0.9624,-0.9624,-0.9624,-0.962,-0.9596,-0.9587,-0.9522,-0.9498,-0.9498,-0.949,-0.947,-0.9441,-0.9384,-0.9319,-0.9041,-0.7678,-0.6558,-0.567,-0.442,-0.3105,-0.2172,-0.1972,-0.1788,-0.1527,-0.1429,-0.1411,-0.1401,-0.1393,-0.1376,-0.395,-0.395,-0.395,-0.395,-0.4073,-0.5053,-0.6272,-0.7614,-0.883,-1.0176,-1.1402,-1.1655,-1.1776,-1.1768,-1.1776,-1.1776,-1.1776,-1.1768,-1.1752,-1.1683,-1.1654,-1.1549,-1.1508,-1.133,-1.1082,-1.0964,-1.0915,-1.085,-1.0716,-1.0692,-1.0692,-1.0692,-1.0692,-1.0692,-1.0692,-1.0684,-1.0615,-1.0493,-1.0461,-1.0331,-1.0148,-0.9953,-0.9819,-0.9665,-0.964,-0.9624,-0.9624,-0.9624,-0.9624,-0.9624,-0.9624,-0.9624,-0.9624,-0.9624,-0.9624,-0.9624,-0.9624,-0.9624,-0.9624,-0.9624,-0.9624,-0.9624,-0.9624,-0.9624,-0.9624,-0.9624,-0.9624,-0.9624,-0.9624,-0.9624,-0.9624,-0.9624,-0.9624,-0.9624,-0.9624,-0.9624,-0.9624,-0.9624,-0.9624,-0.9624,-0.9624,-0.9624,-0.9624,-0.9624,-0.9624,-0.9624,-0.9624,-0.9624,-0.9624,-0.9624,-0.962,-0.9616,-0.9612,-0.9604,-0.9604,-0.9592,-0.9579,-0.9567,-0.9531,-0.9531,-0.8897,-0.7257,-0.6108,-0.557,-0.4606,-0.3342,-0.2573,-0.2093,-0.181,-0.163,-0.1532,-0.1435,-0.1422,-0.1409,-0.1399,-0.395,-0.395,-0.395,-0.4318,-0.493,-0.5663,-0.7004,-0.8833,-0.9559,-1.0539,-1.1526,-1.1772,-1.1719,-1.1679,-1.1748,-1.1776,-1.1768,-1.1776,-1.1776,-1.1744,-1.1687,-1.1642,-1.1634,-1.1435,-1.1338,-1.1244,-1.1147,-1.0952,-1.0712,-1.0692,-1.0696,-1.0692,-1.0692,-1.0692,-1.0692,-1.0688,-1.0643,-1.057,-1.0554,-1.0477,-1.029,-1.0042,-0.9843,-0.977,-0.9673,-0.9628,-0.9624,-0.9624,-0.9624,-0.9624,-0.9624,-0.9628,-0.9636,-0.9636,-0.9632,-0.964,-0.9636,-0.9628,-0.9628,-0.9624,-0.9624,-0.9624,-0.9628,-0.9624,-0.9624,-0.9624,-0.9644,-0.9632,-0.9628,-0.9624,-0.9624,-0.9624,-0.9624,-0.9624,-0.9624,-0.9624,-0.9624,-0.9624,-0.9624,-0.9624,-0.9624,-0.9624,-0.9624,-0.9624,-0.9624,-0.9624,-0.9624,-0.9624,-0.9624,-0.9624,-0.9624,-0.9624,-0.9624,-0.9624,-0.9624,-0.9624,-0.9624,-0.9624,-0.9624,-0.9624,-0.8924,-0.7419,-0.6495,-0.5914,-0.4737,-0.3134,-0.2539,-0.1962,-0.1848,-0.1736,-0.1551,-0.1454,-0.1438,-0.1425,-0.1414,-0.4073,-0.4318,-0.4318,-0.5051,-0.6274,-0.6639,-0.7856,-0.9562,-1.0172,-1.0789,-1.1651,-1.1768,-1.1699,-1.1618,-1.1646,-1.1699,-1.1683,-1.1679,-1.1707,-1.1715,-1.1748,-1.1768,-1.1768,-1.1719,-1.1593,-1.1423,-1.1273,-1.1078,-1.0871,-1.0737,-1.0716,-1.0741,-1.0733,-1.0692,-1.0692,-1.0692,-1.0692,-1.0692,-1.0688,-1.0603,-1.0396,-1.016,-0.9945,-0.9888,-0.975,-0.9673,-0.9632,-0.9685,-0.9697,-0.9713,-0.9734,-0.9754,-0.9738,-0.9738,-0.9738,-0.973,-0.9701,-0.9669,-0.9636,-0.9685,-0.9705,-0.9606,-0.959,-0.9701,-0.9754,-0.9791,-0.975,-0.9693,-0.9689,-0.9661,-0.964,-0.9624,-0.9624,-0.9624,-0.9624,-0.9624,-0.9624,-0.9624,-0.9624,-0.9624,-0.9628,-0.9628,-0.9628,-0.9624,-0.9624,-0.9624,-0.9624,-0.9624,-0.9624,-0.9624,-0.9624,-0.9624,-0.9624,-0.9624,-0.9624,-0.9624,-0.9624,-0.9624,-0.9624,-0.9624,-0.8726,-0.7524,-0.6796,-0.5882,-0.3876,-0.2446,-0.2034,-0.1907,-0.1781,-0.1762,-0.1574,-0.1468,-0.1444,-0.1433,-0.1427,-0.4562,-0.5663,-0.5663,-0.6394,-0.7734,-0.8708,-0.9438,-0.9926,-1.1035,-1.1651,-1.1776,-1.1772,-1.1756,-1.1691,-1.1557,-1.1447,-1.1395,-1.1488,-1.1565,-1.1589,-1.1707,-1.1776,-1.1752,-1.1598,-1.1573,-1.1472,-1.1309,-1.122,-1.1057,-1.0834,-1.0794,-1.0863,-1.0777,-1.07,-1.0733,-1.0737,-1.0692,-1.0692,-1.0692,-1.0611,-1.0465,-1.0367,-1.0164,-0.9973,-0.9839,-0.977,-0.9685,-0.9758,-0.9831,-0.9872,-1.001,-1.0083,-1.0099,-1.0099,-1.0099,-1.005,-0.9949,-0.9795,-0.9721,-0.9762,-0.9843,-0.9738,-0.975,-0.9941,-0.9989,-1.0133,-1.0088,-0.986,-0.9855,-0.9811,-0.9721,-0.9661,-0.964,-0.9665,-0.9606,-0.959,-0.9673,-0.977,-0.9754,-0.9681,-0.9697,-0.9657,-0.9632,-0.9628,-0.9624,-0.9624,-0.9624,-0.9624,-0.9624,-0.9624,-0.9624,-0.9624,-0.9624,-0.9624,-0.9624,-0.9624,-0.9624,-0.9624,-0.9624,-0.9525,-0.8825,-0.7826,-0.6628,-0.5411,-0.3406,-0.2197,-0.2069,-0.2032,-0.1898,-0.1692,-0.1594,-0.1474,-0.1442,-0.1438,-0.1442,-0.5419,-0.6029,-0.6761,-0.7734,-0.8952,-0.9559,-1.0293,-1.091,-1.153,-1.1776,-1.1776,-1.1776,-1.1723,-1.1602,-1.1423,-1.1305,-1.1273,-1.1415,-1.1496,-1.1537,-1.1671,-1.1772,-1.176,-1.1691,-1.1626,-1.1476,-1.133,-1.1228,-1.1135,-1.1013,-1.0907,-1.094,-1.0891,-1.0854,-1.0826,-1.0842,-1.0781,-1.0729,-1.0688,-1.0655,-1.055,-1.0391,-1.0209,-1.0038,-0.986,-0.9778,-0.9795,-0.9827,-0.9945,-1.0018,-1.014,-1.0156,-1.016,-1.0156,-1.0156,-1.0156,-1.0197,-1.0111,-0.9973,-0.9916,-0.9949,-0.9915,-1.0042,-1.0075,-1.0252,-1.0277,-1.026,-1.0054,-1.0042,-0.9994,-0.9941,-0.9937,-0.9929,-0.992,-0.977,-0.9786,-0.9888,-0.992,-0.9941,-0.9851,-0.977,-0.9746,-0.9717,-0.9701,-0.9677,-0.9624,-0.9624,-0.9624,-0.9624,-0.9624,-0.9624,-0.9624,-0.9624,-0.9624,-0.9624,-0.9624,-0.9624,-0.9624,-0.9624,-0.9426,-0.9027,-0.8127,-0.6828,-0.5329,-0.362,-0.2703,-0.229,-0.1978,-0.1758,-0.1637,-0.1614,-0.1496,-0.1475,-0.1465,-0.147,-0.6881,-0.7004,-0.798,-0.9076,-1.0297,-1.0297,-1.0789,-1.1772,-1.1776,-1.1776,-1.176,-1.1719,-1.1598,-1.1443,-1.1289,-1.1179,-1.1098,-1.1374,-1.1443,-1.1512,-1.1642,-1.1764,-1.1768,-1.1752,-1.1699,-1.1561,-1.1407,-1.1325,-1.1256,-1.1135,-1.1033,-1.1025,-1.0899,-1.0915,-1.094,-1.0887,-1.0794,-1.0704,-1.0692,-1.0684,-1.0635,-1.0448,-1.0286,-1.0128,-0.9973,-0.9847,-0.9884,-1.0018,-1.0128,-1.0197,-1.0306,-1.0347,-1.0339,-1.0351,-1.0347,-1.0347,-1.0383,-1.0367,-1.0257,-1.0188,-1.0123,-1.0188,-1.0286,-1.0327,-1.0322,-1.04,-1.0363,-1.0241,-1.0229,-1.0209,-1.0172,-1.0144,-1.0115,-1.0099,-0.99,-1.0036,-1.0156,-1.0236,-1.0199,-1.0018,-0.9945,-0.9908,-0.9872,-0.9815,-0.9746,-0.9652,-0.9624,-0.9632,-0.9624,-0.9624,-0.9624,-0.9624,-0.9624,-0.9624,-0.9624,-0.9624,-0.9624,-0.9628,-0.9628,-0.9525,-0.9126,-0.8226,-0.7027,-0.5427,-0.3827,-0.3019,-0.2405,-0.2009,-0.1607,-0.1572,-0.1542,-0.1533,-0.1519,-0.1504,-0.1497,-0.9559,-0.9562,-0.9556,-1.0411,-1.153,-1.1651,-1.1651,-1.1776,-1.1776,-1.1768,-1.1727,-1.1614,-1.1459,-1.1277,-1.1212,-1.1057,-1.0789,-1.1273,-1.1366,-1.1431,-1.1577,-1.1748,-1.1776,-1.1772,-1.1752,-1.1687,-1.152,-1.1451,-1.1419,-1.1236,-1.1196,-1.1179,-1.0976,-1.0903,-1.0871,-1.0834,-1.0757,-1.0692,-1.0692,-1.0692,-1.0684,-1.0586,-1.0461,-1.0262,-1.0262,-1.0237,-0.9941,-1.018,-1.0363,-1.0301,-1.0513,-1.0578,-1.0558,-1.0566,-1.0562,-1.0562,-1.0497,-1.0513,-1.0501,-1.042,-1.04,-1.0341,-1.0513,-1.0578,-1.0562,-1.0619,-1.0574,-1.0436,-1.0416,-1.0351,-1.0257,-1.0172,-1.0249,-1.0266,-1.0188,-1.0184,-1.04,-1.048,-1.0439,-1.0272,-1.0123,-1.0087,-1.003,-0.9973,-0.9908,-0.9823,-0.9697,-0.9697,-0.9636,-0.9624,-0.9624,-0.9624,-0.9624,-0.9624,-0.9624,-0.9628,-0.9628,-0.9529,-0.9529,-0.9529,-0.9426,-0.8326,-0.7027,-0.5927,-0.4427,-0.3525,-0.2521,-0.2017,-0.1606,-0.1583,-0.1564,-0.1552,-0.1543,-0.153,-0.1527,-0.9724,-0.9788,-1.0447,-1.1082,-1.1776,-1.1776,-1.1776,-1.1776,-1.1776,-1.1703,-1.161,-1.163,-1.1443,-1.1191,-1.1175,-1.1098,-1.0928,-1.1163,-1.1317,-1.1468,-1.1638,-1.1756,-1.1776,-1.1756,-1.1719,-1.163,-1.1529,-1.1423,-1.1309,-1.1273,-1.133,-1.1265,-1.111,-1.1013,-1.0944,-1.083,-1.0729,-1.0692,-1.0696,-1.0696,-1.0672,-1.0574,-1.0465,-1.0371,-1.0233,-1.0286,-1.0241,-1.0351,-1.0477,-1.0574,-1.0655,-1.068,-1.0692,-1.0692,-1.0692,-1.0692,-1.0607,-1.0627,-1.0639,-1.0554,-1.0485,-1.059,-1.0651,-1.0692,-1.0692,-1.0692,-1.0672,-1.0607,-1.0582,-1.0513,-1.0513,-1.0489,-1.0509,-1.0493,-1.0473,-1.0452,-1.0547,-1.0638,-1.0605,-1.0343,-1.0306,-1.0266,-1.0205,-1.0136,-1.0071,-0.9994,-0.9868,-0.9754,-0.9697,-0.9648,-0.9652,-0.9632,-0.9624,-0.9624,-0.9624,-0.9628,-0.9529,-0.943,-0.943,-0.9331,-0.9229,-0.8131,-0.6933,-0.5929,-0.4826,-0.3626,-0.2623,-0.1919,-0.1609,-0.1596,-0.1581,-0.1566,-0.1559,-0.1554,-0.1559,-1.0055,-1.0245,-1.0973,-1.1435,-1.1748,-1.1715,-1.1727,-1.1772,-1.1776,-1.1671,-1.1512,-1.1626,-1.1468,-1.1179,-1.122,-1.1208,-1.1151,-1.1301,-1.1415,-1.1545,-1.1663,-1.176,-1.1776,-1.1764,-1.1723,-1.1585,-1.1508,-1.1431,-1.1447,-1.1342,-1.1382,-1.1415,-1.1374,-1.124,-1.1139,-1.0952,-1.0806,-1.072,-1.0753,-1.0724,-1.0692,-1.0595,-1.0473,-1.0452,-1.0379,-1.0367,-1.0416,-1.0481,-1.057,-1.0643,-1.0688,-1.0688,-1.0692,-1.0692,-1.0692,-1.0692,-1.0692,-1.0692,-1.0655,-1.0615,-1.057,-1.0655,-1.068,-1.0692,-1.0692,-1.0692,-1.0676,-1.068,-1.068,-1.0696,-1.0704,-1.0651,-1.0635,-1.0603,-1.0607,-1.0599,-1.0607,-1.0703,-1.067,-1.0521,-1.0489,-1.0465,-1.0444,-1.0375,-1.0245,-1.0164,-1.0038,-0.9904,-0.9782,-0.9734,-0.9701,-0.9669,-0.9624,-0.9624,-0.9624,-0.9628,-0.9529,-0.9529,-0.943,-0.9232,-0.8832,-0.7935,-0.6933,-0.5927,-0.4726,-0.3527,-0.2623,-0.1919,-0.1617,-0.1615,-0.16,-0.1585,-0.1588,-0.1585,-0.1592,-1.1121,-1.1228,-1.1216,-1.1415,-1.1703,-1.1581,-1.1606,-1.1736,-1.1748,-1.1658,-1.1508,-1.1529,-1.1423,-1.1269,-1.1366,-1.135,-1.1313,-1.1529,-1.1642,-1.1598,-1.1699,-1.1768,-1.1776,-1.1768,-1.1756,-1.1723,-1.161,-1.1565,-1.1707,-1.1516,-1.1492,-1.152,-1.1512,-1.1447,-1.1451,-1.1289,-1.1033,-1.0777,-1.0883,-1.083,-1.072,-1.066,-1.0578,-1.0526,-1.0554,-1.055,-1.0521,-1.0582,-1.0651,-1.068,-1.0692,-1.0692,-1.0692,-1.0692,-1.0692,-1.0692,-1.0692,-1.0696,-1.0696,-1.0688,-1.07,-1.0692,-1.0692,-1.0692,-1.0696,-1.0704,-1.0729,-1.0761,-1.0761,-1.0745,-1.072,-1.0724,-1.0753,-1.0761,-1.0777,-1.0745,-1.0753,-1.0692,-1.0639,-1.0615,-1.0651,-1.0676,-1.0672,-1.0619,-1.0456,-1.0331,-1.0209,-1.0071,-0.9925,-0.9819,-0.9774,-0.9721,-0.9669,-0.9624,-0.9624,-0.9624,-0.9628,-0.9525,-0.9327,-0.913,-0.8931,-0.8432,-0.7329,-0.5924,-0.4924,-0.3927,-0.2823,-0.1819,-0.1718,-0.1617,-0.1617,-0.1609,-0.1613,-0.1613,-0.1612,-1.1122,-1.12,-1.0968,-1.1078,-1.1395,-1.148,-1.1541,-1.1585,-1.1589,-1.1557,-1.1508,-1.15,-1.1399,-1.133,-1.1411,-1.1468,-1.1459,-1.1468,-1.1553,-1.1699,-1.1756,-1.1768,-1.1776,-1.1776,-1.1776,-1.1727,-1.1618,-1.1606,-1.176,-1.1606,-1.161,-1.1646,-1.1642,-1.1537,-1.1366,-1.1224,-1.109,-1.0923,-1.0923,-1.0883,-1.072,-1.0688,-1.066,-1.0599,-1.0664,-1.0651,-1.059,-1.0668,-1.0684,-1.0692,-1.0692,-1.0692,-1.0692,-1.0692,-1.0692,-1.0692,-1.07,-1.0757,-1.0715,-1.0751,-1.0695,-1.0753,-1.0724,-1.0729,-1.07,-1.0937,-1.097,-1.0899,-1.0952,-1.0984,-1.0936,-1.1049,-1.1057,-1.092,-1.0896,-1.0803,-1.0867,-1.0749,-1.0672,-1.0668,-1.0692,-1.0692,-1.0692,-1.0692,-1.057,-1.0505,-1.0396,-1.0249,-1.0103,-0.9941,-0.9847,-0.9791,-0.9734,-0.9665,-0.9628,-0.9636,-0.9533,-0.943,-0.913,-0.8829,-0.863,-0.863,-0.7226,-0.5625,-0.5027,-0.4325,-0.2823,-0.1718,-0.1617,-0.1617,-0.1617,-0.1617,-0.1615,-0.1615,-0.1615,-1.0936,-1.1009,-1.0789,-1.0822,-1.1053,-1.1236,-1.1346,-1.1407,-1.1464,-1.1468,-1.1435,-1.152,-1.1496,-1.1423,-1.1496,-1.1593,-1.1593,-1.1602,-1.1622,-1.1772,-1.1776,-1.1776,-1.1776,-1.1772,-1.1776,-1.1736,-1.1687,-1.1679,-1.1772,-1.1663,-1.1667,-1.1736,-1.1772,-1.1654,-1.1496,-1.1427,-1.1269,-1.1094,-1.1001,-1.0948,-1.0777,-1.0692,-1.0692,-1.068,-1.0692,-1.0684,-1.0688,-1.0692,-1.0692,-1.0696,-1.0696,-1.0696,-1.07,-1.0696,-1.0692,-1.0696,-1.0777,-1.0755,-1.0888,-1.0936,-1.0884,-1.0932,-1.0879,-1.0875,-1.0887,-1.1005,-1.1041,-1.1094,-1.1183,-1.1208,-1.1232,-1.1244,-1.1244,-1.1212,-1.1167,-1.1074,-1.1017,-1.0903,-1.0806,-1.0794,-1.072,-1.0712,-1.0692,-1.0692,-1.0651,-1.0623,-1.0586,-1.0432,-1.0282,-1.014,-0.9998,-0.9937,-0.9855,-0.9782,-0.9713,-0.9657,-0.9549,-0.9331,-0.913,-0.8829,-0.863,-0.8531,-0.6828,-0.5427,-0.4926,-0.4024,-0.2521,-0.1617,-0.1617,-0.1617,-0.1617,-0.1617,-0.1617,-0.1617,-0.1617,-1.0696,-1.0692,-1.0692,-1.0696,-1.0733,-1.0915,-1.107,-1.1236,-1.1395,-1.1374,-1.1248,-1.1565,-1.1545,-1.1512,-1.165,-1.1703,-1.1703,-1.1711,-1.1719,-1.1752,-1.1756,-1.1748,-1.1736,-1.1748,-1.174,-1.1752,-1.1723,-1.1675,-1.1764,-1.174,-1.1748,-1.1768,-1.1776,-1.1723,-1.1695,-1.1638,-1.1443,-1.1228,-1.1163,-1.1045,-1.0834,-1.0741,-1.0724,-1.0708,-1.0692,-1.0692,-1.0692,-1.0692,-1.0708,-1.0716,-1.072,-1.072,-1.0716,-1.0704,-1.07,-1.0753,-1.0883,-1.1045,-1.1077,-1.1113,-1.1265,-1.1351,-1.1244,-1.124,-1.1196,-1.1187,-1.1232,-1.1256,-1.1313,-1.1297,-1.1293,-1.1309,-1.1442,-1.1417,-1.1401,-1.1351,-1.1204,-1.1114,-1.1009,-1.0923,-1.081,-1.0753,-1.0704,-1.0692,-1.0692,-1.0676,-1.0639,-1.059,-1.0456,-1.0379,-1.0245,-1.014,-1.005,-0.9925,-0.9847,-0.9782,-0.9726,-0.9626,-0.9248,-0.9034,-0.8832,-0.8329,-0.6927,-0.5727,-0.4924,-0.3723,-0.222,-0.1617,-0.1617,-0.1617,-0.1617,-0.1617,-0.1617,-0.1617,-0.1617,-1.0692,-1.0692,-1.0692,-1.0692,-1.07,-1.0749,-1.0944,-1.12,-1.1167,-1.1139,-1.1224,-1.1204,-1.1285,-1.1305,-1.1358,-1.1468,-1.1541,-1.1577,-1.1573,-1.161,-1.1671,-1.1569,-1.1561,-1.1622,-1.1654,-1.1626,-1.1606,-1.1679,-1.1756,-1.1776,-1.1776,-1.1776,-1.1776,-1.1776,-1.1776,-1.1776,-1.1565,-1.1411,-1.1378,-1.1151,-1.0948,-1.085,-1.0794,-1.0724,-1.0692,-1.0692,-1.0692,-1.0692,-1.0733,-1.0854,-1.0879,-1.0919,-1.1066,-1.0964,-1.0891,-1.0911,-1.1057,-1.1224,-1.1257,-1.1298,-1.1334,-1.1549,-1.1581,-1.1427,-1.1358,-1.1342,-1.1415,-1.1439,-1.1492,-1.1508,-1.1512,-1.152,-1.1643,-1.163,-1.1593,-1.154,-1.1378,-1.1281,-1.1175,-1.1062,-1.0944,-1.0818,-1.0761,-1.0692,-1.0692,-1.0692,-1.0676,-1.0647,-1.0607,-1.0521,-1.0461,-1.0355,-1.0225,-1.0095,-1.0018,-0.9949,-0.9872,-0.9811,-0.953,-0.916,-0.8931,-0.8226,-0.7126,-0.5727,-0.4225,-0.3022,-0.1919,-0.1617,-0.1617,-0.1617,-0.1617,-0.1617,-0.1617,-0.1617,-0.1617,-1.0692,-1.0692,-1.0692,-1.0692,-1.0692,-1.0692,-1.0826,-1.0988,-1.0976,-1.1037,-1.1114,-1.1102,-1.1126,-1.1216,-1.1244,-1.1297,-1.1386,-1.139,-1.139,-1.1423,-1.152,-1.1407,-1.1395,-1.1492,-1.1569,-1.1541,-1.1581,-1.1699,-1.1756,-1.1776,-1.1776,-1.1776,-1.1776,-1.1776,-1.1776,-1.1768,-1.1727,-1.1577,-1.1443,-1.1236,-1.1074,-1.0923,-1.0789,-1.0737,-1.07,-1.07,-1.07,-1.07,-1.0798,-1.094,-1.0968,-1.1049,-1.1175,-1.1114,-1.1139,-1.1171,-1.1269,-1.1427,-1.1565,-1.1487,-1.1555,-1.1736,-1.1772,-1.1663,-1.1581,-1.1561,-1.1593,-1.1622,-1.1699,-1.176,-1.1764,-1.1772,-1.1764,-1.176,-1.1687,-1.1614,-1.1524,-1.1427,-1.1321,-1.1212,-1.1078,-1.0936,-1.0834,-1.0753,-1.0692,-1.0692,-1.0692,-1.068,-1.0655,-1.0615,-1.0586,-1.0534,-1.0396,-1.0262,-1.0193,-1.0115,-1.001,-0.9916,-0.9722,-0.9446,-0.9072,-0.8326,-0.7226,-0.5325,-0.3224,-0.2321,-0.1617,-0.1617,-0.1617,-0.1617,-0.1617,-0.1617,-0.1617,-0.1617,-0.1617,-1.0647,-1.0639,-1.0668,-1.0672,-1.0692,-1.0692,-1.07,-1.0708,-1.0867,-1.0944,-1.0972,-1.1098,-1.1126,-1.1098,-1.1102,-1.1139,-1.1191,-1.1204,-1.1208,-1.1208,-1.1285,-1.124,-1.1256,-1.1395,-1.1512,-1.1573,-1.165,-1.174,-1.176,-1.1776,-1.1776,-1.1776,-1.1776,-1.1776,-1.1776,-1.1776,-1.1748,-1.1699,-1.148,-1.1244,-1.1086,-1.0895,-1.0741,-1.0733,-1.0733,-1.0733,-1.0729,-1.0753,-1.081,-1.0944,-1.1049,-1.1139,-1.1204,-1.1305,-1.1386,-1.1423,-1.148,-1.1585,-1.1687,-1.1723,-1.174,-1.1768,-1.1772,-1.1744,-1.1707,-1.1691,-1.1703,-1.1707,-1.1764,-1.1776,-1.1776,-1.1776,-1.1776,-1.1776,-1.1736,-1.1699,-1.1658,-1.1565,-1.1472,-1.1362,-1.1244,-1.1094,-1.0915,-1.0834,-1.0749,-1.072,-1.0692,-1.0692,-1.0684,-1.0668,-1.066,-1.0651,-1.0558,-1.0436,-1.04,-1.0306,-1.0144,-1.0034,-0.9831,-0.9629,-0.9245,-0.8478,-0.7521,-0.5325,-0.3225,-0.222,-0.1617,-0.1617,-0.1617,-0.1617,-0.1617,-0.1617,-0.1617,-0.1617,-0.1617,-1.0286,-1.0302,-1.044,-1.0566,-1.0684,-1.0692,-1.0692,-1.0696,-1.0737,-1.0765,-1.0769,-1.0806,-1.0838,-1.0863,-1.0867,-1.0915,-1.1013,-1.1025,-1.1029,-1.1082,-1.1135,-1.1131,-1.1131,-1.1354,-1.1476,-1.1561,-1.1658,-1.1776,-1.1776,-1.1776,-1.1776,-1.1776,-1.1776,-1.1776,-1.1776,-1.1776,-1.1768,-1.1756,-1.1581,-1.1423,-1.1342,-1.1297,-1.122,-1.1013,-1.0891,-1.0883,-1.0883,-1.0899,-1.1094,-1.1301,-1.1358,-1.1403,-1.1431,-1.1557,-1.1573,-1.1545,-1.1622,-1.1707,-1.1748,-1.1776,-1.1776,-1.1776,-1.1776,-1.1776,-1.1772,-1.1776,-1.1776,-1.1776,-1.1776,-1.1776,-1.1776,-1.1776,-1.1776,-1.1776,-1.1776,-1.1776,-1.1776,-1.1695,-1.161,-1.1512,-1.1403,-1.1232,-1.1041,-1.0911,-1.083,-1.0765,-1.0712,-1.0692,-1.0692,-1.068,-1.068,-1.0676,-1.068,-1.0603,-1.0566,-1.0381,-1.0221,-0.9959,-0.9749,-0.9638,-0.9415,-0.7695,-0.6024,-0.5027,-0.3527,-0.2321,-0.1617,-0.1617,-0.1617,-0.1617,-0.1617,-0.1617,-0.1617,-0.1617,-0.1617,-1.016,-1.0188,-1.0359,-1.0485,-1.0582,-1.0655,-1.0692,-1.0692,-1.0692,-1.0692,-1.0692,-1.0692,-1.0692,-1.0692,-1.0696,-1.0729,-1.0846,-1.0842,-1.0846,-1.0899,-1.1017,-1.1033,-1.1143,-1.133,-1.1443,-1.1549,-1.1687,-1.1776,-1.1776,-1.1776,-1.1776,-1.1776,-1.1776,-1.1776,-1.1776,-1.1776,-1.1776,-1.1768,-1.1654,-1.1622,-1.1577,-1.1468,-1.1269,-1.1033,-1.0972,-1.0976,-1.0968,-1.0988,-1.1183,-1.1431,-1.1553,-1.1606,-1.1634,-1.1695,-1.1707,-1.1683,-1.1711,-1.1776,-1.1776,-1.1776,-1.1776,-1.1776,-1.1776,-1.1776,-1.1776,-1.1776,-1.1776,-1.1776,-1.1776,-1.1776,-1.1776,-1.1776,-1.1776,-1.1776,-1.1776,-1.1776,-1.1776,-1.1744,-1.1699,-1.1663,-1.1524,-1.1346,-1.1159,-1.0988,-1.0891,-1.0745,-1.0696,-1.0712,-1.0708,-1.072,-1.0712,-1.0692,-1.0692,-1.0692,-1.0647,-1.0482,-1.0182,-0.9926,-0.956,-0.9046,-0.8285,-0.6276,-0.4528,-0.4144,-0.3441,-0.212,-0.1617,-0.1623,-0.1619,-0.1617,-0.1617,-0.1617,-0.1618,-0.162,-0.1619,-1.0095,-1.0148,-1.0294,-1.0379,-1.042,-1.0554,-1.0607,-1.0611,-1.0619,-1.0631,-1.0643,-1.0643,-1.0664,-1.0688,-1.0692,-1.0692,-1.0704,-1.0741,-1.072,-1.0765,-1.0907,-1.1005,-1.1159,-1.133,-1.1476,-1.1593,-1.1711,-1.176,-1.1776,-1.1776,-1.1776,-1.1776,-1.1776,-1.1776,-1.1776,-1.1776,-1.1776,-1.1776,-1.174,-1.1756,-1.1634,-1.1468,-1.1256,-1.1102,-1.1021,-1.1025,-1.1017,-1.1086,-1.124,-1.1439,-1.1675,-1.1715,-1.174,-1.176,-1.1764,-1.1752,-1.1748,-1.1776,-1.1776,-1.1776,-1.1776,-1.1776,-1.1776,-1.1776,-1.1776,-1.1776,-1.1776,-1.1776,-1.1776,-1.1776,-1.1776,-1.1776,-1.1776,-1.1776,-1.1776,-1.1776,-1.1776,-1.1776,-1.1768,-1.176,-1.163,-1.1451,-1.1289,-1.1114,-1.0976,-1.0818,-1.0745,-1.0737,-1.0749,-1.0773,-1.0781,-1.0729,-1.0692,-1.0692,-1.0692,-1.0546,-1.0268,-0.9525,-0.9041,-0.827,-0.7274,-0.5512,-0.4485,-0.4284,-0.3467,-0.2039,-0.1634,-0.1641,-0.1633,-0.1628,-0.163,-0.1634,-0.1633,-0.1633,-0.1624,-0.9811,-0.9941,-0.9977,-1.0075,-1.0209,-1.0253,-1.0262,-1.0266,-1.0278,-1.0339,-1.0461,-1.0497,-1.055,-1.0688,-1.0692,-1.0692,-1.0692,-1.0692,-1.0692,-1.0724,-1.0887,-1.1029,-1.1183,-1.1358,-1.1565,-1.1683,-1.1748,-1.1764,-1.1776,-1.1776,-1.1776,-1.1776,-1.1776,-1.1776,-1.1776,-1.1776,-1.1776,-1.1776,-1.1776,-1.1776,-1.1776,-1.1626,-1.148,-1.137,-1.1317,-1.1273,-1.1261,-1.133,-1.1508,-1.1667,-1.1744,-1.1768,-1.1776,-1.1776,-1.1776,-1.1776,-1.1776,-1.1776,-1.1776,-1.1776,-1.1776,-1.1776,-1.1776,-1.1776,-1.1776,-1.1776,-1.1776,-1.1776,-1.1776,-1.1776,-1.1776,-1.1776,-1.1776,-1.1776,-1.1776,-1.1776,-1.1776,-1.1776,-1.1772,-1.1768,-1.1727,-1.1581,-1.1443,-1.1321,-1.1261,-1.1126,-1.1041,-1.1017,-1.0875,-1.0863,-1.085,-1.0769,-1.0696,-1.0692,-1.0692,-1.0692,-1.0311,-0.9479,-0.8406,-0.7346,-0.6271,-0.518,-0.4448,-0.4145,-0.3209,-0.1863,-0.1658,-0.1662,-0.1662,-0.166,-0.1656,-0.1655,-0.1654,-0.1652,-0.1648]},{"header":{"parameterUnit":"m.s-1","parameterCategory":1,"la1":31.0,"la2":29.5877,"lo1":-88.7671,"lo2":-86.6584,"dy":0.0162,"dx":0.0185,"nx":115,"ny":88,"refTime":"2023-06-26T00:00:00:Z","depth":0,"parameterNumber":3,"parameterNumberName":"V-component_of_WINDS"},"data":[0.0,0.0,0.0,0.0,0.0,0.0,0.0,0.0,0.0,0.0,0.0,0.0,0.0,0.0,0.0,0.0,0.0,0.0,0.0,0.0,0.0,0.0,0.0,0.0,0.0,0.0,0.0,0.0,0.0,0.0,0.0,0.0,0.0,0.0,0.0,0.0,0.0,0.0,0.0,0.0,0.0,0.0,0.0,0.0,0.0,0.0,0.0,0.0,0.0,0.0,0.0,0.0,0.0,0.0,0.0,0.0,0.0,0.0,0.0,0.0,0.0,0.0,0.0,0.0,0.0,0.0,0.0,0.0,0.0,0.0,0.0,0.0,0.0,0.0,0.0,0.0,0.0,0.0,0.0,0.0,0.0,0.0,0.0,0.0,0.0,0.0,0.0,0.0,0.0,0.0,0.0,0.0,0.0,0.0,0.0,0.0,0.0,0.0,0.0,0.0,0.0,0.0,0.0,0.0,0.0,0.0,0.0,0.0,0.0,0.0,0.0,0.0,0.0,0.0,0.0,0.0,0.0,0.0,0.0,0.0,0.0,0.0,0.0,0.0,0.0,0.0,0.0,0.0,0.0,0.0,0.0,0.0,0.0,0.0,0.0,0.0,0.0,0.0,0.0,0.0,0.0,0.0,0.0,0.0,0.0,0.0,0.0,0.0,0.0,0.0,0.0,0.0,0.0,0.0,0.0,0.0,0.0,0.0,0.0,0.0,0.0,0.0,0.0,0.0,0.0,0.0,0.0,0.0,0.0,0.0,0.0,0.0,0.0,0.0,0.0,0.0,0.0,0.0,0.0,0.0,0.0,0.0,0.0,0.0,0.0,0.0,0.0,0.0,0.0,0.0,0.0,0.0,0.0,0.0,0.0,0.0,0.0,0.0,0.0,0.0,0.0,0.0,0.0,0.0,0.0,0.0,0.0,0.0,0.0,0.0,0.0,0.0,0.0,0.0,0.0,0.0,0.0,0.0,0.0,0.0,0.0,0.0,0.0,0.0,0.0,0.0,0.0,0.0,0.0,0.0,0.0,0.0,0.0,0.0,0.0,0.0,0.0,0.0,0.0,0.0,0.0,0.0,0.0,0.0,0.0,0.0,0.0,0.0,0.0,0.0,0.0,0.0,0.0,0.0,0.0,0.0,0.0,0.0,0.0,0.0,0.0,0.0,0.0,0.0,0.0,0.0,0.0,0.0,0.0,0.0,0.0,0.0,0.0,0.0,0.0,0.0,0.0,0.0,0.0,0.0,0.0,0.0,0.0,0.0,0.0,0.0,0.0,0.0,0.0,0.0,0.0,0.0,0.0,0.0,0.0,0.0,0.0,0.0,0.0,0.0,0.0,0.0,0.0,0.0,0.0,0.0,0.0,0.0,0.0,0.0,0.0,0.0,0.0,0.0,0.0,0.0,0.0,0.0,0.0,0.0,0.0,0.0,0.0,0.0,0.0,0.0,0.0,0.0,0.0,0.0,0.0,0.0,0.0,0.0,0.0,0.0,0.0,0.0,0.0,0.0,0.0,0.0,0.0,0.0,0.0,0.0,0.0,0.0,0.0,0.0,0.0,0.0,0.0,0.0,0.0,0.0,0.0,0.0,0.0,0.0,0.0,0.0,0.0,0.0,0.0,0.0,0.0,0.0,0.0,0.0,0.0,0.0,0.0,0.0,0.0,0.0,0.0,0.0,0.0,0.0,0.0,0.0,0.0,0.0,0.0,0.0,0.0,0.0,0.0,0.0,0.0,0.0,0.0,0.0,0.0,0.0,0.0,0.0,0.0,0.0,0.0,0.0,0.0,0.0,0.0,0.0,0.0,0.0,0.0,0.0,0.0,0.0,0.0,0.0,0.0,0.0,0.0,0.0,0.0,0.0,0.0,0.0,0.0,0.0,0.0,0.0,0.0,0.0,0.0,0.0,0.0,0.0,0.0,0.0,0.0,0.0,0.0,0.0,0.0,0.0,0.0,0.0,0.0,0.0,0.0,0.0,0.0,0.0,0.0,0.0,0.0,0.0,0.0,0.0,0.0,0.0,0.0,0.0,0.0,0.0,0.0,0.0,0.0,0.0,0.0,0.0,0.0,0.0,0.0,0.0,0.0,0.0,0.0,0.0,0.0,0.0,0.0,0.0,0.0,0.0,0.0,0.0,0.0,0.0,0.0,0.0,0.0,0.0,0.0,0.0,0.0,0.0,0.0,0.0,0.0,0.0,0.0,0.0,0.0,0.0,0.0,0.0,0.0,0.0,0.0,0.0,0.0,0.0,0.0,0.0,0.0,0.0,0.0,0.0,0.0,0.0,0.0,0.0,0.0,0.0,0.0,0.0,0.0,0.0,0.0,0.0,0.0,0.0,0.0,0.0,0.0,0.0,0.0,0.0,0.0,0.0,0.0,0.0,0.0,0.0,0.0,0.0,0.0,0.0,0.0,0.0,0.0,0.0,0.0,0.0,0.0,0.0,0.0,0.0,0.0,0.0,0.0,0.0,0.0,0.0,0.0,0.0,0.0,0.0,0.0,0.0,0.0,0.0,0.0,0.0,0.0,0.0,0.0,0.0,0.0,0.0,0.0,0.0,0.0,0.0,0.0,0.0,0.0,0.0,0.0,0.0,0.0,0.0,0.0,0.0,0.0,0.0,0.0,0.0,0.0,0.0,0.0,0.0,0.0,0.0,0.0,0.0,0.0,0.0,0.0,0.0,0.0,0.0,0.0,0.0,0.0,0.0,0.0,0.0,0.0,0.0,0.0,0.0,0.0,0.0,0.0,0.0,0.0,0.0,0.0,0.0,0.0,0.0,0.0,0.0,0.0,0.0,0.0,0.0,0.0,0.0,0.0,0.0,0.0,0.0,0.0,0.0,0.0,0.0,0.0,0.0,0.0,0.0,0.0,0.0,0.0,0.0,0.0,0.0,0.0,0.0,0.0,0.0,0.0,0.0,0.0,0.0,0.0,0.0,0.0,0.0,0.0,0.0,0.0,0.0,0.0,0.0,0.0,0.0,0.0,0.0,0.0,0.0,0.0,0.0,0.0,0.0,0.0,0.0,0.0,0.0,0.0,0.0,0.0,0.0,0.0,0.0,0.0,0.0,0.0,0.0,0.0,0.0,0.0,0.0,0.0,0.0,0.0,0.0,0.0,0.0,0.0,0.0,0.0,0.0,0.0,0.0,0.0,0.0,0.0,0.0,0.0,0.0,0.0,0.0,0.0,0.0,0.0,0.0,0.0,0.0,0.0,0.0,0.0,0.0,0.0,0.0,0.0,0.0,0.0,0.0,0.0,0.0,0.0,0.0,0.0,0.0,0.0,0.0,0.0,0.0,0.0,0.0,0.0,0.0,0.0,0.0,0.0,0.0,0.0,0.0,0.0,0.0,0.0,0.0,0.0,0.0,0.0,0.0,0.0,0.0,0.0,0.0,0.0,0.0,0.0,0.0,0.0,0.0,0.0,0.0,0.0,0.0,0.0,0.0,0.0,0.0,0.0,0.0,0.0,0.0,0.0,0.0,0.0,0.0,0.0,0.0,0.0,0.0,0.0,0.0,0.0,0.0,0.0,0.0,0.0,0.0,0.0,0.0,0.0,0.0,0.0,0.0,0.0,0.0,0.0,0.0,0.0,0.0,0.0,0.0,0.0,0.0,0.0,0.0,0.0,0.0,0.0,0.0,0.0,0.0,0.0,0.0,0.0,0.0,0.0,0.0,0.0,0.0,0.0,0.0,0.0,0.0,0.0,0.0,0.0,0.0,0.0,0.0,0.0,0.0,0.0,0.0,0.0,0.0,0.0,0.0,0.0,0.0,0.0,0.0,0.0,0.0,0.0,0.0,0.0,0.0,0.0,0.0,0.0,0.0,0.0,0.0,0.0,0.0,0.0,0.0,0.0,0.0,0.0,0.0,0.0,0.0,0.0,0.0,0.0,0.0,0.0,0.0,0.0,0.0,0.0,0.0,0.0,0.0,0.0,0.0,0.0,0.0,0.0,0.0,0.0,0.0,0.0,0.0,0.0,0.0,0.0,0.0,0.0,0.0,0.0,0.0,0.0,0.0,0.0,0.0,0.0,0.0,0.0,0.0,0.0,0.0,0.0,0.0,0.0,0.0,0.0,0.0,0.0,0.0,0.0,0.0,0.0,0.0,0.0,0.0,0.0,0.0,0.0,0.0,0.0,0.0,0.0,0.0,0.0,0.0,0.0,0.0,0.0,0.0,0.0,0.0,0.0,0.0,0.0,0.0,0.0,0.0,0.0,0.0,0.0,0.0,0.0,0.0,0.0,0.0,0.0,0.0,0.0,0.0,-1.1608,0.0,0.0,0.0,0.0,0.0,0.0,0.0,0.0,0.0,0.0,0.0,0.0,0.0,0.0,0.0,0.0,0.0,0.0,0.0,0.0,0.0,0.0,0.0,0.0,0.0,0.0,0.0,0.0,0.0,0.0,0.0,0.0,0.0,0.0,0.0,0.0,0.0,0.0,0.0,0.0,0.0,0.0,0.0,0.0,0.0,0.0,0.0,0.0,0.0,0.0,0.0,0.0,0.0,0.0,0.0,0.0,0.0,0.0,0.0,0.0,0.0,0.0,0.0,0.0,0.0,0.0,0.0,0.0,0.0,0.0,0.0,0.0,0.0,0.0,0.0,0.0,0.0,0.0,0.0,0.0,0.0,0.0,0.0,0.0,0.0,0.0,0.0,0.0,0.0,0.0,0.0,0.0,0.0,0.0,0.0,0.0,0.0,0.0,0.0,0.0,0.0,0.0,0.0,0.0,0.0,0.0,0.0,0.0,0.0,0.0,-1.5207,-1.48,-1.3976,-1.3116,-1.2318,0.0,0.0,0.0,0.0,0.0,0.0,0.0,0.0,0.0,0.0,0.0,0.0,0.0,0.0,0.0,0.0,0.0,0.0,0.0,0.0,0.0,0.0,0.0,0.0,0.0,0.0,0.0,0.0,0.0,0.0,0.0,0.0,0.0,0.0,0.0,0.0,0.0,0.0,0.0,0.0,0.0,0.0,0.0,0.0,0.0,0.0,0.0,0.0,0.0,0.0,0.0,0.0,0.0,0.0,0.0,0.0,0.0,0.0,0.0,0.0,0.0,0.0,0.0,0.0,0.0,0.0,0.0,0.0,0.0,0.0,0.0,0.0,0.0,0.0,0.0,0.0,0.0,0.0,0.0,0.0,0.0,0.0,0.0,0.0,0.0,0.0,0.0,0.0,0.0,0.0,0.0,0.0,0.0,0.0,0.0,0.0,0.0,0.0,0.0,0.0,0.0,0.0,0.0,0.0,0.0,0.0,0.0,0.0,0.0,0.0,0.0,0.0,-1.455,-1.3729,-1.2909,0.0,0.0,0.0,0.0,0.0,0.0,0.0,0.0,0.0,0.0,0.0,0.0,0.0,0.0,0.0,0.0,0.0,0.0,0.0,0.0,0.0,0.0,0.0,0.0,0.0,0.0,0.0,0.0,0.0,0.0,0.0,0.0,0.0,0.0,0.0,0.0,0.0,0.0,0.0,0.0,0.0,0.0,0.0,0.0,0.0,0.0,0.0,0.0,0.0,0.0,0.0,0.0,0.0,0.0,0.0,0.0,0.0,0.0,0.0,0.0,0.0,0.0,0.0,0.0,0.0,0.0,0.0,0.0,0.0,0.0,0.0,0.0,0.0,0.0,0.0,0.0,0.0,0.0,0.0,0.0,0.0,0.0,0.0,0.0,0.0,0.0,0.0,0.0,0.0,0.0,0.0,0.0,0.0,0.0,0.0,0.0,0.0,0.0,0.0,0.0,0.0,0.0,0.0,0.0,0.0,0.0,0.0,0.0,0.0,0.0,-1.541,-1.5389,-1.4549,0.0,-1.291,0.0,0.0,0.0,0.0,0.0,0.0,0.0,0.0,0.0,0.0,0.0,0.0,0.0,0.0,0.0,0.0,0.0,0.0,0.0,0.0,0.0,0.0,0.0,0.0,0.0,0.0,0.0,0.0,0.0,0.0,0.0,0.0,0.0,0.0,0.0,0.0,0.0,0.0,0.0,0.0,0.0,0.0,0.0,0.0,0.0,0.0,0.0,0.0,0.0,0.0,0.0,0.0,0.0,0.0,0.0,0.0,0.0,0.0,0.0,0.0,0.0,0.0,0.0,0.0,0.0,0.0,0.0,0.0,0.0,0.0,0.0,0.0,0.0,0.0,0.0,0.0,0.0,0.0,0.0,0.0,0.0,0.0,0.0,0.0,0.0,0.0,0.0,0.0,0.0,0.0,0.0,0.0,0.0,0.0,0.0,0.0,0.0,0.0,0.0,0.0,0.0,0.0,0.0,0.0,0.0,0.0,0.0,0.0,0.0,0.0,-1.5421,-1.5418,-1.4558,-1.3937,0.0,0.0,0.0,0.0,0.0,0.0,0.0,0.0,0.0,0.0,0.0,0.0,0.0,0.0,0.0,0.0,0.0,0.0,0.0,0.0,0.0,0.0,0.0,0.0,0.0,0.0,0.0,0.0,0.0,0.0,0.0,0.0,0.0,0.0,0.0,0.0,0.0,0.0,0.0,0.0,0.0,0.0,0.0,0.0,0.0,0.0,0.0,0.0,0.0,0.0,0.0,0.0,0.0,0.0,0.0,0.0,0.0,0.0,0.0,0.0,0.0,0.0,0.0,0.0,0.0,0.0,0.0,0.0,0.0,0.0,0.0,0.0,0.0,0.0,0.0,0.0,0.0,0.0,0.0,0.0,0.0,0.0,0.0,0.0,0.0,0.0,0.0,0.0,0.0,0.0,0.0,0.0,0.0,0.0,0.0,0.0,0.0,0.0,0.0,0.0,0.0,0.0,0.0,0.0,0.0,0.0,0.0,0.0,0.0,0.0,-1.5422,-1.542,-1.5381,-1.4797,-1.4471,-1.446,0.0,0.0,0.0,0.0,0.0,0.0,0.0,0.0,0.0,0.0,0.0,0.0,0.0,0.0,0.0,0.0,0.0,0.0,0.0,0.0,0.0,0.0,0.0,0.0,0.0,0.0,0.0,0.0,0.0,0.0,0.0,0.0,0.0,0.0,0.0,0.0,0.0,0.0,0.0,0.0,0.0,0.0,0.0,0.0,0.0,0.0,0.0,0.0,0.0,0.0,0.0,0.0,0.0,0.0,0.0,0.0,0.0,0.0,0.0,0.0,0.0,0.0,0.0,0.0,0.0,0.0,0.0,0.0,0.0,0.0,0.0,0.0,0.0,0.0,0.0,0.0,0.0,0.0,0.0,0.0,0.0,0.0,0.0,0.0,0.0,0.0,0.0,0.0,0.0,0.0,0.0,0.0,0.0,0.0,0.0,0.0,0.0,0.0,0.0,0.0,0.0,0.0,0.0,0.0,0.0,0.0,0.0,0.0,-1.5404,-1.5418,-1.5416,-1.5396,-1.5346,-1.5331,0.0,0.0,0.0,0.0,0.0,0.0,0.0,0.0,0.0,0.0,0.0,0.0,0.0,0.0,0.0,0.0,0.0,0.0,0.0,0.0,0.0,0.0,0.0,0.0,0.0,0.0,0.0,0.0,0.0,0.0,0.0,0.0,0.0,0.0,0.0,0.0,0.0,0.0,0.0,0.0,0.0,0.0,0.0,0.0,0.0,0.0,0.0,0.0,0.0,0.0,0.0,0.0,0.0,0.0,0.0,0.0,0.0,0.0,0.0,0.0,0.0,0.0,0.0,0.0,0.0,0.0,0.0,0.0,0.0,0.0,0.0,0.0,0.0,0.0,0.0,0.0,0.0,0.0,0.0,0.0,0.0,0.0,0.0,0.0,0.0,0.0,0.0,0.0,0.0,0.0,0.0,0.0,0.0,0.0,0.0,0.0,0.0,0.0,0.0,0.0,0.0,0.0,0.0,0.0,0.0,0.0,0.0,0.0,0.0,-1.5342,-1.532,-1.5339,-1.5339,-1.5342,-1.5349,0.0,0.0,0.0,0.0,0.0,0.0,0.0,0.0,0.0,0.0,0.0,0.0,0.0,0.0,0.0,0.0,0.0,0.0,0.0,0.0,0.0,0.0,0.0,0.0,0.0,0.0,0.0,0.0,0.0,0.0,0.0,0.0,0.0,0.0,0.0,0.0,0.0,0.0,0.0,0.0,0.0,0.0,0.0,0.0,0.0,0.0,0.0,0.0,0.0,0.0,0.0,0.0,0.0,0.0,0.0,0.0,0.0,0.0,0.0,0.0,0.0,0.0,0.0,0.0,0.0,0.0,0.0,0.0,0.0,0.0,0.0,0.0,0.0,0.0,0.0,0.0,0.0,0.0,0.0,0.0,0.0,0.0,0.0,0.0,0.0,0.0,0.0,0.0,0.0,0.0,0.0,0.0,0.0,0.0,0.0,0.0,0.0,0.0,0.0,0.0,0.0,0.0,0.0,0.0,0.0,0.0,0.0,0.0,0.0,-1.5295,0.0,-1.5292,-1.5288,-1.5295,-1.5326,0.0,0.0,0.0,0.0,0.0,0.0,0.0,0.0,0.0,0.0,0.0,0.0,0.0,0.0,0.0,0.0,0.0,0.0,0.0,0.0,0.0,0.0,0.0,0.0,0.0,0.0,0.0,0.0,0.0,0.0,0.0,0.0,0.0,0.0,0.0,0.0,0.0,0.0,0.0,0.0,0.0,0.0,0.0,0.0,0.0,0.0,0.0,0.0,0.0,0.0,0.0,0.0,0.0,0.0,0.0,0.0,0.0,0.0,0.0,0.0,0.0,0.0,0.0,0.0,0.0,0.0,0.0,0.0,0.0,0.0,0.0,0.0,0.0,0.0,0.0,0.0,0.0,0.0,0.0,0.0,0.0,0.0,0.0,0.0,0.0,0.0,0.0,0.0,0.0,0.0,0.0,0.0,0.0,0.0,0.0,0.0,0.0,0.0,0.0,0.0,0.0,0.0,0.0,0.0,0.0,0.0,0.0,0.0,-1.5323,-1.5283,-1.5293,-1.5289,-1.5284,-1.5287,-1.528,0.0,0.0,0.0,0.0,0.0,0.0,0.0,0.0,0.0,0.0,0.0,0.0,0.0,0.0,0.0,0.0,0.0,0.0,0.0,0.0,0.0,0.0,0.0,0.0,0.0,0.0,0.0,0.0,0.0,0.0,0.0,0.0,0.0,0.0,0.0,0.0,0.0,0.0,0.0,0.0,0.0,0.0,0.0,0.0,0.0,0.0,0.0,0.0,0.0,0.0,0.0,0.0,0.0,0.0,0.0,0.0,0.0,0.0,0.0,0.0,0.0,0.0,0.0,0.0,0.0,0.0,0.0,0.0,0.0,0.0,0.0,0.0,0.0,0.0,0.0,0.0,0.0,0.0,0.0,0.0,0.0,0.0,0.0,0.0,0.0,0.0,0.0,0.0,0.0,0.0,0.0,0.0,0.0,0.0,0.0,0.0,0.0,0.0,0.0,0.0,0.0,0.0,0.0,0.0,0.0,0.0,0.0,0.0,0.0,-1.5313,-1.5293,-1.5293,-1.5298,-1.5299,-1.5292,0.0,0.0,0.0,0.0,0.0,0.0,0.0,0.0,0.0,0.0,0.0,0.0,0.0,0.0,0.0,0.0,0.0,0.0,0.0,0.0,0.0,0.0,0.0,0.0,0.0,0.0,0.0,0.0,0.0,0.0,0.0,0.0,0.0,0.0,0.0,0.0,0.0,0.0,0.0,0.0,0.0,0.0,0.0,0.0,0.0,0.0,0.0,0.0,0.0,0.0,0.0,0.0,0.0,0.0,0.0,0.0,0.0,0.0,0.0,0.0,0.0,0.0,0.0,0.0,0.0,0.0,0.0,0.0,0.0,0.0,0.0,0.0,0.0,0.0,0.0,0.0,0.0,0.0,0.0,0.0,0.0,0.0,0.0,0.0,0.0,0.0,0.0,0.0,0.0,0.0,0.0,0.0,0.0,0.0,0.0,0.0,0.0,0.0,0.0,0.0,0.0,0.0,0.0,0.0,0.0,0.0,0.0,0.0,0.0,-1.6769,-1.6749,-1.6749,-1.6749,-1.6441,-1.6115,-1.58,0.0,0.0,0.0,0.0,0.0,0.0,0.0,0.0,0.0,0.0,0.0,0.0,0.0,0.0,0.0,0.0,0.0,0.0,0.0,0.0,0.0,0.0,0.0,0.0,0.0,0.0,0.0,0.0,0.0,0.0,0.0,0.0,0.0,0.0,0.0,0.0,0.0,0.0,0.0,0.0,0.0,0.0,0.0,0.0,0.0,0.0,0.0,0.0,0.0,0.0,0.0,0.0,0.0,0.0,0.0,0.0,0.0,0.0,0.0,0.0,0.0,0.0,0.0,0.0,0.0,0.0,0.0,0.0,0.0,0.0,0.0,0.0,0.0,0.0,0.0,0.0,0.0,0.0,0.0,0.0,0.0,0.0,0.0,0.0,0.0,0.0,0.0,0.0,0.0,0.0,0.0,0.0,0.0,0.0,0.0,0.0,0.0,0.0,0.0,0.0,0.0,0.0,0.0,0.0,0.0,0.0,0.0,0.0,-1.939,-1.9512,-1.9488,-1.9323,-1.8438,-1.7563,0.0,0.0,0.0,0.0,0.0,0.0,0.0,0.0,0.0,0.0,0.0,0.0,0.0,0.0,0.0,0.0,0.0,0.0,0.0,0.0,0.0,0.0,0.0,0.0,0.0,0.0,0.0,0.0,0.0,0.0,0.0,0.0,0.0,0.0,0.0,0.0,0.0,0.0,0.0,0.0,0.0,0.0,0.0,0.0,0.0,0.0,0.0,0.0,0.0,0.0,0.0,0.0,0.0,0.0,0.0,0.0,0.0,0.0,0.0,0.0,0.0,0.0,0.0,0.0,0.0,0.0,0.0,0.0,0.0,0.0,0.0,0.0,0.0,0.0,0.0,0.0,0.0,0.0,0.0,0.0,0.0,0.0,0.0,0.0,0.0,0.0,0.0,0.0,0.0,0.0,0.0,0.0,0.0,0.0,0.0,0.0,0.0,0.0,0.0,0.0,0.0,0.0,0.0,0.0,0.0,0.0,0.0,0.0,0.0,-2.2025,-2.3285,-2.3028,-2.118,-1.9644,-1.8454,0.0,0.0,0.0,0.0,0.0,0.0,0.0,0.0,0.0,0.0,0.0,0.0,0.0,0.0,0.0,0.0,0.0,0.0,0.0,0.0,0.0,0.0,0.0,0.0,0.0,0.0,0.0,0.0,0.0,0.0,0.0,0.0,0.0,0.0,0.0,0.0,0.0,0.0,0.0,0.0,0.0,0.0,0.0,0.0,0.0,0.0,0.0,0.0,0.0,0.0,0.0,0.0,0.0,0.0,0.0,0.0,0.0,0.0,0.0,0.0,0.0,0.0,0.0,0.0,0.0,0.0,0.0,0.0,0.0,0.0,0.0,0.0,0.0,0.0,0.0,0.0,0.0,0.0,0.0,0.0,0.0,0.0,0.0,0.0,0.0,0.0,0.0,0.0,0.0,0.0,0.0,0.0,0.0,0.0,0.0,0.0,0.0,0.0,0.0,0.0,0.0,0.0,0.0,0.0,0.0,0.0,0.0,0.0,-2.1368,-2.3571,-2.5619,-2.615,-2.5059,-2.2306,-2.0076,0.0,0.0,0.0,0.0,0.0,0.0,0.0,0.0,0.0,0.0,0.0,0.0,0.0,0.0,0.0,0.0,0.0,0.0,0.0,0.0,0.0,0.0,0.0,0.0,0.0,0.0,0.0,0.0,0.0,0.0,0.0,0.0,0.0,0.0,0.0,0.0,0.0,0.0,0.0,0.0,0.0,0.0,0.0,0.0,0.0,0.0,0.0,0.0,0.0,0.0,0.0,0.0,0.0,0.0,0.0,0.0,0.0,0.0,0.0,0.0,0.0,0.0,0.0,0.0,0.0,0.0,0.0,0.0,0.0,0.0,0.0,0.0,0.0,0.0,0.0,0.0,0.0,0.0,0.0,0.0,0.0,0.0,0.0,0.0,0.0,0.0,0.0,0.0,0.0,0.0,0.0,0.0,0.0,0.0,0.0,0.0,0.0,0.0,0.0,0.0,0.0,0.0,0.0,0.0,0.0,0.0,0.0,0.0,-2.2703,-2.4564,-2.6937,-2.8617,-2.9338,-2.5429,-2.204,0.0,0.0,0.0,0.0,0.0,0.0,0.0,0.0,0.0,0.0,0.0,0.0,0.0,0.0,0.0,0.0,0.0,0.0,0.0,0.0,0.0,0.0,0.0,0.0,0.0,0.0,0.0,0.0,0.0,0.0,0.0,0.0,0.0,0.0,0.0,0.0,0.0,0.0,0.0,0.0,0.0,0.0,0.0,0.0,0.0,0.0,0.0,0.0,0.0,0.0,0.0,0.0,0.0,0.0,0.0,0.0,0.0,0.0,0.0,0.0,0.0,0.0,0.0,0.0,0.0,0.0,0.0,0.0,0.0,0.0,0.0,0.0,0.0,0.0,0.0,0.0,0.0,0.0,0.0,0.0,0.0,0.0,0.0,0.0,0.0,0.0,0.0,0.0,0.0,0.0,0.0,0.0,0.0,0.0,0.0,0.0,0.0,0.0,0.0,0.0,0.0,0.0,0.0,0.0,0.0,0.0,0.0,0.0,-2.3287,-2.6266,-2.7561,-2.8617,-2.9455,-2.595,-2.3169,0.0,0.0,0.0,0.0,0.0,0.0,0.0,0.0,0.0,0.0,0.0,0.0,0.0,0.0,0.0,0.0,0.0,0.0,0.0,0.0,0.0,0.0,0.0,0.0,0.0,0.0,0.0,0.0,0.0,0.0,0.0,0.0,0.0,0.0,0.0,0.0,0.0,0.0,0.0,0.0,0.0,0.0,0.0,0.0,0.0,0.0,0.0,0.0,-1.7398,0.0,0.0,0.0,0.0,0.0,0.0,0.0,0.0,0.0,0.0,0.0,0.0,0.0,0.0,0.0,0.0,0.0,0.0,0.0,0.0,0.0,0.0,0.0,0.0,0.0,0.0,0.0,0.0,0.0,0.0,0.0,0.0,0.0,0.0,0.0,0.0,0.0,0.0,0.0,0.0,0.0,0.0,0.0,0.0,0.0,0.0,0.0,0.0,0.0,0.0,0.0,0.0,0.0,0.0,0.0,0.0,0.0,0.0,0.0,-2.3657,-2.6227,-2.7526,-2.8427,-2.8773,-2.671,-2.4336,0.0,0.0,0.0,0.0,0.0,0.0,0.0,0.0,0.0,0.0,0.0,0.0,0.0,0.0,0.0,0.0,0.0,0.0,0.0,0.0,0.0,0.0,0.0,0.0,0.0,0.0,0.0,0.0,0.0,0.0,0.0,0.0,0.0,0.0,0.0,0.0,0.0,0.0,0.0,0.0,0.0,0.0,0.0,0.0,0.0,0.0,0.0,0.0,0.0,0.0,0.0,0.0,0.0,0.0,0.0,0.0,0.0,0.0,0.0,0.0,0.0,0.0,0.0,0.0,0.0,0.0,0.0,0.0,0.0,0.0,0.0,0.0,0.0,0.0,0.0,0.0,0.0,0.0,0.0,0.0,0.0,0.0,0.0,0.0,0.0,0.0,0.0,0.0,0.0,0.0,0.0,0.0,0.0,0.0,0.0,0.0,0.0,0.0,0.0,0.0,0.0,0.0,0.0,0.0,0.0,0.0,0.0,-2.2368,-2.3969,-2.5764,-2.7234,-2.8076,-2.8188,-2.724,-2.5197,-2.2018,0.0,0.0,0.0,0.0,0.0,0.0,0.0,0.0,0.0,0.0,0.0,0.0,0.0,0.0,0.0,0.0,0.0,0.0,0.0,0.0,0.0,0.0,0.0,0.0,0.0,0.0,0.0,0.0,0.0,0.0,0.0,0.0,0.0,0.0,0.0,0.0,0.0,0.0,-1.9323,-2.0054,0.0,0.0,0.0,0.0,0.0,0.0,0.0,0.0,-1.8403,0.0,0.0,0.0,0.0,0.0,0.0,0.0,0.0,0.0,0.0,0.0,0.0,0.0,0.0,0.0,0.0,0.0,0.0,0.0,0.0,0.0,0.0,0.0,0.0,0.0,0.0,0.0,0.0,0.0,0.0,0.0,0.0,0.0,0.0,0.0,0.0,0.0,0.0,0.0,0.0,0.0,0.0,0.0,0.0,0.0,0.0,0.0,0.0,0.0,0.0,0.0,0.0,0.0,0.0,0.0,0.0,-2.2648,-2.2963,-2.4276,-2.6611,-2.6965,-2.7452,-2.8111,-2.6656,-2.4881,-2.2829,0.0,0.0,0.0,0.0,0.0,0.0,0.0,0.0,0.0,0.0,0.0,0.0,0.0,0.0,0.0,0.0,0.0,0.0,0.0,0.0,0.0,0.0,0.0,0.0,0.0,0.0,0.0,0.0,0.0,0.0,0.0,0.0,0.0,0.0,0.0,0.0,0.0,0.0,0.0,-2.0048,-2.0324,0.0,0.0,0.0,0.0,0.0,0.0,0.0,0.0,-2.0153,0.0,0.0,0.0,0.0,0.0,0.0,0.0,0.0,0.0,0.0,0.0,0.0,0.0,0.0,0.0,0.0,0.0,0.0,0.0,0.0,0.0,0.0,0.0,0.0,0.0,0.0,0.0,0.0,0.0,0.0,0.0,0.0,0.0,0.0,0.0,0.0,0.0,0.0,0.0,0.0,0.0,0.0,0.0,0.0,0.0,0.0,0.0,0.0,0.0,0.0,0.0,0.0,0.0,0.0,0.0,-2.3041,-2.3552,-2.4592,-2.6225,-2.6693,-2.6907,-2.6887,-2.6067,-2.4773,0.0,0.0,0.0,0.0,0.0,0.0,0.0,0.0,0.0,0.0,0.0,0.0,0.0,0.0,0.0,0.0,0.0,0.0,0.0,0.0,0.0,0.0,0.0,0.0,0.0,0.0,0.0,0.0,0.0,0.0,0.0,0.0,0.0,0.0,0.0,0.0,0.0,0.0,0.0,0.0,-2.0328,-2.0419,-1.9979,0.0,0.0,0.0,0.0,0.0,0.0,-2.0566,-2.0605,0.0,0.0,0.0,0.0,0.0,0.0,0.0,0.0,0.0,0.0,0.0,0.0,0.0,0.0,0.0,0.0,0.0,0.0,0.0,0.0,0.0,0.0,0.0,0.0,0.0,0.0,0.0,0.0,0.0,0.0,0.0,0.0,0.0,0.0,0.0,0.0,0.0,0.0,0.0,0.0,0.0,0.0,0.0,0.0,0.0,0.0,0.0,0.0,0.0,0.0,0.0,0.0,0.0,0.0,0.0,-2.308,-2.3965,-2.4814,-2.5679,-2.6342,-2.6342,-2.5718,-2.5299,-2.4413,0.0,0.0,0.0,0.0,0.0,0.0,0.0,0.0,0.0,0.0,0.0,0.0,0.0,0.0,0.0,0.0,0.0,0.0,0.0,0.0,0.0,0.0,0.0,0.0,0.0,0.0,0.0,0.0,0.0,0.0,0.0,0.0,0.0,0.0,0.0,0.0,0.0,0.0,0.0,0.0,0.0,-2.0568,-2.0539,-2.0579,0.0,0.0,0.0,0.0,-2.0859,-2.0996,0.0,0.0,0.0,0.0,0.0,0.0,0.0,0.0,0.0,0.0,0.0,0.0,0.0,0.0,0.0,0.0,0.0,0.0,0.0,0.0,0.0,0.0,0.0,0.0,0.0,0.0,0.0,0.0,0.0,0.0,0.0,0.0,0.0,0.0,0.0,0.0,0.0,0.0,0.0,0.0,0.0,0.0,0.0,0.0,0.0,0.0,0.0,0.0,0.0,0.0,0.0,0.0,0.0,0.0,0.0,0.0,-2.3095,-2.3945,-2.4834,-2.564,-2.5796,-2.5796,-2.5679,-2.4132,-2.3176,0.0,0.0,0.0,0.0,0.0,0.0,0.0,0.0,0.0,0.0,0.0,0.0,0.0,0.0,0.0,0.0,0.0,0.0,0.0,0.0,0.0,0.0,0.0,0.0,0.0,0.0,0.0,0.0,0.0,0.0,0.0,0.0,0.0,0.0,0.0,0.0,0.0,0.0,0.0,0.0,0.0,-2.0597,-2.059,-2.0603,-2.0879,0.0,0.0,-2.1758,-2.1758,-2.2343,0.0,0.0,0.0,0.0,0.0,0.0,0.0,0.0,0.0,0.0,0.0,0.0,0.0,0.0,0.0,0.0,0.0,0.0,0.0,0.0,0.0,0.0,0.0,0.0,0.0,0.0,0.0,0.0,0.0,0.0,0.0,0.0,0.0,0.0,0.0,0.0,0.0,0.0,0.0,0.0,0.0,0.0,0.0,0.0,0.0,0.0,0.0,0.0,0.0,0.0,0.0,0.0,0.0,0.0,0.0,-2.273,-2.3139,-2.4436,-2.5325,-2.5679,-2.5699,-2.5699,-2.5699,-2.3932,-2.2965,0.0,0.0,0.0,0.0,0.0,0.0,0.0,0.0,0.0,0.0,0.0,0.0,0.0,0.0,0.0,0.0,0.0,0.0,0.0,0.0,0.0,0.0,0.0,0.0,0.0,0.0,0.0,0.0,0.0,0.0,0.0,0.0,0.0,0.0,0.0,0.0,0.0,0.0,0.0,0.0,0.0,0.0,-2.2027,-2.203,0.0,0.0,0.0,-2.2576,-2.2572,0.0,0.0,0.0,0.0,0.0,0.0,0.0,0.0,0.0,0.0,0.0,0.0,0.0,0.0,0.0,0.0,0.0,0.0,0.0,0.0,0.0,0.0,0.0,0.0,0.0,0.0,0.0,0.0,0.0,0.0,0.0,0.0,0.0,0.0,0.0,0.0,0.0,0.0,0.0,0.0,0.0,0.0,0.0,0.0,0.0,0.0,0.0,0.0,0.0,0.0,0.0,0.0,0.0,0.0,0.0,0.0,0.0,-2.3431,-2.4927,-2.5699,-2.5699,-2.5699,-2.5699,-2.566,-2.4146,0.0,0.0,0.0,0.0,0.0,0.0,0.0,0.0,0.0,0.0,0.0,0.0,0.0,0.0,0.0,0.0,0.0,0.0,0.0,0.0,0.0,0.0,0.0,0.0,0.0,0.0,0.0,-1.4756,0.0,0.0,0.0,0.0,0.0,0.0,0.0,0.0,0.0,0.0,0.0,0.0,0.0,0.0,-2.3183,-2.3398,-2.3242,-2.3183,0.0,0.0,-2.3432,-2.3419,-2.36,-2.3664,0.0,0.0,0.0,0.0,0.0,0.0,0.0,0.0,0.0,0.0,0.0,0.0,0.0,0.0,0.0,0.0,0.0,0.0,0.0,0.0,0.0,0.0,0.0,0.0,0.0,0.0,0.0,0.0,0.0,0.0,0.0,0.0,0.0,0.0,0.0,0.0,0.0,0.0,0.0,0.0,0.0,0.0,0.0,0.0,0.0,0.0,0.0,0.0,0.0,0.0,0.0,0.0,0.0,0.0,-2.3469,-2.4228,-2.5184,-2.5699,-2.5699,-2.5699,-2.5699,-2.5679,-2.4739,-2.38,0.0,0.0,0.0,0.0,0.0,0.0,0.0,0.0,0.0,0.0,0.0,0.0,0.0,0.0,0.0,0.0,0.0,0.0,0.0,0.0,0.0,0.0,0.0,0.0,0.0,0.0,0.0,0.0,0.0,0.0,0.0,0.0,0.0,0.0,0.0,0.0,0.0,0.0,0.0,0.0,0.0,-2.34,-2.4204,-2.3618,-2.3408,0.0,-2.4316,-2.4312,-2.4302,-2.4943,-2.5191,-2.4424,0.0,0.0,0.0,0.0,0.0,0.0,0.0,0.0,0.0,0.0,0.0,0.0,0.0,0.0,0.0,0.0,0.0,0.0,0.0,0.0,0.0,0.0,0.0,0.0,0.0,0.0,0.0,0.0,0.0,0.0,0.0,0.0,0.0,0.0,0.0,0.0,0.0,0.0,0.0,0.0,0.0,0.0,0.0,0.0,0.0,0.0,0.0,0.0,0.0,0.0,0.0,0.0,0.0,-2.399,-2.4306,-2.5204,-2.5699,-2.5699,-2.5699,-2.5699,-2.5699,-2.4797,-2.4116,0.0,0.0,0.0,0.0,0.0,0.0,0.0,0.0,0.0,0.0,0.0,0.0,0.0,0.0,0.0,0.0,0.0,0.0,0.0,0.0,0.0,0.0,0.0,0.0,0.0,0.0,0.0,0.0,-1.9278,-1.9974,-1.9929,0.0,0.0,0.0,0.0,0.0,0.0,0.0,0.0,0.0,0.0,-2.4827,-2.5158,-2.4907,0.0,0.0,-2.5195,-2.5194,-2.5195,-2.5434,-2.552,-2.5233,-2.4726,0.0,0.0,0.0,0.0,0.0,0.0,0.0,0.0,0.0,0.0,0.0,0.0,0.0,0.0,0.0,0.0,0.0,0.0,0.0,0.0,0.0,0.0,0.0,0.0,0.0,0.0,0.0,0.0,0.0,0.0,0.0,0.0,0.0,0.0,0.0,0.0,0.0,0.0,0.0,0.0,0.0,0.0,0.0,0.0,0.0,0.0,0.0,0.0,0.0,0.0,0.0,0.0,-2.4423,-2.4681,-2.536,-2.5699,-2.5699,-2.5699,-2.5699,-2.5679,-2.5059,-2.4564,0.0,0.0,0.0,0.0,0.0,0.0,0.0,0.0,0.0,0.0,0.0,0.0,0.0,0.0,0.0,0.0,0.0,0.0,0.0,0.0,0.0,0.0,0.0,0.0,0.0,0.0,0.0,0.0,-1.991,-2.0425,-2.0383,0.0,0.0,0.0,0.0,0.0,0.0,0.0,0.0,0.0,0.0,-2.5698,-2.5673,-2.5671,-2.5673,-2.5676,-2.5675,-2.5662,-2.5661,-2.5642,-2.5597,-2.5664,0.0,0.0,0.0,0.0,0.0,0.0,0.0,0.0,0.0,0.0,0.0,0.0,0.0,0.0,0.0,0.0,0.0,0.0,0.0,0.0,0.0,0.0,0.0,0.0,0.0,0.0,0.0,0.0,0.0,0.0,-2.0366,0.0,0.0,0.0,0.0,0.0,0.0,0.0,0.0,0.0,0.0,0.0,0.0,0.0,0.0,0.0,0.0,0.0,0.0,0.0,0.0,0.0,0.0,-2.4719,-2.5565,-2.5656,-2.5699,-2.5699,-2.5699,-2.5699,-2.5699,-2.5679,-2.5239,-2.435,0.0,0.0,0.0,0.0,0.0,0.0,0.0,0.0,0.0,0.0,0.0,0.0,0.0,0.0,0.0,0.0,0.0,0.0,0.0,0.0,0.0,0.0,0.0,0.0,0.0,0.0,-1.9111,-1.9806,-2.0302,0.0,0.0,0.0,0.0,0.0,0.0,0.0,0.0,0.0,0.0,-2.5707,-2.5668,-2.5609,-2.56,-2.56,-2.5601,-2.5623,-2.562,-2.5613,-2.5623,-2.5605,0.0,0.0,0.0,0.0,0.0,0.0,0.0,0.0,0.0,0.0,0.0,0.0,0.0,0.0,0.0,0.0,0.0,0.0,0.0,0.0,0.0,0.0,0.0,0.0,0.0,0.0,0.0,-2.3426,-2.3428,0.0,0.0,0.0,0.0,0.0,0.0,0.0,0.0,0.0,0.0,0.0,-2.6914,-2.7498,0.0,0.0,0.0,0.0,0.0,0.0,0.0,0.0,0.0,0.0,0.0,0.0,-2.5299,-2.5595,-2.5671,-2.5699,-2.5699,-2.5699,-2.5699,-2.5699,-2.5699,-2.5531,-2.5182,0.0,0.0,0.0,0.0,0.0,0.0,0.0,0.0,0.0,0.0,0.0,0.0,0.0,0.0,0.0,0.0,0.0,0.0,0.0,0.0,0.0,0.0,0.0,0.0,0.0,-2.1617,0.0,0.0,0.0,0.0,0.0,0.0,0.0,0.0,0.0,0.0,0.0,-2.5288,-2.5609,-2.5639,-2.5644,-2.56,-2.5604,-2.5609,0.0,0.0,0.0,0.0,0.0,0.0,0.0,0.0,0.0,0.0,0.0,0.0,0.0,0.0,-2.5835,-2.3514,-2.3103,-2.329,-2.3854,0.0,0.0,0.0,0.0,0.0,0.0,0.0,0.0,0.0,0.0,0.0,0.0,0.0,0.0,-2.5211,0.0,-2.5213,0.0,0.0,0.0,0.0,0.0,0.0,0.0,0.0,-2.849,-2.9683,-3.0,-3.0559,-3.0812,0.0,-2.9644,-2.8359,0.0,0.0,0.0,0.0,0.0,0.0,0.0,0.0,-2.6058,-2.6062,-2.61,-2.6128,-2.6128,-2.6128,-2.5972,-2.5718,-2.5699,-2.5687,-2.5644,-2.5024,-2.4665,0.0,0.0,0.0,0.0,0.0,0.0,0.0,0.0,0.0,0.0,0.0,0.0,0.0,0.0,0.0,0.0,0.0,0.0,0.0,0.0,0.0,0.0,0.0,-2.2975,0.0,0.0,0.0,0.0,0.0,0.0,0.0,0.0,0.0,-2.4269,-2.504,-2.5605,-2.56,-2.5605,-2.5701,-2.599,0.0,0.0,0.0,0.0,0.0,0.0,0.0,-2.666,-2.6131,-2.6074,-2.6401,-2.727,-2.7906,-2.8285,-2.8226,0.0,0.0,-2.533,-2.4879,-2.5059,-2.5625,-2.5723,-2.5878,-2.6385,-2.6506,-2.652,0.0,0.0,0.0,0.0,0.0,0.0,0.0,0.0,-2.7268,-2.7283,0.0,-2.7162,0.0,0.0,0.0,0.0,0.0,-2.7493,0.0,0.0,-3.1398,-3.2649,-3.3379,-3.3412,-3.3412,-3.3276,-3.1635,-3.0447,-2.9601,-2.8744,0.0,0.0,0.0,0.0,0.0,0.0,-2.6933,-2.6889,-2.6918,-2.6926,-2.6887,-2.6868,-2.6517,-2.5738,-2.5699,-2.5699,-2.5699,-2.5625,-2.5554,-2.5543,-2.5468,0.0,0.0,0.0,0.0,0.0,0.0,0.0,0.0,0.0,0.0,0.0,0.0,0.0,0.0,0.0,0.0,0.0,0.0,0.0,0.0,-2.2369,0.0,0.0,0.0,0.0,0.0,0.0,0.0,0.0,0.0,0.0,-2.4426,-2.5141,-2.5643,-2.5664,0.0,0.0,0.0,0.0,-2.7136,-2.7949,-2.8117,-2.8124,-2.8087,-2.7465,-2.7002,-2.6932,0.0,0.0,-2.8103,-2.8344,-2.8424,-2.8385,-2.8406,-2.8298,-2.8335,-2.8104,-2.8049,-2.8088,-2.8018,-2.8155,-2.817,-2.8026,-2.8054,-3.4928,0.0,0.0,0.0,0.0,-3.1271,-3.2231,-3.3322,-3.3336,-3.2981,-3.2308,-3.1076,0.0,0.0,0.0,0.0,0.0,0.0,-3.0773,-3.2283,-3.4002,-3.5254,-3.6078,-3.6078,-3.5747,-3.5124,-3.4013,-3.3078,-3.226,-3.1408,-3.0039,-2.8218,0.0,0.0,0.0,0.0,-2.7537,-2.6967,-2.7507,-2.753,-2.6926,-2.6887,-2.6517,-2.5718,-2.5699,-2.5699,-2.5699,-2.5691,-2.5921,-2.6473,-2.6469,0.0,0.0,0.0,0.0,0.0,0.0,0.0,0.0,0.0,0.0,0.0,0.0,0.0,0.0,0.0,0.0,0.0,0.0,0.0,-2.3272,-2.363,-2.3844,0.0,0.0,0.0,0.0,0.0,0.0,0.0,0.0,0.0,-2.6961,-2.667,-2.645,0.0,0.0,-2.7399,-2.769,-2.7731,-2.7835,-2.8143,-2.865,0.0,-2.8262,-2.8451,-2.8476,-2.7909,-2.8371,-2.8914,-2.9168,-2.9689,-3.0074,-3.0074,-3.0081,-3.0064,-3.0027,-2.9023,-2.8289,-2.8207,-2.8203,-2.8193,-2.8208,-2.8168,-2.8152,-3.9614,-3.6793,-3.4714,-3.4164,-3.4679,-3.5201,-3.6001,-3.6957,-3.6928,-3.6626,-3.6075,-3.4686,-3.3312,-3.1991,-3.112,0.0,0.0,0.0,-3.3515,-3.4923,-3.6287,-3.7397,-3.8188,-3.8246,-3.7779,-3.6902,-3.5694,-3.4681,-3.3843,-3.301,-3.1817,-3.0297,0.0,0.0,-2.7989,-2.8457,-2.8612,-2.8467,-2.8632,-2.8621,-2.8446,-2.7784,-2.718,-2.6712,-2.6693,-2.6693,-2.6693,-2.6712,-2.6894,-2.7381,-2.7385,-2.7343,0.0,0.0,0.0,0.0,0.0,0.0,0.0,0.0,0.0,0.0,0.0,-2.4184,-2.3794,0.0,0.0,0.0,-2.4426,-2.449,-2.4631,-2.4636,0.0,0.0,0.0,0.0,0.0,0.0,0.0,-2.6323,-2.7301,-2.8039,-2.8074,-2.7937,-2.7724,-2.7398,-2.7777,-2.8196,-2.8565,0.0,-2.8779,-2.9138,-2.9599,-2.9761,-2.9303,-2.9338,-2.9284,-2.8821,-2.9191,-2.9728,-3.006,-3.0489,-3.0782,-3.0801,-3.0801,-3.0801,-3.0801,-2.9918,-2.9218,-2.9235,-2.9238,-2.9218,-2.9214,-2.9215,-2.9168,-4.3489,-4.2513,-4.0118,-3.9002,-3.8814,-3.8873,-3.8974,-3.9097,-3.9045,-3.8974,-3.8833,-3.7922,-3.6977,-3.605,-3.5251,0.0,-3.504,-3.585,-3.6693,-3.7525,-3.8344,-3.9123,-3.9883,-3.9883,-3.9435,-3.8558,-3.6883,-3.5655,-3.4817,-3.3921,-3.3492,-3.3439,-3.1826,-3.0564,-2.9755,-2.9766,-3.0166,-3.0886,-3.0117,-3.002,-3.0643,-2.905,-2.8188,-2.8188,-2.8188,-2.8188,-2.8188,-2.8188,-2.8247,-2.8286,-2.8242,-2.8215,-2.821,0.0,0.0,0.0,0.0,0.0,0.0,0.0,0.0,0.0,0.0,0.0,0.0,0.0,0.0,0.0,-2.6916,0.0,-2.5764,-2.558,0.0,0.0,0.0,-2.6841,-2.7701,-2.7865,-2.7919,-2.7989,0.0,0.0,-2.8307,-2.9011,-2.9227,-2.8505,-2.8394,-2.8679,-2.9408,-2.9574,-2.9869,-3.05,-3.0686,-3.0721,-3.0594,-3.0104,-2.9689,-2.9684,-2.9689,-2.9982,-3.0587,-3.0782,-3.0801,-3.0801,-3.0801,-3.0801,-3.0801,-3.0723,-3.0788,-3.0702,-3.0719,-3.0745,-3.0667,-3.0643,-3.0612,-4.6183,-4.5324,-4.4715,-4.329,-4.1534,-4.219,-4.285,-4.3455,-4.3407,-4.3032,-4.2368,-4.0851,-3.9325,-3.7869,-3.7664,-3.7946,-3.8572,-3.8792,-3.9357,-4.0175,-4.039,-4.0604,-4.0799,-4.0799,-4.0331,-3.9454,-3.8402,-3.7428,-3.6532,-3.5051,-3.4311,-3.4252,-3.3298,-3.2338,-3.1534,-3.2094,-3.2191,-3.1797,-3.1583,-3.094,-2.9829,-2.8753,-2.8188,-2.8188,-2.8188,-2.8188,-2.8188,-2.8188,-2.85,-2.9143,-2.9177,-2.9143,-2.909,-2.8962,0.0,0.0,0.0,0.0,0.0,0.0,0.0,0.0,0.0,-2.6787,-2.7195,0.0,-2.769,0.0,-2.776,-2.7666,-2.7357,-2.7294,0.0,0.0,-2.7479,-2.7546,-2.7776,-2.8443,-2.8846,-2.8828,-2.9483,-2.9989,-3.0009,-3.0225,-3.035,-3.0201,-3.0131,-3.0185,-3.0364,-3.0448,-3.0544,-3.0724,-3.0778,-3.0788,-3.0788,-3.0638,-3.0484,-3.0509,-3.0509,-3.0587,-3.0762,-3.0801,-3.0801,-3.0801,-3.0801,-3.0801,-3.0801,-3.0801,-3.0801,-3.079,-3.08,-3.08,-3.08,-3.0793,-3.0794,-4.7647,-4.6885,-4.6885,-4.5812,-4.4192,-4.4637,-4.5137,-4.5562,-4.5509,-4.5231,-4.4718,-4.3373,-4.2042,-4.0803,-4.0764,-4.1025,-4.1461,-4.1487,-4.176,-4.2202,-4.2202,-4.2221,-4.2202,-4.1831,-4.1208,-4.037,-3.9493,-3.8636,-3.7759,-3.6805,-3.6317,-3.6317,-3.5519,-3.4856,-3.4369,-3.3682,-3.3292,-3.3225,-3.32,-3.2382,-3.0726,-3.018,-2.9747,-2.9343,-2.9313,-2.9308,-2.9271,-2.924,-2.9447,-2.9914,-2.9933,-2.992,-2.988,-2.9821,-2.9545,0.0,0.0,0.0,0.0,0.0,0.0,0.0,0.0,0.0,0.0,0.0,-2.8996,-2.8656,-2.9038,-2.9091,-2.8598,-2.8846,-2.9226,-2.9612,-2.9583,-2.9726,-3.0253,-3.0699,-3.0989,-3.1009,-3.1164,-3.1261,-3.1261,-3.0953,-3.0901,-3.132,-3.1348,-3.1178,-3.0823,-3.0778,-3.079,-3.0798,-3.0791,-3.0801,-3.0801,-3.0801,-3.0801,-3.0801,-3.0801,-3.0801,-3.0801,-3.0801,-3.0801,-3.0801,-3.0801,-3.0801,-3.0801,-3.0801,-3.0801,-3.0801,-3.079,-3.0796,-3.0797,-3.08,-3.0779,-4.8486,-4.778,-4.776,-4.7233,-4.6452,-4.6472,-4.639,-4.6308,-4.6236,-4.6201,-4.615,-4.5391,-4.4644,-4.3936,-4.3949,-4.3929,-4.3936,-4.3949,-4.3871,-4.376,-4.3773,-4.3695,-4.3578,-4.2818,-4.2098,-4.1403,-4.0429,-3.9571,-3.885,-3.8597,-3.8519,-3.8461,-3.7623,-3.7194,-3.7097,-3.4895,-3.4018,-3.4603,-3.4603,-3.3843,-3.2304,-3.226,-3.1855,-3.1067,-3.1028,-3.0982,-3.0925,-3.0864,-3.0828,-3.0817,-3.0828,-3.0828,-3.0845,-3.083,-3.08,0.0,-3.0698,0.0,0.0,0.0,0.0,0.0,0.0,0.0,0.0,-3.0501,-3.061,-2.9913,-3.058,-3.0736,-2.9911,-3.0432,-3.1167,-3.1984,-3.1961,-3.2261,-3.3174,-3.3215,-3.3211,-3.331,-3.2661,-3.2199,-3.216,-3.1529,-3.1427,-3.2104,-3.2244,-3.2026,-3.1343,-3.1102,-3.0993,-3.0837,-3.0791,-3.0799,-3.0799,-3.0799,-3.0801,-3.0801,-3.0801,-3.0801,-3.0801,-3.0801,-3.0801,-3.0801,-3.0801,-3.0801,-3.0801,-3.0801,-3.0801,-3.0801,-3.0801,-3.0804,-3.0784,-3.0784,-3.0788,-4.9356,-4.8586,-4.8567,-4.8074,-4.7265,-4.7265,-4.6908,-4.6296,-4.6308,-4.6255,-4.6181,-4.6033,-4.5845,-4.5709,-4.5722,-4.5715,-4.5709,-4.5715,-4.5345,-4.4656,-4.4656,-4.4267,-4.3617,-4.3448,-4.3293,-4.3033,-4.1578,-4.076,-4.0584,-3.9182,-3.8519,-3.848,-3.7642,-3.7194,-3.7155,0.0,0.0,0.0,-3.4612,-3.4119,-3.3126,-3.3077,-3.2972,-3.273,-3.2707,0.0,-3.2629,-3.2619,-3.257,-3.2538,-3.2522,0.0,0.0,0.0,0.0,0.0,0.0,0.0,0.0,0.0,0.0,0.0,-3.2355,-3.2251,-3.2307,-3.2415,-3.2432,-3.2323,-3.2439,-3.2447,-3.227,-3.2362,-3.2517,-3.2706,-3.2706,-3.2784,-3.2979,-3.3001,-3.2943,-3.2909,-3.2825,-3.2752,-3.2743,-3.2721,-3.2778,-3.2953,-3.3095,-3.3088,-3.2927,-3.2283,-3.1597,-3.0973,-3.0924,-3.0833,-3.0794,-3.0858,-3.0958,-3.0801,-3.0801,-3.0841,-3.088,-3.0841,-3.0821,-3.086,-3.0801,-3.0841,-3.0841,-3.0801,-3.0841,-3.0801,-3.0801,-3.0801,-3.0801,-3.0801,-3.0788,-5.0239,-4.945,-4.943,-4.8942,0.0,-4.7708,-4.7303,-4.6878,-4.6431,-4.624,-4.6203,-4.6196,-4.6209,-4.6209,-4.6203,-4.6196,-4.6196,-4.6196,-4.5962,-4.5553,-4.5533,-4.5299,-4.4871,-4.4462,-4.4247,-4.4208,-4.2942,-4.2338,-4.2299,-4.1461,-4.0799,-4.037,-3.9532,-3.8909,-3.848,-3.7603,-3.6532,-3.5246,-3.524,-3.4806,-3.3988,-3.3952,-3.3719,-3.3276,-3.3195,0.0,0.0,0.0,0.0,0.0,0.0,0.0,0.0,-3.2937,0.0,-3.2952,-3.2956,-3.3133,-3.3506,-3.3585,-3.377,-3.4152,-3.4174,-3.3847,-3.3084,-3.2979,-3.2983,-3.3102,-3.339,-3.3611,-3.3639,-3.3959,-3.4205,-3.4222,-3.4149,-3.411,-3.4198,-3.4173,-3.4147,-3.4115,-3.3836,-3.3589,-3.3577,-3.3258,-3.3304,-3.3664,-3.3805,-3.3837,-3.3767,-3.3198,-3.2545,-3.2147,-3.2079,-3.2085,-3.2085,-3.2087,-3.207,-3.207,-3.1738,-3.166,-3.2012,-3.1719,-3.1563,-3.1951,-3.209,-3.209,-3.2051,-3.1758,-3.1446,-3.1387,-3.1094,-3.0821,-3.0801,-3.0801,-3.0784,-5.098,-5.0332,-5.0332,-4.9805,-4.8942,-4.8298,-4.7825,-4.744,0.0,0.0,0.0,-4.6196,-4.6196,-4.6196,-4.6196,-4.6196,-4.6196,-4.6196,-4.6196,-4.6196,-4.6196,-4.6196,-4.6176,-4.5455,-4.5144,-4.5085,-4.4247,-4.3838,-4.3812,-4.3676,-4.3227,-4.2533,-4.1714,-4.0818,-3.9805,-3.8928,-3.7792,-3.6378,-3.6214,-3.5791,-3.509,-3.4909,-3.4458,-3.3711,-3.3613,-3.3509,-3.3412,-3.3333,-3.324,-3.323,-3.323,-3.3225,-3.325,-3.3245,-3.3273,-3.33,-3.3434,-3.3859,-3.4597,-3.4795,-3.5186,-3.596,-3.5944,-3.5191,-3.3585,-3.3442,-3.3492,-3.3596,-3.4158,-3.4525,-3.4554,-3.5106,-3.5514,-3.5531,-3.5393,-3.5361,-3.5495,-3.547,-3.532,-3.5425,-3.4839,-3.4465,-3.4415,-3.3898,-3.3669,-3.4306,-3.4533,-3.4533,-3.4429,-3.3813,-3.3259,-3.3195,-3.3119,-3.3292,-3.3353,-3.3295,-3.3395,-3.3219,-3.2734,-3.2636,-3.3085,-3.2812,-3.2675,-3.3124,-3.3378,-3.3319,-3.3319,-3.2792,-3.2285,-3.2109,-3.1543,-3.0977,-3.0841,-3.0801,-3.0801,-5.1342,-5.1224,-5.1224,-5.068,-4.9815,-4.9698,-4.884,-4.7457,-4.6573,-4.6216,-4.6196,-4.6196,-4.6196,-4.6196,-4.6196,-4.6196,-4.6196,-4.6196,-4.6196,-4.6196,-4.6196,-4.6196,-4.6176,-4.6079,-4.602,-4.5942,-4.5124,-4.4715,-4.4637,-4.3975,-4.352,-4.3344,-4.2546,-4.1357,-3.9864,-3.8928,-3.8312,-3.7972,-3.7345,-3.6943,-3.6826,-3.606,-3.5527,-3.5281,-3.5301,-3.5209,-3.499,-3.5056,-3.5042,-3.4882,-3.4866,-3.4921,-3.5014,-3.5026,-3.5066,-3.5234,-3.5852,-3.626,-3.635,-3.7042,-3.7507,-3.7559,-3.7463,-3.6776,-3.5392,-3.5181,-3.5141,-3.5103,-3.5245,-3.529,-3.5215,-3.5311,-3.5388,-3.534,-3.5345,-3.533,-3.535,-3.5331,-3.5283,-3.527,-3.5159,-3.504,-3.5013,-3.4985,-3.4937,-3.5194,-3.5186,-3.5364,-3.5093,-3.4147,-3.332,-3.3245,-3.3321,-3.3379,-3.3567,-3.3422,-3.3545,-3.3395,-3.3358,-3.3297,-3.3573,-3.3398,-3.3339,-3.3417,-3.3573,-3.3554,-3.3515,-3.3339,-3.2968,-3.2441,-3.209,-3.1719,-3.1075,-3.086,-3.0801,-5.2796,-5.2701,-5.2252,-5.1811,-5.1349,-5.0446,-4.9347,-4.8217,-4.7788,-4.708,-4.6274,-4.6683,-4.6644,-4.6254,-4.6702,-4.6644,-4.6196,-4.6196,-4.6196,-4.6196,-4.6196,-4.6196,-4.6196,-4.6196,-4.6196,-4.6157,-4.5806,-4.5611,-4.5572,-4.5183,-4.4773,-4.4286,-4.3347,-4.2505,-4.1738,-4.081,-4.0334,-4.0223,-3.8169,-3.7047,-3.6968,-3.6134,-3.565,-3.5607,-3.601,-3.6196,-3.607,-3.6477,-3.6645,-3.6566,-3.6566,-3.6578,-3.6635,-3.6638,-3.6673,-3.6767,-3.7074,-3.7275,-3.7248,-3.7613,-3.7851,-3.7849,-3.7789,-3.7507,-3.692,-3.6761,-3.6504,-3.6098,-3.6044,-3.5837,-3.5362,-3.5304,-3.5289,-3.5254,-3.5239,-3.5258,-3.5242,-3.5264,-3.5229,-3.5209,-3.519,-3.519,-3.519,-3.5235,-3.5281,-3.5296,-3.5336,-3.5397,-3.5378,-3.4846,-3.4399,-3.4506,-3.4593,-3.4689,-3.4681,-3.4772,-3.4788,-3.4794,-3.4404,-3.4348,-3.4605,-3.451,-3.4334,-3.4705,-3.4781,-3.482,-3.4781,-3.4393,-3.3964,-3.3651,-3.3066,-3.2519,-3.1758,-3.1172,-3.0821,-5.385,-5.3559,-5.2916,-5.25,-5.2181,-5.0725,-4.9685,-4.9081,-4.8892,-4.8047,-4.6956,-4.7306,-4.7209,-4.6878,-4.7287,-4.7228,-4.68,-4.6566,-4.6488,-4.6468,-4.6293,-4.6196,-4.6196,-4.6196,-4.6196,-4.6196,-4.6196,-4.6169,-4.6154,-4.6189,-4.5857,-4.5114,-4.4142,-4.3643,-4.3643,-4.2473,-4.1886,-4.1685,-3.898,-3.7471,-3.7356,-3.6582,-3.6137,-3.6161,-3.6685,-3.6983,-3.6968,-3.745,-3.7728,-3.7693,-3.7693,-3.7693,-3.7693,-3.7693,-3.7693,-3.7712,-3.7884,-3.8075,-3.8266,-3.8284,-3.8304,-3.8347,-3.8346,-3.8398,-3.8429,-3.8359,-3.7881,-3.7048,-3.6824,-3.6578,-3.6058,-3.587,-3.578,-3.5761,-3.578,-3.5859,-3.5783,-3.5783,-3.5763,-3.5783,-3.5763,-3.5744,-3.5553,-3.5496,-3.5439,-3.5267,-3.519,-3.519,-3.5207,-3.5296,-3.5405,-3.5492,-3.5659,-3.5655,-3.576,-3.5788,-3.5827,-3.5942,-3.5405,-3.5295,-3.5617,-3.5349,-3.5232,-3.574,-3.5932,-3.5854,-3.5896,-3.5467,-3.492,-3.4588,-3.4042,-3.3417,-3.2578,-3.1738,-3.1036,-5.3572,-5.286,-5.2804,-5.2175,-5.1406,-5.0424,-4.9976,-4.98,-4.9138,-4.8729,-4.8514,-4.7832,-4.793,-4.8397,-4.7832,-4.7871,-4.8358,-4.7735,-4.7326,-4.7209,-4.6546,-4.6196,-4.6196,-4.6196,-4.6196,-4.6196,-4.6189,-4.613,-4.6027,-4.6119,-4.608,-4.5823,-4.4885,-4.4382,-4.4227,-4.275,-4.187,-4.1697,-3.9923,-3.905,-3.9115,-3.8322,-3.7816,-3.768,-3.7848,-3.7852,-3.7649,-3.7785,-3.7843,-3.771,-3.775,-3.7712,-3.7731,-3.7712,-3.7712,-3.7769,-3.8438,-3.9202,-3.9947,-4.0062,-4.0005,-4.0062,-3.9986,-3.9986,-4.0004,-4.0024,-3.9354,-3.8125,-3.7775,-3.7644,-3.7515,-3.7439,-3.7362,-3.7233,-3.7307,-3.7479,-3.7349,-3.7484,-3.7448,-3.7464,-3.7273,-3.7196,-3.6509,-3.6358,-3.6088,-3.5553,-3.54,-3.5362,-3.5343,-3.5245,-3.5239,-3.5296,-3.5457,-3.5609,-3.5621,-3.567,-3.5776,-3.5801,-3.5805,-3.5792,-3.5857,-3.591,-3.5932,-3.5874,-3.601,-3.601,-3.601,-3.5874,-3.5564,-3.5018,-3.4627,-3.4256,-3.3437,-3.2519,-3.1758,-5.5262,-5.4899,-5.439,-5.3362,-5.2041,-5.1145,-5.0774,-5.0735,-5.0424,-5.0287,-5.0151,-4.9372,-4.8904,-4.8806,-4.8923,-4.867,-4.8027,-4.7657,-4.7209,-4.6741,-4.6352,-4.6196,-4.6196,-4.6111,-4.6084,-4.6056,-4.5968,-4.5863,-4.5847,-4.5883,-4.5883,-4.5783,-4.5317,-4.5089,-4.4993,-4.3799,-4.3116,-4.3005,-4.1396,-4.0605,-4.0425,-3.8812,-3.784,-3.7849,-3.8319,-3.8591,-3.8532,-3.9006,-3.9293,-3.924,-3.9221,-3.924,-3.924,-3.924,-3.924,-3.926,-3.9565,-3.9928,-4.0291,-4.0329,-4.0329,-4.0329,-4.0329,-4.0329,-4.0329,-4.0329,-3.9966,-3.9392,-3.8818,-3.8339,-3.7825,-3.7728,-3.7729,-3.7715,-3.7695,-3.7712,-3.7693,-3.7714,-3.7677,-3.7693,-3.7693,-3.7617,-3.7311,-3.7215,-3.7063,-3.6642,-3.6317,-3.5993,-3.5954,-3.5553,-3.5209,-3.5207,-3.5296,-3.5378,-3.5463,-3.5568,-3.5641,-3.5668,-3.5693,-3.5753,-3.585,-3.587,-3.5899,-3.5968,-3.5991,-3.601,-3.601,-3.5991,-3.5815,-3.5389,-3.492,-3.4569,-3.4215,-3.3066,-3.209,-5.6361,-5.6035,-5.5213,-5.397,-5.2567,-5.1924,-5.1515,-5.13,-5.13,-5.13,-5.1242,-5.0618,-5.0053,-4.9586,-4.9878,-4.9403,-4.8541,-4.8241,-4.7629,-4.6813,-4.6551,-4.6298,-4.6084,-4.5977,-4.5914,-4.5902,-4.5757,-4.5684,-4.567,-4.56,-4.5619,-4.5615,-4.5507,-4.5456,-4.5342,-4.4479,-4.4017,-4.3864,-4.2565,-4.1839,-4.1609,-4.0043,-3.8877,-3.8534,-3.9011,-3.9374,-3.9393,-3.9986,-4.0425,-4.0616,-4.0616,-4.075,-4.0979,-4.0979,-4.0979,-4.096,-4.075,-4.075,-4.0941,-4.075,-4.0616,-4.0616,-4.0463,-4.0329,-4.0329,-4.0329,-4.0329,-4.0215,-3.9718,-3.9069,-3.8572,-3.84,-3.8402,-3.8422,-3.8422,-3.8401,-3.8457,-3.842,-3.8477,-3.8419,-3.8572,-3.8304,-3.8094,-3.7846,-3.7597,-3.7521,-3.7158,-3.6833,-3.6776,-3.6337,-3.5954,-3.5897,-3.5916,-3.5736,-3.5475,-3.5451,-3.5512,-3.5549,-3.5579,-3.5621,-3.5733,-3.5762,-3.5813,-3.5899,-3.5978,-3.601,-3.601,-3.5991,-3.5991,-3.5876,-3.5506,-3.5057,-3.5054,-3.3749,-3.3066,-5.6036,-5.5211,-5.4339,-5.3479,-5.2606,-5.2489,-5.2041,-5.13,-5.13,-5.13,-5.13,-5.1215,-5.1203,-5.1039,-5.0349,-5.0334,-5.0681,-4.9901,-4.9006,-4.8081,-4.7337,-4.653,-4.5769,-4.5717,-4.5736,-4.5833,-4.5694,-4.5675,-4.5675,-4.5437,-4.5381,-4.549,-4.5381,-4.5298,-4.5223,-4.4515,-4.4036,-4.3997,-4.3195,-4.2756,-4.2717,-4.2545,-4.1609,-4.0348,-4.0253,-4.031,-4.031,-4.031,-4.0673,-4.1418,-4.1437,-4.18,-4.2526,-4.2603,-4.2565,-4.2526,-4.1877,-4.182,-4.2374,-4.1877,-4.1457,-4.138,-4.0864,-4.0387,-4.0559,-4.0559,-4.0559,-4.0368,-4.0444,-4.0272,-4.0196,-3.9966,-3.9986,-4.0005,-4.0081,-4.0081,-4.01,-3.9928,-4.0177,-4.0081,-3.9966,-3.9642,-3.9011,-3.8209,-3.796,-3.7884,-3.7731,-3.7655,-3.7617,-3.7559,-3.7406,-3.7368,-3.7292,-3.7024,-3.5646,-3.5511,-3.5508,-3.5405,-3.5451,-3.5523,-3.5621,-3.5702,-3.5774,-3.5839,-3.5919,-3.5978,-3.6007,-3.601,-3.601,-3.5971,-3.5952,-3.5757,-3.562,-3.5096,-3.4413,-5.6301,-5.5903,-5.4492,-5.3705,-5.3327,-5.2255,-5.1573,-5.132,-5.13,-5.13,-5.1292,-5.122,-5.1171,-5.1141,-5.0705,-5.0409,-5.0227,-4.9802,-4.9137,-4.8338,-4.7955,-4.7661,-4.7337,-4.6738,-4.6384,-4.6326,-4.576,-4.5437,-4.5438,-4.5341,-4.5338,-4.5361,-4.5319,-4.5277,-4.5239,-4.4991,-4.4838,-4.4743,-4.3997,-4.3577,-4.352,-4.3061,-4.2469,-4.1972,-4.1915,-4.1896,-4.1896,-4.1915,-4.203,-4.2316,-4.2316,-4.2469,-4.2737,-4.2794,-4.2794,-4.2756,-4.2507,-4.2469,-4.2698,-4.2507,-4.2335,-4.2316,-4.2086,-4.1838,-4.1915,-4.1896,-4.1896,-4.1877,-4.1877,-4.1896,-4.1667,-4.096,-4.0329,-4.0329,-4.0329,-4.0387,-4.0329,-4.0329,-4.0329,-4.0329,-4.0329,-4.0157,-3.9871,-3.9546,-3.9374,-3.9317,-3.8897,-3.8591,-3.8438,-3.8094,-3.7789,-3.7712,-3.7674,-3.7502,-3.7043,-3.6337,-3.5985,-3.5515,-3.5326,-3.5457,-3.555,-3.557,-3.5631,-3.5827,-3.5919,-3.5947,-3.5978,-3.601,-3.601,-3.601,-3.601,-3.601,-3.601,-3.5389,-3.4959,-5.65,-5.6308,-5.5217,-5.4574,-5.4145,-5.2762,-5.1982,-5.171,-5.1417,-5.13,-5.1265,-5.115,-5.1086,-5.1049,-5.0844,-5.0507,-5.0076,-4.9892,-4.9384,-4.8619,-4.8563,-4.8409,-4.8044,-4.7434,-4.6973,-4.659,-4.5762,-4.5392,-4.5621,-4.5411,-4.5297,-4.5297,-4.5277,-4.5277,-4.5277,-4.5277,-4.5277,-4.5163,-4.4704,-4.4418,-4.436,-4.3902,-4.3615,-4.3596,-4.3596,-4.3329,-4.2832,-4.2794,-4.2947,-4.3157,-4.3195,-4.331,-4.3558,-4.3329,-4.3329,-4.3539,-4.3329,-4.3329,-4.352,-4.3366,-4.3175,-4.3157,-4.2908,-4.2793,-4.2794,-4.2794,-4.2794,-4.2794,-4.2794,-4.2794,-4.2604,-4.1762,-4.1113,-4.1113,-4.1113,-4.1113,-4.1113,-4.0883,-4.0597,-4.0368,-4.0329,-4.031,-4.0329,-4.031,-4.0253,-4.0329,-3.9756,-3.9451,-3.9317,-3.8973,-3.8553,-3.8553,-3.8667,-3.8514,-3.8132,-3.7655,-3.7139,-3.6619,-3.5867,-3.5806,-3.5674,-3.5624,-3.5588,-3.5776,-3.5878,-3.5929,-3.597,-3.6007,-3.601,-3.601,-3.601,-3.601,-3.5854,-3.5603,-3.533,-5.6483,-5.6464,-5.6464,-5.5782,-5.5002,-5.4048,-5.3327,-5.2547,-5.1729,-5.1456,-5.1468,-5.12,-5.1144,-5.1114,-5.0921,-5.0645,-5.0644,-5.0625,-5.0083,-4.9226,-4.9146,-4.8723,-4.8073,-4.7939,-4.7382,-4.6674,-4.5774,-4.5793,-4.6328,-4.5755,-4.5411,-4.5316,-4.5277,-4.5277,-4.5277,-4.5277,-4.5277,-4.5258,-4.5201,-4.522,-4.5277,-4.5105,-4.5048,-4.5125,-4.5105,-4.4418,-4.3004,-4.2947,-4.3329,-4.394,-4.4017,-4.4437,-4.4876,-4.4437,-4.436,-4.4838,-4.4456,-4.4475,-4.4972,-4.4437,-4.4015,-4.394,-4.3348,-4.308,-4.3138,-4.308,-4.3061,-4.31,-4.3061,-4.2966,-4.3022,-4.2869,-4.2717,-4.2756,-4.2507,-4.2488,-4.245,-4.1991,-4.1227,-4.0673,-4.0578,-4.0387,-4.0387,-4.0463,-4.0501,-4.0463,-4.0272,-4.0138,-4.01,-3.9966,-4.0177,-4.0157,-3.9871,-3.9489,-3.924,-3.8954,-3.8438,-3.7902,-3.7022,-3.6514,-3.6219,-3.6092,-3.5794,-3.5862,-3.5872,-3.5929,-3.5978,-3.601,-3.601,-3.601,-3.601,-3.601,-3.5874,-3.5759,-3.5837,-5.6483,-5.6405,-5.586,-5.547,-5.51,-5.4281,-5.3736,-5.3424,-5.2567,-5.2216,-5.2063,-5.1422,-5.1416,-5.1819,-5.1619,-5.1452,-5.1471,-5.1327,-5.0792,-5.0034,-4.992,-4.9748,-4.9442,-4.8926,-4.822,-4.7494,-4.715,-4.6806,-4.6538,-4.6271,-4.5889,-4.5392,-4.5316,-4.5277,-4.5316,-4.5277,-4.5277,-4.5277,-4.5277,-4.5277,-4.5277,-4.5277,-4.5277,-4.5277,-4.5277,-4.4991,-4.4551,-4.4513,-4.4647,-4.4876,-4.4895,-4.5029,-4.5182,-4.5048,-4.501,-4.5201,-4.5067,-4.4972,-4.5201,-4.5048,-4.4857,-4.4838,-4.4609,-4.4532,-4.4513,-4.4456,-4.4437,-4.4456,-4.4513,-4.4532,-4.4513,-4.4513,-4.4036,-4.2927,-4.2774,-4.287,-4.2851,-4.2584,-4.2335,-4.2106,-4.2011,-4.2011,-4.1877,-4.159,-4.1113,-4.1017,-4.0673,-4.0368,-4.0329,-4.0329,-4.031,-4.031,-4.0272,-4.0253,-3.989,-3.9642,-3.9393,-3.882,-3.8035,-3.736,-3.6995,-3.6603,-3.6272,-3.6028,-3.6015,-3.5982,-3.6033,-3.6007,-3.601,-3.601,-3.601,-3.601,-3.601,-3.601,-3.601,-5.6483,-5.6425,-5.5899,-5.5684,-5.5587,-5.4749,-5.4398,-5.4242,-5.3444,-5.3073,-5.2912,-5.229,-5.2252,-5.2608,-5.2339,-5.2214,-5.2193,-5.1825,-5.1314,-5.076,-5.0397,-5.0302,-5.0187,-4.948,-4.9041,-4.8659,-4.8105,-4.7704,-4.7474,-4.7131,-4.6729,-4.629,-4.5927,-4.5774,-4.5698,-4.543,-4.5277,-4.5277,-4.5277,-4.5277,-4.5277,-4.5277,-4.5277,-4.5277,-4.5277,-4.5277,-4.5277,-4.5277,-4.5277,-4.5277,-4.5277,-4.5277,-4.5277,-4.5277,-4.5277,-4.5277,-4.5277,-4.5277,-4.5277,-4.5258,-4.5277,-4.5277,-4.5277,-4.5277,-4.5277,-4.5277,-4.5277,-4.5277,-4.5239,-4.5277,-4.5258,-4.5277,-4.4781,-4.3901,-4.3767,-4.3577,-4.3386,-4.3252,-4.3042,-4.2851,-4.2717,-4.2794,-4.2622,-4.2412,-4.18,-4.1533,-4.1074,-4.054,-4.0444,-4.0329,-4.0329,-4.0348,-4.031,-4.031,-4.031,-4.0272,-4.0272,-3.968,-3.901,-3.841,-3.7955,-3.7488,-3.7096,-3.6784,-3.6664,-3.6401,-3.6399,-3.6118,-3.6007,-3.6007,-3.601,-3.601,-3.601,-3.601,-3.601,-5.6483,-5.6483,-5.6483,-5.6425,-5.6327,-5.5606,-5.5275,-5.5139,-5.4359,-5.3961,-5.3877,-5.3424,-5.3356,-5.3353,-5.3102,-5.2939,-5.2772,-5.2275,-5.1773,-5.1429,-5.0951,-5.0608,-5.0225,-4.9614,-4.9576,-4.9805,-4.8754,-4.8411,-4.8735,-4.8181,-4.7837,-4.7551,-4.6901,-4.6519,-4.6309,-4.5736,-4.5411,-4.5297,-4.5277,-4.5277,-4.5277,-4.5277,-4.5277,-4.5277,-4.5277,-4.5277,-4.5277,-4.5277,-4.5277,-4.5277,-4.5277,-4.5277,-4.5277,-4.5277,-4.5277,-4.5277,-4.5277,-4.5277,-4.5277,-4.5277,-4.5277,-4.5277,-4.5277,-4.5277,-4.5277,-4.5277,-4.5277,-4.5277,-4.5277,-4.5277,-4.5277,-4.5277,-4.5201,-4.5258,-4.4991,-4.4704,-4.4188,-4.4093,-4.3864,-4.3291,-4.2966,-4.2985,-4.3157,-4.3004,-4.2526,-4.2049,-4.1724,-4.1304,-4.0922,-4.0788,-4.0482,-4.0444,-4.052,-4.0329,-4.0329,-4.0329,-4.0329,-4.0119,-3.9565,-3.9197,-3.8626,-3.8123,-3.7797,-3.7492,-3.7267,-3.6985,-3.6699,-3.6481,-3.6157,-3.6007,-3.6007,-3.601,-3.601,-3.601,-3.603,-5.6483,-5.6483,-5.6483,-5.6483,-5.6483,-5.623,-5.6132,-5.6035,-5.5217,-5.4762,-5.4533,-5.3858,-5.3867,-5.4237,-5.4012,-5.3925,-5.3801,-5.3508,-5.2671,-5.1811,-5.2059,-5.1353,-5.0512,-5.0111,-5.0073,-5.0187,-4.9767,-4.9461,-4.9117,-4.8888,-4.8449,-4.7818,-4.7646,-4.7131,-4.6557,-4.6328,-4.5851,-4.5373,-4.5297,-4.5316,-4.5277,-4.5277,-4.5277,-4.5277,-4.5277,-4.5277,-4.5277,-4.5277,-4.5277,-4.5277,-4.5277,-4.5277,-4.5277,-4.5277,-4.5277,-4.5277,-4.5277,-4.5277,-4.5277,-4.5277,-4.5277,-4.5277,-4.5277,-4.5277,-4.5277,-4.5277,-4.5277,-4.5277,-4.5277,-4.5277,-4.5277,-4.5277,-4.5277,-4.5277,-4.5277,-4.5182,-4.4991,-4.4953,-4.4857,-4.4666,-4.4551,-4.4494,-4.438,-4.4036,-4.3577,-4.3233,-4.2775,-4.2316,-4.1839,-4.1457,-4.1208,-4.096,-4.0864,-4.052,-4.0329,-4.0329,-4.031,-4.0291,-4.0024,-3.9775,-3.9128,-3.846,-3.8233,-3.8054,-3.7962,-3.7722,-3.7342,-3.7019,-3.6637,-3.6394,-3.6303,-3.642,-3.6127,-3.603,-3.6049,-5.6483,-5.6483,-5.6483,-5.6483,-5.6483,-5.6483,-5.6483,-5.6377,-5.5892,-5.5547,-5.5307,-5.4739,-5.4663,-5.4979,-5.4831,-5.4779,-5.4699,-5.3929,-5.3206,-5.2881,-5.2728,-5.2021,-5.1028,-5.055,-5.0302,-5.0302,-5.0302,-5.0015,-4.9691,-4.9614,-4.9308,-4.8926,-4.8506,-4.8086,-4.7685,-4.7169,-4.6634,-4.5965,-4.5793,-4.5679,-4.5316,-4.5277,-4.5277,-4.5277,-4.5277,-4.5277,-4.5277,-4.5277,-4.5277,-4.5277,-4.5277,-4.5277,-4.5277,-4.5277,-4.5277,-4.5277,-4.5277,-4.5277,-4.5277,-4.5277,-4.5277,-4.5277,-4.5277,-4.5277,-4.5277,-4.5277,-4.5277,-4.5277,-4.5277,-4.5277,-4.5277,-4.5277,-4.5277,-4.5277,-4.5277,-4.5277,-4.5277,-4.5258,-4.5277,-4.5277,-4.5277,-4.5277,-4.5277,-4.4819,-4.4437,-4.4017,-4.3558,-4.3119,-4.2698,-4.2335,-4.203,-4.1839,-4.1686,-4.1495,-4.1399,-4.1399,-4.1323,-4.1189,-4.0807,-4.0501,-3.9898,-3.9191,-3.912,-3.9005,-3.8747,-3.8473,-3.8205,-3.7921,-3.7679,-3.7432,-3.7123,-3.6872,-3.6696,-3.6342,-3.6323,-5.6483,-5.6483,-5.6483,-5.6483,-5.6483,-5.6483,-5.6474,-5.6417,-5.6236,-5.6104,-5.5947,-5.5712,-5.5436,-5.5583,-5.5298,-5.5345,-5.525,-5.4071,-5.3836,-5.3626,-5.3206,-5.2155,-5.1735,-5.0932,-5.0512,-5.034,-5.0302,-5.0264,-5.0168,-5.0206,-5.0264,-4.9939,-4.9461,-4.9156,-4.8716,-4.8239,-4.7436,-4.6577,-4.6366,-4.5984,-4.543,-4.5277,-4.5277,-4.5277,-4.5277,-4.5277,-4.5277,-4.5277,-4.5277,-4.5277,-4.5277,-4.5277,-4.5277,-4.5277,-4.5277,-4.5277,-4.5277,-4.5277,-4.5277,-4.5277,-4.5277,-4.5277,-4.5277,-4.5277,-4.5277,-4.5277,-4.5277,-4.5277,-4.5277,-4.5277,-4.5277,-4.5277,-4.5277,-4.5277,-4.5277,-4.5277,-4.5277,-4.5277,-4.5277,-4.5277,-4.5277,-4.5277,-4.5277,-4.5239,-4.5029,-4.459,-4.4227,-4.4036,-4.3615,-4.3214,-4.3004,-4.287,-4.2756,-4.2641,-4.2622,-4.2603,-4.2507,-4.2354,-4.1858,-4.1456,-4.0952,-4.0438,-4.028,-4.0092,-3.9704,-3.9493,-3.934,-3.9076,-3.8717,-3.831,-3.7884,-3.775,-3.7633,-3.7106,-3.6891,-5.6483,-5.6483,-5.6483,-5.6483,-5.6483,-5.6483,-5.6407,-5.6283,-5.6226,-5.6029,-5.5769,-5.5649,-5.5554,-5.5465,-5.5409,-5.5403,-5.5403,-5.4887,-5.5002,-5.4753,-5.2766,-5.2308,-5.2251,-5.1735,-5.0971,-5.0493,-5.0302,-5.0302,-5.0302,-5.0302,-5.0302,-5.0245,-5.0054,-4.971,-4.9156,-4.8945,-4.8028,-4.6806,-4.6577,-4.6214,-4.5545,-4.5373,-4.5354,-4.5297,-4.5277,-4.5277,-4.5277,-4.5277,-4.5277,-4.5277,-4.5277,-4.5277,-4.5277,-4.5277,-4.5277,-4.5277,-4.5277,-4.5277,-4.5277,-4.5277,-4.5277,-4.5277,-4.5277,-4.5277,-4.5277,-4.5277,-4.5277,-4.5277,-4.5277,-4.5277,-4.5277,-4.5277,-4.5277,-4.5277,-4.5277,-4.5277,-4.5277,-4.5277,-4.5277,-4.5277,-4.5277,-4.5277,-4.5277,-4.5277,-4.5144,-4.501,-4.4934,-4.4895,-4.4532,-4.4055,-4.3902,-4.3768,-4.3558,-4.3424,-4.3405,-4.3386,-4.3291,-4.3157,-4.2756,-4.2278,-4.1797,-4.1338,-4.1067,-4.0843,-4.0607,-4.042,-4.0213,-3.9876,-3.9474,-3.9052,-3.8723,-3.8609,-3.8394,-3.7887,-3.7458,-5.6483,-5.6483,-5.6483,-5.6483,-5.6483,-5.6483,-5.6388,-5.6194,-5.6093,-5.5879,-5.5628,-5.5535,-5.5451,-5.5384,-5.5403,-5.5403,-5.5403,-5.5384,-5.5154,-5.4715,-5.3664,-5.3473,-5.3244,-5.2824,-5.2021,-5.0608,-5.0302,-5.0302,-5.0302,-5.0302,-5.0302,-5.0302,-5.0302,-5.0073,-4.9729,-4.9633,-4.9003,-4.8067,-4.7685,-4.715,-4.608,-4.587,-4.5583,-4.5373,-4.5277,-4.5277,-4.5277,-4.5277,-4.5277,-4.5277,-4.5277,-4.5277,-4.5277,-4.5277,-4.5277,-4.5277,-4.5277,-4.5277,-4.5277,-4.5277,-4.5277,-4.5277,-4.5277,-4.5277,-4.5277,-4.5277,-4.5277,-4.5277,-4.5277,-4.5277,-4.5277,-4.5277,-4.5277,-4.5277,-4.5277,-4.5277,-4.5277,-4.5277,-4.5277,-4.5277,-4.5277,-4.5277,-4.5277,-4.5277,-4.5277,-4.5144,-4.5144,-4.5105,-4.5105,-4.4723,-4.4704,-4.4551,-4.4303,-4.415,-4.415,-4.4093,-4.3978,-4.3787,-4.3482,-4.3004,-4.2508,-4.2078,-4.1701,-4.1519,-4.1335,-4.1091,-4.0847,-4.052,-4.0313,-4.0164,-3.9917,-3.9605,-3.9253,-3.8882,-3.8453,-5.6483,-5.6483,-5.6483,-5.6483,-5.6483,-5.6446,-5.6317,-5.6121,-5.5949,-5.575,-5.5583,-5.5421,-5.5409,-5.5403,-5.5403,-5.5403,-5.5403,-5.5365,-5.5097,-5.4619,-5.4658,-5.4352,-5.397,-5.3339,-5.2384,-5.0627,-5.0588,-5.055,-5.0359,-5.0302,-5.0302,-5.0302,-5.0302,-5.0225,-5.0264,-5.0245,-4.9748,-4.8926,-4.8774,-4.8181,-4.6882,-4.6538,-4.6042,-4.543,-4.5277,-4.5277,-4.5277,-4.5277,-4.5277,-4.5277,-4.5277,-4.5277,-4.5277,-4.5277,-4.5277,-4.5277,-4.5277,-4.5277,-4.5277,-4.5277,-4.5277,-4.5277,-4.5277,-4.5277,-4.5277,-4.5277,-4.5277,-4.5277,-4.5277,-4.5277,-4.5277,-4.5277,-4.5277,-4.5277,-4.5277,-4.5277,-4.5277,-4.5277,-4.5277,-4.5277,-4.5277,-4.5277,-4.5277,-4.5277,-4.5277,-4.5277,-4.5277,-4.5277,-4.5277,-4.5258,-4.5144,-4.5105,-4.48,-4.4685,-4.4685,-4.4647,-4.4551,-4.4418,-4.415,-4.3845,-4.3464,-4.3547,-4.3236,-4.2356,-4.2053,-4.1779,-4.1447,-4.1046,-4.0957,-4.1143,-4.0912,-4.0405,-4.0112,-3.9897,-3.939,-5.6483,-5.6483,-5.6483,-5.6483,-5.6474,-5.6336,-5.6135,-5.5949,-5.575,-5.558,-5.5421,-5.5428,-5.5403,-5.5365,-5.5403,-5.5403,-5.5403,-5.5365,-5.5288,-5.4963,-5.483,-5.4333,-5.4142,-5.3301,-5.2136,-5.1582,-5.1353,-5.1047,-5.0417,-5.0302,-5.0302,-5.0302,-5.0302,-5.0302,-5.0302,-5.0264,-4.9939,-4.9366,-4.9213,-4.8602,-4.7742,-4.6825,-4.6194,-4.5468,-4.5354,-4.5277,-4.5277,-4.5277,-4.5277,-4.5277,-4.5277,-4.5277,-4.5277,-4.5277,-4.5277,-4.5277,-4.5277,-4.5277,-4.5277,-4.5277,-4.5277,-4.5277,-4.5277,-4.5277,-4.5277,-4.5277,-4.5277,-4.5277,-4.5277,-4.5277,-4.5277,-4.5277,-4.5277,-4.5277,-4.5277,-4.5277,-4.5277,-4.5277,-4.5277,-4.5277,-4.5277,-4.5277,-4.5277,-4.5277,-4.5277,-4.5277,-4.5277,-4.5277,-4.5277,-4.5277,-4.5258,-4.5239,-4.522,-4.5182,-4.5182,-4.5125,-4.5067,-4.501,-4.4838,-4.4838,-4.4729,-4.5182,-4.4879,-4.3788,-4.2918,-4.2466,-4.207,-4.1686,-4.1445,-4.1491,-4.13,-4.1088,-4.0717,-4.0346,-4.0054,-5.6483,-5.6483,-5.6483,-5.6437,-5.6347,-5.6239,-5.6029,-5.577,-5.563,-5.5512,-5.5415,-5.5384,-5.5135,-5.4944,-5.5269,-5.5403,-5.5365,-5.5403,-5.5403,-5.525,-5.4982,-5.4772,-5.4734,-5.3798,-5.3339,-5.29,-5.2442,-5.1525,-5.0397,-5.0302,-5.0321,-5.0302,-5.0302,-5.0302,-5.0302,-5.0283,-5.0073,-4.9729,-4.9652,-4.9289,-4.8411,-4.7245,-4.6309,-4.5965,-4.5507,-4.5297,-4.5277,-4.5277,-4.5277,-4.5277,-4.5277,-4.5297,-4.5335,-4.5335,-4.5316,-4.5354,-4.5335,-4.5297,-4.5297,-4.5277,-4.5277,-4.5277,-4.5297,-4.5277,-4.5277,-4.5277,-4.5373,-4.5316,-4.5297,-4.5277,-4.5277,-4.5277,-4.5277,-4.5277,-4.5277,-4.5277,-4.5277,-4.5277,-4.5277,-4.5277,-4.5277,-4.5277,-4.5277,-4.5277,-4.5277,-4.5277,-4.5277,-4.5277,-4.5277,-4.5277,-4.5277,-4.5277,-4.5277,-4.5277,-4.5277,-4.5277,-4.5277,-4.5277,-4.5277,-4.5277,-4.5381,-4.5552,-4.5496,-4.4925,-4.4141,-4.3461,-4.305,-4.2787,-4.2323,-4.1858,-4.1788,-4.1635,-4.1186,-4.0795,-4.0483,-5.6474,-5.6437,-5.6437,-5.6317,-5.6154,-5.6093,-5.5896,-5.5649,-5.5561,-5.5504,-5.5409,-5.5365,-5.504,-5.4658,-5.4791,-5.504,-5.4963,-5.4944,-5.5078,-5.5116,-5.5269,-5.5365,-5.5365,-5.5135,-5.4543,-5.3741,-5.3034,-5.2117,-5.1142,-5.0512,-5.0417,-5.0531,-5.0493,-5.0302,-5.0302,-5.0302,-5.0302,-5.0302,-5.0283,-4.9882,-4.8907,-4.7799,-4.6787,-4.6519,-4.587,-4.5507,-4.5316,-4.5564,-4.5621,-4.5698,-4.5793,-4.5889,-4.5812,-4.5812,-4.5812,-4.5774,-4.564,-4.5488,-4.5335,-4.5564,-4.566,-4.5681,-4.5604,-4.564,-4.5889,-4.6061,-4.587,-4.5602,-4.5583,-4.5449,-4.5354,-4.5277,-4.5277,-4.5277,-4.5277,-4.5277,-4.5277,-4.5277,-4.5277,-4.5277,-4.5297,-4.5297,-4.5297,-4.5277,-4.5277,-4.5277,-4.5277,-4.5277,-4.5277,-4.5277,-4.5277,-4.5277,-4.5277,-4.5277,-4.5277,-4.5277,-4.5277,-4.5277,-4.5277,-4.5277,-4.5419,-4.5574,-4.5471,-4.5441,-4.544,-4.4796,-4.4367,-4.3669,-4.2951,-4.2483,-4.2432,-4.2045,-4.1342,-4.1049,-4.0873,-5.6398,-5.6239,-5.6239,-5.6121,-5.5913,-5.5769,-5.5651,-5.5585,-5.5476,-5.5409,-5.5403,-5.5384,-5.5307,-5.5002,-5.4371,-5.3855,-5.3607,-5.4046,-5.4409,-5.4524,-5.5078,-5.5403,-5.5288,-5.4562,-5.4448,-5.397,-5.3206,-5.2785,-5.2021,-5.0971,-5.0779,-5.1104,-5.0703,-5.034,-5.0493,-5.0512,-5.0302,-5.0302,-5.0302,-4.992,-4.9232,-4.8774,-4.7818,-4.692,-4.629,-4.5965,-4.5564,-4.5908,-4.6252,-4.6443,-4.7092,-4.7436,-4.7513,-4.7513,-4.7513,-4.7283,-4.6806,-4.608,-4.5736,-4.5927,-4.6309,-4.6311,-4.6369,-4.6768,-4.6997,-4.7166,-4.6956,-4.6385,-4.6366,-4.6156,-4.5736,-4.5449,-4.5354,-4.5468,-4.5681,-4.5604,-4.5507,-4.5965,-4.5889,-4.5545,-4.5621,-4.543,-4.5316,-4.5297,-4.5277,-4.5277,-4.5277,-4.5277,-4.5277,-4.5277,-4.5277,-4.5277,-4.5277,-4.5277,-4.5277,-4.5277,-4.5277,-4.5277,-4.5277,-4.5298,-4.54,-4.5543,-4.5713,-4.5716,-4.5831,-4.5748,-4.5128,-4.4328,-4.3474,-4.3072,-4.2959,-4.222,-4.1283,-4.1186,-4.1303,-5.6283,-5.6181,-5.6078,-5.5913,-5.5731,-5.563,-5.5538,-5.548,-5.5434,-5.5403,-5.5403,-5.5403,-5.5154,-5.4581,-5.3741,-5.3187,-5.3034,-5.3702,-5.4085,-5.4276,-5.4906,-5.5384,-5.5326,-5.5002,-5.4696,-5.3989,-5.3301,-5.2824,-5.2384,-5.1811,-5.1314,-5.1467,-5.1238,-5.1066,-5.0932,-5.1009,-5.0722,-5.0474,-5.0283,-5.013,-4.9633,-4.8888,-4.8028,-4.7226,-4.6385,-4.6003,-4.608,-4.6233,-4.6787,-4.7131,-4.7704,-4.778,-4.7799,-4.778,-4.778,-4.778,-4.7971,-4.757,-4.692,-4.6653,-4.6806,-4.7152,-4.7245,-4.7398,-4.772,-4.7834,-4.7758,-4.7302,-4.7245,-4.7016,-4.6768,-4.6748,-4.671,-4.6672,-4.6464,-4.6541,-4.6519,-4.6672,-4.6768,-4.6347,-4.5965,-4.5851,-4.5717,-4.564,-4.5526,-4.5277,-4.5277,-4.5277,-4.5277,-4.5277,-4.5277,-4.5277,-4.5277,-4.5277,-4.5277,-4.5277,-4.5277,-4.5277,-4.5277,-4.5319,-4.538,-4.551,-4.5684,-4.5883,-4.599,-4.5838,-4.5606,-4.5308,-4.4751,-4.411,-4.3486,-4.2845,-4.224,-4.1947,-4.2084,-5.6044,-5.6029,-5.5898,-5.573,-5.5558,-5.5558,-5.5504,-5.5384,-5.5403,-5.5403,-5.5326,-5.5135,-5.4562,-5.3836,-5.311,-5.2594,-5.2212,-5.3511,-5.3836,-5.4161,-5.4772,-5.5345,-5.5365,-5.5288,-5.504,-5.439,-5.3664,-5.3282,-5.2957,-5.2384,-5.1907,-5.1868,-5.1276,-5.1353,-5.1467,-5.1219,-5.0779,-5.0359,-5.0302,-5.0264,-5.0034,-4.9156,-4.8391,-4.7646,-4.692,-4.6328,-4.65,-4.7131,-4.7646,-4.7971,-4.8487,-4.8678,-4.864,-4.8697,-4.8678,-4.8678,-4.885,-4.8774,-4.8258,-4.7933,-4.7627,-4.7933,-4.8391,-4.8582,-4.8563,-4.8407,-4.8235,-4.8181,-4.8124,-4.8028,-4.7857,-4.7723,-4.7589,-4.7513,-4.7595,-4.7726,-4.778,-4.7643,-4.7471,-4.7131,-4.6787,-4.6615,-4.6443,-4.6175,-4.5851,-4.5411,-4.5277,-4.5316,-4.5277,-4.5277,-4.5277,-4.5277,-4.5277,-4.5277,-4.5277,-4.5277,-4.5277,-4.5297,-4.5297,-4.5298,-4.5361,-4.5493,-4.5654,-4.5852,-4.6052,-4.6053,-4.5894,-4.6011,-4.6027,-4.5012,-4.4153,-4.3899,-4.3489,-4.3079,-4.2864,-5.563,-5.5649,-5.5611,-5.5497,-5.5434,-5.5409,-5.5409,-5.5403,-5.5403,-5.5365,-5.5174,-5.4639,-5.3913,-5.3053,-5.2747,-5.2021,-5.076,-5.3034,-5.3473,-5.3779,-5.4467,-5.5269,-5.5403,-5.5384,-5.5288,-5.4982,-5.4199,-5.3874,-5.3722,-5.2862,-5.2671,-5.2594,-5.1639,-5.1295,-5.1142,-5.0971,-5.0608,-5.0302,-5.0302,-5.0302,-5.0264,-4.9805,-4.9213,-4.8277,-4.8277,-4.8162,-4.6768,-4.7895,-4.8754,-4.8987,-4.9461,-4.9767,-4.9671,-4.971,-4.9691,-4.9691,-4.9385,-4.9461,-4.9404,-4.9022,-4.8926,-4.9178,-4.9461,-4.9767,-4.9691,-4.9958,-4.9748,-4.9098,-4.9003,-4.8697,-4.8258,-4.7857,-4.822,-4.8296,-4.8452,-4.8433,-4.8407,-4.827,-4.8079,-4.7815,-4.7627,-4.7455,-4.7188,-4.692,-4.6615,-4.6214,-4.5621,-4.5621,-4.5335,-4.5277,-4.5277,-4.5277,-4.5277,-4.5277,-4.5277,-4.5297,-4.5297,-4.5317,-4.5317,-4.5317,-4.5319,-4.5475,-4.5654,-4.579,-4.5979,-4.6076,-4.6181,-4.6206,-4.5987,-4.5343,-4.4797,-4.4445,-4.4192,-4.3801,-4.3723,-5.5145,-5.5511,-5.4377,-5.447,-5.5403,-5.5403,-5.5403,-5.5403,-5.5403,-5.5059,-5.4619,-5.4715,-5.3836,-5.2652,-5.2575,-5.2212,-5.141,-5.2518,-5.3244,-5.3951,-5.4753,-5.5307,-5.5403,-5.5307,-5.5135,-5.4715,-5.4237,-5.3741,-5.3206,-5.3034,-5.3301,-5.2996,-5.227,-5.1811,-5.1486,-5.0951,-5.0474,-5.0302,-5.0321,-5.0321,-5.0206,-4.9748,-4.9232,-4.8793,-4.8143,-4.8391,-4.8181,-4.8697,-4.9289,-4.9748,-5.013,-5.0245,-5.0302,-5.0302,-5.0302,-5.0302,-4.9901,-4.9996,-5.0054,-4.9652,-4.9328,-4.9824,-5.0111,-5.0302,-5.0302,-5.0302,-5.0206,-4.9901,-4.9786,-4.9461,-4.9461,-4.9347,-4.9442,-4.9366,-4.927,-4.9175,-4.9095,-4.8995,-4.8842,-4.8659,-4.8487,-4.8296,-4.8009,-4.7685,-4.7379,-4.7016,-4.6424,-4.5889,-4.5621,-4.5392,-4.5411,-4.5316,-4.5277,-4.5277,-4.5277,-4.5297,-4.5317,-4.5338,-4.5338,-4.5359,-4.536,-4.553,-4.5708,-4.5809,-4.5919,-4.6068,-4.6195,-4.6269,-4.6066,-4.5695,-4.5265,-4.4855,-4.4641,-4.4504,-4.4641,-5.4252,-5.4614,-5.3336,-5.3798,-5.5269,-5.5116,-5.5174,-5.5384,-5.5403,-5.4906,-5.4161,-5.4696,-5.3951,-5.2594,-5.2785,-5.2728,-5.2461,-5.3168,-5.3702,-5.4314,-5.4868,-5.5326,-5.5403,-5.5345,-5.5154,-5.4505,-5.4142,-5.3779,-5.3855,-5.3359,-5.355,-5.3702,-5.3511,-5.2881,-5.2403,-5.1525,-5.0837,-5.0436,-5.0588,-5.0455,-5.0302,-4.9843,-4.927,-4.9175,-4.8831,-4.8774,-4.9003,-4.9308,-4.9729,-5.0073,-5.0283,-5.0283,-5.0302,-5.0302,-5.0302,-5.0302,-5.0302,-5.0302,-5.013,-4.9939,-4.9729,-5.013,-5.0245,-5.0302,-5.0302,-5.0302,-5.0225,-5.0245,-5.0245,-5.0321,-5.0359,-5.0111,-5.0034,-4.9882,-4.9901,-4.9862,-4.9901,-4.982,-4.9667,-4.95,-4.9347,-4.9232,-4.9137,-4.8812,-4.82,-4.7818,-4.7226,-4.6596,-4.6023,-4.5793,-4.564,-4.5488,-4.5277,-4.5277,-4.5277,-4.5297,-4.5317,-4.5317,-4.5338,-4.5379,-4.5438,-4.5584,-4.5708,-4.579,-4.5929,-4.6096,-4.6195,-4.6269,-4.63,-4.6241,-4.5812,-4.5382,-4.546,-4.5402,-4.5597,-5.2886,-5.2824,-5.2766,-5.3702,-5.5059,-5.4486,-5.46,-5.5212,-5.5269,-5.4849,-5.4142,-5.4237,-5.3741,-5.3015,-5.3473,-5.3397,-5.3225,-5.4237,-5.4772,-5.4562,-5.504,-5.5365,-5.5403,-5.5365,-5.5307,-5.5154,-5.4619,-5.4409,-5.5078,-5.418,-5.4065,-5.4199,-5.4161,-5.3855,-5.3874,-5.311,-5.1907,-5.0703,-5.12,-5.0951,-5.0436,-5.0149,-4.9767,-4.9519,-4.9652,-4.9633,-4.95,-4.9786,-5.0111,-5.0245,-5.0302,-5.0302,-5.0302,-5.0302,-5.0302,-5.0302,-5.0302,-5.0321,-5.0321,-5.0283,-5.034,-5.0302,-5.0302,-5.0302,-5.0321,-5.0359,-5.0474,-5.0627,-5.0627,-5.055,-5.0436,-5.0455,-5.0588,-5.0627,-5.0703,-5.055,-5.0588,-5.0302,-5.0054,-4.9939,-5.0111,-5.0225,-5.0206,-4.9958,-4.9194,-4.8602,-4.8028,-4.7379,-4.6691,-4.6194,-4.5984,-4.5736,-4.5488,-4.5277,-4.5277,-4.5277,-4.5297,-4.5298,-4.5339,-4.538,-4.5419,-4.5495,-4.5626,-4.577,-4.5889,-4.6044,-4.6164,-4.6292,-4.6296,-4.63,-4.63,-4.6085,-4.6183,-4.6183,-4.6163,-5.2327,-5.269,-5.1601,-5.2117,-5.3607,-5.4008,-5.4295,-5.4505,-5.4524,-5.4371,-5.4142,-5.4104,-5.3626,-5.3301,-5.3683,-5.3951,-5.3913,-5.3951,-5.4352,-5.504,-5.5307,-5.5365,-5.5403,-5.5403,-5.5403,-5.5174,-5.4658,-5.46,-5.5326,-5.46,-5.4619,-5.4791,-5.4772,-5.4276,-5.3473,-5.2805,-5.2174,-5.1391,-5.1391,-5.12,-5.0436,-5.0283,-5.0149,-4.9862,-5.0168,-5.0111,-4.9824,-5.0187,-5.0264,-5.0302,-5.0302,-5.0302,-5.0302,-5.0302,-5.0302,-5.0302,-5.034,-5.0608,-5.0956,-5.1128,-5.086,-5.0588,-5.0455,-5.0474,-5.034,-5.0909,-5.1061,-5.1276,-5.1525,-5.1677,-5.2007,-5.1983,-5.2021,-5.1931,-5.1816,-5.1376,-5.1123,-5.0569,-5.0206,-5.0187,-5.0302,-5.0302,-5.0302,-5.0302,-4.9729,-4.9423,-4.8907,-4.822,-4.7532,-4.6768,-4.6328,-4.6061,-4.5793,-4.5468,-4.5297,-4.5335,-4.5337,-4.5338,-4.538,-4.5419,-4.5457,-4.5457,-4.5623,-4.5808,-4.5897,-4.5969,-4.6164,-4.6296,-4.63,-4.63,-4.63,-4.63,-4.6261,-4.6241,-4.6261,-5.1448,-5.1792,-5.076,-5.0913,-5.2002,-5.2862,-5.3378,-5.3664,-5.3932,-5.3951,-5.3798,-5.4199,-5.4085,-5.3741,-5.4085,-5.4543,-5.4543,-5.4581,-5.4677,-5.5384,-5.5403,-5.5403,-5.5403,-5.5384,-5.5403,-5.5212,-5.4982,-5.4944,-5.5384,-5.4868,-5.4887,-5.5212,-5.5384,-5.483,-5.4085,-5.376,-5.3015,-5.2193,-5.1754,-5.1505,-5.0703,-5.0302,-5.0302,-5.0245,-5.0302,-5.0264,-5.0283,-5.0302,-5.0302,-5.0321,-5.0321,-5.0321,-5.034,-5.0321,-5.0302,-5.0321,-5.0703,-5.1147,-5.1778,-5.2007,-5.1759,-5.1429,-5.1181,-5.1162,-5.1219,-5.1773,-5.1945,-5.2193,-5.2614,-5.2728,-5.2843,-5.29,-5.29,-5.2747,-5.2537,-5.2098,-5.183,-5.1295,-5.0837,-5.0779,-5.0436,-5.0397,-5.0302,-5.0302,-5.0111,-4.9977,-4.9805,-4.9079,-4.8372,-4.7704,-4.7035,-4.6748,-4.6366,-4.6023,-4.5698,-4.543,-4.5413,-4.5359,-4.538,-4.5419,-4.5457,-4.5476,-4.5684,-4.5852,-4.5908,-4.5996,-4.6181,-4.63,-4.63,-4.63,-4.63,-4.63,-4.63,-4.63,-4.63,-5.0321,-5.0302,-5.0302,-5.0321,-5.0493,-5.1353,-5.2079,-5.2862,-5.3607,-5.3511,-5.2919,-5.4409,-5.4314,-5.4161,-5.4811,-5.5059,-5.5059,-5.5097,-5.5135,-5.5288,-5.5307,-5.5269,-5.5212,-5.5269,-5.5231,-5.5288,-5.5154,-5.4925,-5.5345,-5.5231,-5.5269,-5.5365,-5.5403,-5.5154,-5.5021,-5.4753,-5.3836,-5.2824,-5.2518,-5.1964,-5.0971,-5.0531,-5.0455,-5.0378,-5.0302,-5.0302,-5.0302,-5.0302,-5.0378,-5.0417,-5.0436,-5.0436,-5.0417,-5.0359,-5.034,-5.0588,-5.12,-5.1964,-5.2676,-5.2848,-5.2996,-5.2837,-5.29,-5.2881,-5.2671,-5.2633,-5.2843,-5.2957,-5.3225,-5.3148,-5.3129,-5.3206,-5.3257,-5.3143,-5.3066,-5.2837,-5.2709,-5.2289,-5.1792,-5.1391,-5.0856,-5.0588,-5.0359,-5.0302,-5.0302,-5.0225,-5.0054,-4.9824,-4.9194,-4.8831,-4.82,-4.7704,-4.7283,-4.6691,-4.6328,-4.6023,-4.5755,-4.5776,-4.5455,-4.5419,-4.5438,-4.5494,-4.5669,-4.5815,-4.5889,-4.6021,-4.6216,-4.63,-4.63,-4.63,-4.63,-4.63,-4.63,-4.63,-4.63,-5.0302,-5.0302,-5.0302,-5.0302,-5.034,-5.0569,-5.1486,-5.269,-5.2537,-5.2403,-5.2805,-5.2709,-5.3091,-5.3187,-5.3435,-5.3951,-5.4295,-5.4467,-5.4448,-5.4619,-5.4906,-5.4428,-5.439,-5.4677,-5.483,-5.4696,-5.46,-5.4944,-5.5307,-5.5403,-5.5403,-5.5403,-5.5403,-5.5403,-5.5403,-5.5403,-5.4409,-5.3683,-5.3531,-5.2461,-5.1505,-5.1047,-5.0779,-5.0455,-5.0302,-5.0302,-5.0302,-5.0302,-5.0493,-5.1066,-5.1181,-5.1372,-5.2059,-5.1582,-5.1238,-5.1334,-5.2021,-5.2805,-5.3536,-5.3727,-5.3899,-5.4333,-5.4486,-5.376,-5.3435,-5.3359,-5.3702,-5.3817,-5.4065,-5.4142,-5.4161,-5.4199,-5.4193,-5.4136,-5.3964,-5.3716,-5.3531,-5.3072,-5.2575,-5.204,-5.1486,-5.0894,-5.0627,-5.0302,-5.0302,-5.0302,-5.0225,-5.0092,-4.9901,-4.95,-4.9213,-4.8716,-4.8105,-4.7494,-4.7131,-4.6806,-4.6443,-4.6156,-4.5816,-4.5533,-4.5419,-4.5493,-4.5638,-4.5815,-4.5978,-4.6112,-4.6269,-4.63,-4.63,-4.63,-4.63,-4.63,-4.63,-4.63,-4.63,-5.0302,-5.0302,-5.0302,-5.0302,-5.0302,-5.0302,-5.0932,-5.1697,-5.1639,-5.1926,-5.2289,-5.2231,-5.2346,-5.2766,-5.29,-5.3148,-5.3569,-5.3588,-5.3588,-5.3741,-5.4199,-5.3664,-5.3607,-5.4065,-5.4428,-5.4295,-5.4486,-5.504,-5.5307,-5.5403,-5.5403,-5.5403,-5.5403,-5.5403,-5.5403,-5.5365,-5.5174,-5.4467,-5.3836,-5.2862,-5.2098,-5.1391,-5.076,-5.0512,-5.034,-5.034,-5.034,-5.034,-5.0799,-5.1467,-5.1601,-5.1983,-5.2575,-5.2289,-5.2403,-5.2556,-5.3015,-5.376,-5.4409,-5.4626,-5.495,-5.5212,-5.5384,-5.4868,-5.4486,-5.439,-5.4543,-5.4677,-5.504,-5.5326,-5.5345,-5.5384,-5.5345,-5.5326,-5.4982,-5.4639,-5.4218,-5.376,-5.3263,-5.2747,-5.2117,-5.1448,-5.0971,-5.0588,-5.0302,-5.0302,-5.0302,-5.0245,-5.013,-4.9939,-4.9805,-4.9557,-4.8907,-4.8277,-4.7952,-4.7589,-4.7092,-4.6653,-4.6235,-4.5913,-4.561,-4.5475,-4.5623,-4.5844,-4.6098,-4.6211,-4.63,-4.63,-4.63,-4.63,-4.63,-4.63,-4.63,-4.63,-4.63,-5.0092,-5.0054,-5.0187,-5.0206,-5.0302,-5.0302,-5.034,-5.0378,-5.1123,-5.1486,-5.162,-5.2212,-5.2346,-5.2212,-5.2231,-5.2403,-5.2652,-5.2709,-5.2728,-5.2728,-5.3091,-5.2881,-5.2957,-5.3607,-5.4161,-5.4448,-5.4811,-5.5231,-5.5326,-5.5403,-5.5403,-5.5403,-5.5403,-5.5403,-5.5403,-5.5403,-5.5269,-5.504,-5.4008,-5.29,-5.2155,-5.1257,-5.0531,-5.0493,-5.0493,-5.0493,-5.0474,-5.0588,-5.0856,-5.1486,-5.1983,-5.2403,-5.2709,-5.3187,-5.3569,-5.3741,-5.4008,-5.4505,-5.4982,-5.5154,-5.5231,-5.5365,-5.5384,-5.525,-5.5078,-5.5002,-5.5059,-5.5078,-5.5345,-5.5403,-5.5403,-5.5403,-5.5403,-5.5403,-5.5212,-5.504,-5.4849,-5.4409,-5.397,-5.3454,-5.29,-5.2193,-5.1353,-5.0971,-5.0569,-5.0436,-5.0302,-5.0302,-5.0264,-5.0187,-5.0149,-5.0111,-4.9671,-4.9098,-4.8926,-4.8487,-4.7723,-4.7207,-4.6751,-4.6294,-4.5954,-4.5744,-4.5555,-4.5844,-4.6118,-4.6216,-4.63,-4.63,-4.63,-4.63,-4.63,-4.63,-4.63,-4.63,-4.63,-4.8391,-4.8468,-4.9117,-4.971,-5.0264,-5.0302,-5.0302,-5.0321,-5.0512,-5.0646,-5.0665,-5.0837,-5.099,-5.1104,-5.1123,-5.1353,-5.1811,-5.1868,-5.1888,-5.2136,-5.2384,-5.2365,-5.2365,-5.3416,-5.3989,-5.439,-5.4849,-5.5403,-5.5403,-5.5403,-5.5403,-5.5403,-5.5403,-5.5403,-5.5403,-5.5403,-5.5365,-5.5307,-5.4486,-5.3741,-5.3359,-5.3148,-5.2785,-5.1811,-5.1238,-5.12,-5.12,-5.1276,-5.2193,-5.3168,-5.3435,-5.3645,-5.3779,-5.4371,-5.4448,-5.4314,-5.4677,-5.5078,-5.5269,-5.5403,-5.5403,-5.5403,-5.5403,-5.5403,-5.5384,-5.5403,-5.5403,-5.5403,-5.5403,-5.5403,-5.5403,-5.5403,-5.5403,-5.5403,-5.5403,-5.5403,-5.5403,-5.5021,-5.4619,-5.4161,-5.3645,-5.2843,-5.1945,-5.1334,-5.0951,-5.0646,-5.0397,-5.0302,-5.0302,-5.0245,-5.0245,-5.0225,-5.0245,-4.9882,-4.971,-4.9369,-4.8605,-4.7881,-4.7386,-4.6851,-4.6278,-4.5982,-4.5757,-4.5897,-4.6096,-4.6211,-4.63,-4.63,-4.63,-4.63,-4.63,-4.63,-4.63,-4.63,-4.63,-4.7799,-4.7933,-4.8735,-4.9328,-4.9786,-5.013,-5.0302,-5.0302,-5.0302,-5.0302,-5.0302,-5.0302,-5.0302,-5.0302,-5.0321,-5.0474,-5.1028,-5.1009,-5.1028,-5.1276,-5.183,-5.1907,-5.2422,-5.3301,-5.3836,-5.4333,-5.4982,-5.5403,-5.5403,-5.5403,-5.5403,-5.5403,-5.5403,-5.5403,-5.5403,-5.5403,-5.5403,-5.5365,-5.483,-5.4677,-5.4467,-5.3951,-5.3015,-5.1907,-5.162,-5.1639,-5.1601,-5.1697,-5.2614,-5.3779,-5.4352,-5.46,-5.4734,-5.5021,-5.5078,-5.4963,-5.5097,-5.5403,-5.5403,-5.5403,-5.5403,-5.5403,-5.5403,-5.5403,-5.5403,-5.5403,-5.5403,-5.5403,-5.5403,-5.5403,-5.5403,-5.5403,-5.5403,-5.5403,-5.5403,-5.5403,-5.5403,-5.525,-5.504,-5.4868,-5.4218,-5.3378,-5.2499,-5.1697,-5.1238,-5.055,-5.0321,-5.0397,-5.0378,-5.0436,-5.0397,-5.0302,-5.0302,-5.0302,-5.0092,-4.9847,-4.9491,-4.8786,-4.8062,-4.7088,-4.6395,-4.6118,-4.5969,-4.6201,-4.6298,-4.624,-4.63,-4.6475,-4.6358,-4.63,-4.63,-4.63,-4.6319,-4.6397,-4.6358,-4.7494,-4.7742,-4.843,-4.8831,-4.9022,-4.9652,-4.9901,-4.992,-4.9958,-5.0015,-5.0073,-5.0073,-5.0168,-5.0283,-5.0302,-5.0302,-5.0359,-5.0531,-5.0436,-5.0646,-5.1314,-5.1773,-5.2499,-5.3301,-5.3989,-5.4543,-5.5097,-5.5326,-5.5403,-5.5403,-5.5403,-5.5403,-5.5403,-5.5403,-5.5403,-5.5403,-5.5403,-5.5403,-5.5231,-5.5307,-5.4734,-5.3951,-5.2957,-5.2231,-5.1849,-5.1868,-5.183,-5.2155,-5.2881,-5.3817,-5.4925,-5.5116,-5.5231,-5.5326,-5.5345,-5.5288,-5.5269,-5.5403,-5.5403,-5.5403,-5.5403,-5.5403,-5.5403,-5.5403,-5.5403,-5.5403,-5.5403,-5.5403,-5.5403,-5.5403,-5.5403,-5.5403,-5.5403,-5.5403,-5.5403,-5.5403,-5.5403,-5.5403,-5.5365,-5.5326,-5.4715,-5.3874,-5.311,-5.2289,-5.1639,-5.0894,-5.055,-5.0512,-5.0569,-5.0684,-5.0722,-5.0474,-5.0302,-5.0302,-5.0302,-5.0153,-4.9912,-4.9581,-4.8779,-4.7508,-4.6584,-4.6569,-4.6581,-4.662,-4.6649,-4.6694,-4.6788,-4.6983,-4.6749,-4.6612,-4.6671,-4.6788,-4.6768,-4.6768,-4.6515,-4.6156,-4.6768,-4.694,-4.7398,-4.8028,-4.8239,-4.8277,-4.8296,-4.8353,-4.864,-4.9213,-4.9385,-4.9633,-5.0283,-5.0302,-5.0302,-5.0302,-5.0302,-5.0302,-5.0455,-5.1219,-5.1888,-5.2614,-5.3435,-5.4409,-5.4963,-5.5269,-5.5345,-5.5403,-5.5403,-5.5403,-5.5403,-5.5403,-5.5403,-5.5403,-5.5403,-5.5403,-5.5403,-5.5403,-5.5403,-5.5403,-5.4696,-5.4008,-5.3492,-5.3244,-5.3034,-5.2977,-5.3301,-5.4142,-5.4887,-5.525,-5.5365,-5.5403,-5.5403,-5.5403,-5.5403,-5.5403,-5.5403,-5.5403,-5.5403,-5.5403,-5.5403,-5.5403,-5.5403,-5.5403,-5.5403,-5.5403,-5.5403,-5.5403,-5.5403,-5.5403,-5.5403,-5.5403,-5.5403,-5.5403,-5.5403,-5.5403,-5.5403,-5.5384,-5.5365,-5.5174,-5.4486,-5.3836,-5.3263,-5.2977,-5.2346,-5.1945,-5.183,-5.1162,-5.1104,-5.1047,-5.0665,-5.0321,-5.0302,-5.0302,-5.0302,-5.0122,-4.9928,-4.9566,-4.843,-4.7636,-4.7295,-4.7272,-4.7378,-4.7372,-4.7405,-4.749,-4.7588,-4.7608,-4.753,-4.7412,-4.7393,-4.7354,-4.7315,-4.7198]}]]